<?xml version="1.0" encoding="UTF-8" ?>
<gpx version="1.1" xmlns:xsi="http://www.w3.org/2001/XMLSchema-instance" 
    xmlns="http://www.topografix.com/GPX/1/1" 
    xsi:schemaLocation="http://www.topografix.com/GPX/1/1 http://www.topografix.com/GPX/1/1/gpx.xsd" 
    creator="Openrunner - https://www.openrunner.com" >	<trk>
						<name>CD Au Pays des Mille Etangs-2 cols-15913963</name>
						<trkseg>
					<trkpt lat="48.012420" lon="6.587690">
						<ele>415</ele>
						<time>2023-01-17T20:40:37Z</time>
					</trkpt>
					<trkpt lat="48.011860" lon="6.587250">
						<ele>418</ele>
						<time>2023-01-17T20:40:48Z</time>
					</trkpt>
					<trkpt lat="48.011680" lon="6.587080">
						<ele>419</ele>
						<time>2023-01-17T20:40:52Z</time>
					</trkpt>
					<trkpt lat="48.011570" lon="6.586920">
						<ele>420</ele>
						<time>2023-01-17T20:40:55Z</time>
					</trkpt>
					<trkpt lat="48.011370" lon="6.586510">
						<ele>421</ele>
						<time>2023-01-17T20:41:01Z</time>
					</trkpt>
					<trkpt lat="48.011350" lon="6.586370">
						<ele>422</ele>
						<time>2023-01-17T20:41:03Z</time>
					</trkpt>
					<trkpt lat="48.011400" lon="6.586340">
						<ele>421</ele>
						<time>2023-01-17T20:41:03Z</time>
					</trkpt>
					<trkpt lat="48.011730" lon="6.586380">
						<ele>419</ele>
						<time>2023-01-17T20:41:09Z</time>
					</trkpt>
					<trkpt lat="48.011940" lon="6.586370">
						<ele>417</ele>
						<time>2023-01-17T20:41:13Z</time>
					</trkpt>
					<trkpt lat="48.012060" lon="6.586330">
						<ele>416</ele>
						<time>2023-01-17T20:41:15Z</time>
					</trkpt>
					<trkpt lat="48.012170" lon="6.586250">
						<ele>416</ele>
						<time>2023-01-17T20:41:17Z</time>
					</trkpt>
					<trkpt lat="48.012340" lon="6.586040">
						<ele>415</ele>
						<time>2023-01-17T20:41:21Z</time>
					</trkpt>
					<trkpt lat="48.012550" lon="6.585690">
						<ele>414</ele>
						<time>2023-01-17T20:41:27Z</time>
					</trkpt>
					<trkpt lat="48.012790" lon="6.585890">
						<ele>413</ele>
						<time>2023-01-17T20:41:32Z</time>
					</trkpt>
					<trkpt lat="48.013090" lon="6.586200">
						<ele>412</ele>
						<time>2023-01-17T20:41:38Z</time>
					</trkpt>
					<trkpt lat="48.013710" lon="6.586230">
						<ele>411</ele>
						<time>2023-01-17T20:41:49Z</time>
					</trkpt>
					<trkpt lat="48.015010" lon="6.586160">
						<ele>407</ele>
						<time>2023-01-17T20:42:13Z</time>
					</trkpt>
					<trkpt lat="48.016440" lon="6.586080">
						<ele>405</ele>
						<time>2023-01-17T20:42:38Z</time>
					</trkpt>
					<trkpt lat="48.016400" lon="6.585670">
						<ele>406</ele>
						<time>2023-01-17T20:42:43Z</time>
					</trkpt>
					<trkpt lat="48.016230" lon="6.583620">
						<ele>411</ele>
						<time>2023-01-17T20:43:08Z</time>
					</trkpt>
					<trkpt lat="48.016260" lon="6.583280">
						<ele>412</ele>
						<time>2023-01-17T20:43:12Z</time>
					</trkpt>
					<trkpt lat="48.016430" lon="6.582890">
						<ele>412</ele>
						<time>2023-01-17T20:43:17Z</time>
					</trkpt>
					<trkpt lat="48.016900" lon="6.582230">
						<ele>412</ele>
						<time>2023-01-17T20:43:29Z</time>
					</trkpt>
					<trkpt lat="48.017390" lon="6.581040">
						<ele>415</ele>
						<time>2023-01-17T20:43:45Z</time>
					</trkpt>
					<trkpt lat="48.017790" lon="6.579070">
						<ele>439</ele>
						<time>2023-01-17T20:44:10Z</time>
					</trkpt>
					<trkpt lat="48.018440" lon="6.576950">
						<ele>442</ele>
						<time>2023-01-17T20:44:38Z</time>
					</trkpt>
					<trkpt lat="48.018690" lon="6.575530">
						<ele>448</ele>
						<time>2023-01-17T20:44:55Z</time>
					</trkpt>
					<trkpt lat="48.019160" lon="6.572020">
						<ele>443</ele>
						<time>2023-01-17T20:45:38Z</time>
					</trkpt>
					<trkpt lat="48.019430" lon="6.570480">
						<ele>446</ele>
						<time>2023-01-17T20:45:57Z</time>
					</trkpt>
					<trkpt lat="48.019560" lon="6.569490">
						<ele>448</ele>
						<time>2023-01-17T20:46:09Z</time>
					</trkpt>
					<trkpt lat="48.019580" lon="6.569350">
						<ele>448</ele>
						<time>2023-01-17T20:46:10Z</time>
					</trkpt>
					<trkpt lat="48.019390" lon="6.569330">
						<ele>450</ele>
						<time>2023-01-17T20:46:14Z</time>
					</trkpt>
					<trkpt lat="48.019280" lon="6.569210">
						<ele>451</ele>
						<time>2023-01-17T20:46:16Z</time>
					</trkpt>
					<trkpt lat="48.019210" lon="6.569030">
						<ele>451</ele>
						<time>2023-01-17T20:46:19Z</time>
					</trkpt>
					<trkpt lat="48.019000" lon="6.568230">
						<ele>454</ele>
						<time>2023-01-17T20:46:29Z</time>
					</trkpt>
					<trkpt lat="48.018910" lon="6.568000">
						<ele>455</ele>
						<time>2023-01-17T20:46:32Z</time>
					</trkpt>
					<trkpt lat="48.018800" lon="6.567830">
						<ele>457</ele>
						<time>2023-01-17T20:46:35Z</time>
					</trkpt>
					<trkpt lat="48.018300" lon="6.567260">
						<ele>461</ele>
						<time>2023-01-17T20:46:46Z</time>
					</trkpt>
					<trkpt lat="48.017910" lon="6.566860">
						<ele>463</ele>
						<time>2023-01-17T20:46:54Z</time>
					</trkpt>
					<trkpt lat="48.017600" lon="6.566670">
						<ele>465</ele>
						<time>2023-01-17T20:47:00Z</time>
					</trkpt>
					<trkpt lat="48.017430" lon="6.566540">
						<ele>466</ele>
						<time>2023-01-17T20:47:04Z</time>
					</trkpt>
					<trkpt lat="48.016980" lon="6.566120">
						<ele>467</ele>
						<time>2023-01-17T20:47:13Z</time>
					</trkpt>
					<trkpt lat="48.016190" lon="6.565460">
						<ele>473</ele>
						<time>2023-01-17T20:47:29Z</time>
					</trkpt>
					<trkpt lat="48.016050" lon="6.565380">
						<ele>474</ele>
						<time>2023-01-17T20:47:32Z</time>
					</trkpt>
					<trkpt lat="48.015890" lon="6.565350">
						<ele>475</ele>
						<time>2023-01-17T20:47:35Z</time>
					</trkpt>
					<trkpt lat="48.015730" lon="6.565410">
						<ele>477</ele>
						<time>2023-01-17T20:47:38Z</time>
					</trkpt>
					<trkpt lat="48.015450" lon="6.565580">
						<ele>480</ele>
						<time>2023-01-17T20:47:43Z</time>
					</trkpt>
					<trkpt lat="48.015140" lon="6.565820">
						<ele>483</ele>
						<time>2023-01-17T20:47:49Z</time>
					</trkpt>
					<trkpt lat="48.014110" lon="6.566530">
						<ele>497</ele>
						<time>2023-01-17T20:48:10Z</time>
					</trkpt>
					<trkpt lat="48.013970" lon="6.566600">
						<ele>499</ele>
						<time>2023-01-17T20:48:12Z</time>
					</trkpt>
					<trkpt lat="48.013830" lon="6.566590">
						<ele>499</ele>
						<time>2023-01-17T20:48:15Z</time>
					</trkpt>
					<trkpt lat="48.013750" lon="6.566540">
						<ele>499</ele>
						<time>2023-01-17T20:48:16Z</time>
					</trkpt>
					<trkpt lat="48.013640" lon="6.566410">
						<ele>498</ele>
						<time>2023-01-17T20:48:19Z</time>
					</trkpt>
					<trkpt lat="48.013580" lon="6.566300">
						<ele>497</ele>
						<time>2023-01-17T20:48:20Z</time>
					</trkpt>
					<trkpt lat="48.013520" lon="6.566130">
						<ele>495</ele>
						<time>2023-01-17T20:48:23Z</time>
					</trkpt>
					<trkpt lat="48.013440" lon="6.565780">
						<ele>492</ele>
						<time>2023-01-17T20:48:27Z</time>
					</trkpt>
					<trkpt lat="48.013290" lon="6.564830">
						<ele>496</ele>
						<time>2023-01-17T20:48:39Z</time>
					</trkpt>
					<trkpt lat="48.013180" lon="6.564200">
						<ele>498</ele>
						<time>2023-01-17T20:48:46Z</time>
					</trkpt>
					<trkpt lat="48.013030" lon="6.563870">
						<ele>498</ele>
						<time>2023-01-17T20:48:51Z</time>
					</trkpt>
					<trkpt lat="48.012910" lon="6.563740">
						<ele>499</ele>
						<time>2023-01-17T20:48:54Z</time>
					</trkpt>
					<trkpt lat="48.011970" lon="6.563020">
						<ele>507</ele>
						<time>2023-01-17T20:49:13Z</time>
					</trkpt>
					<trkpt lat="48.011820" lon="6.562960">
						<ele>508</ele>
						<time>2023-01-17T20:49:15Z</time>
					</trkpt>
					<trkpt lat="48.011040" lon="6.562800">
						<ele>512</ele>
						<time>2023-01-17T20:49:29Z</time>
					</trkpt>
					<trkpt lat="48.010560" lon="6.562790">
						<ele>518</ele>
						<time>2023-01-17T20:49:38Z</time>
					</trkpt>
					<trkpt lat="48.010330" lon="6.562820">
						<ele>522</ele>
						<time>2023-01-17T20:49:42Z</time>
					</trkpt>
					<trkpt lat="48.010210" lon="6.562760">
						<ele>523</ele>
						<time>2023-01-17T20:49:44Z</time>
					</trkpt>
					<trkpt lat="48.010110" lon="6.562650">
						<ele>523</ele>
						<time>2023-01-17T20:49:46Z</time>
					</trkpt>
					<trkpt lat="48.010020" lon="6.562470">
						<ele>521</ele>
						<time>2023-01-17T20:49:49Z</time>
					</trkpt>
					<trkpt lat="48.009820" lon="6.561960">
						<ele>517</ele>
						<time>2023-01-17T20:49:56Z</time>
					</trkpt>
					<trkpt lat="48.009730" lon="6.561830">
						<ele>517</ele>
						<time>2023-01-17T20:49:58Z</time>
					</trkpt>
					<trkpt lat="48.009620" lon="6.561700">
						<ele>518</ele>
						<time>2023-01-17T20:50:01Z</time>
					</trkpt>
					<trkpt lat="48.009250" lon="6.561370">
						<ele>523</ele>
						<time>2023-01-17T20:50:09Z</time>
					</trkpt>
					<trkpt lat="48.009040" lon="6.561090">
						<ele>525</ele>
						<time>2023-01-17T20:50:14Z</time>
					</trkpt>
					<trkpt lat="48.008890" lon="6.560850">
						<ele>526</ele>
						<time>2023-01-17T20:50:17Z</time>
					</trkpt>
					<trkpt lat="48.008800" lon="6.560660">
						<ele>526</ele>
						<time>2023-01-17T20:50:20Z</time>
					</trkpt>
					<trkpt lat="48.008710" lon="6.560430">
						<ele>526</ele>
						<time>2023-01-17T20:50:23Z</time>
					</trkpt>
					<trkpt lat="48.008560" lon="6.559900">
						<ele>525</ele>
						<time>2023-01-17T20:50:30Z</time>
					</trkpt>
					<trkpt lat="48.008500" lon="6.559770">
						<ele>524</ele>
						<time>2023-01-17T20:50:32Z</time>
					</trkpt>
					<trkpt lat="48.008340" lon="6.559520">
						<ele>525</ele>
						<time>2023-01-17T20:50:36Z</time>
					</trkpt>
					<trkpt lat="48.008010" lon="6.559140">
						<ele>527</ele>
						<time>2023-01-17T20:50:44Z</time>
					</trkpt>
					<trkpt lat="48.007860" lon="6.559000">
						<ele>528</ele>
						<time>2023-01-17T20:50:47Z</time>
					</trkpt>
					<trkpt lat="48.007630" lon="6.558830">
						<ele>530</ele>
						<time>2023-01-17T20:50:51Z</time>
					</trkpt>
					<trkpt lat="48.007520" lon="6.558790">
						<ele>532</ele>
						<time>2023-01-17T20:50:53Z</time>
					</trkpt>
					<trkpt lat="48.007350" lon="6.558790">
						<ele>533</ele>
						<time>2023-01-17T20:50:56Z</time>
					</trkpt>
					<trkpt lat="48.006610" lon="6.558920">
						<ele>541</ele>
						<time>2023-01-17T20:51:10Z</time>
					</trkpt>
					<trkpt lat="48.006450" lon="6.558890">
						<ele>546</ele>
						<time>2023-01-17T20:51:13Z</time>
					</trkpt>
					<trkpt lat="48.006310" lon="6.558810">
						<ele>549</ele>
						<time>2023-01-17T20:51:15Z</time>
					</trkpt>
					<trkpt lat="48.006180" lon="6.558700">
						<ele>550</ele>
						<time>2023-01-17T20:51:18Z</time>
					</trkpt>
					<trkpt lat="48.006040" lon="6.558490">
						<ele>550</ele>
						<time>2023-01-17T20:51:21Z</time>
					</trkpt>
					<trkpt lat="48.005480" lon="6.557450">
						<ele>544</ele>
						<time>2023-01-17T20:51:37Z</time>
					</trkpt>
					<trkpt lat="48.005330" lon="6.557190">
						<ele>544</ele>
						<time>2023-01-17T20:51:41Z</time>
					</trkpt>
					<trkpt lat="48.005250" lon="6.557090">
						<ele>545</ele>
						<time>2023-01-17T20:51:43Z</time>
					</trkpt>
					<trkpt lat="48.005120" lon="6.556990">
						<ele>546</ele>
						<time>2023-01-17T20:51:46Z</time>
					</trkpt>
					<trkpt lat="48.004750" lon="6.556770">
						<ele>546</ele>
						<time>2023-01-17T20:51:53Z</time>
					</trkpt>
					<trkpt lat="48.004510" lon="6.556580">
						<ele>546</ele>
						<time>2023-01-17T20:51:58Z</time>
					</trkpt>
					<trkpt lat="48.003420" lon="6.555590">
						<ele>549</ele>
						<time>2023-01-17T20:52:20Z</time>
					</trkpt>
					<trkpt lat="48.002820" lon="6.555050">
						<ele>556</ele>
						<time>2023-01-17T20:52:33Z</time>
					</trkpt>
					<trkpt lat="48.002060" lon="6.554400">
						<ele>553</ele>
						<time>2023-01-17T20:52:49Z</time>
					</trkpt>
					<trkpt lat="48.002030" lon="6.554510">
						<ele>555</ele>
						<time>2023-01-17T20:52:50Z</time>
					</trkpt>
					<trkpt lat="48.001750" lon="6.554920">
						<ele>563</ele>
						<time>2023-01-17T20:52:57Z</time>
					</trkpt>
					<trkpt lat="48.000880" lon="6.555990">
						<ele>571</ele>
						<time>2023-01-17T20:53:17Z</time>
					</trkpt>
					<trkpt lat="48.000660" lon="6.556530">
						<ele>575</ele>
						<time>2023-01-17T20:53:24Z</time>
					</trkpt>
					<trkpt lat="48.000560" lon="6.556950">
						<ele>577</ele>
						<time>2023-01-17T20:53:30Z</time>
					</trkpt>
					<trkpt lat="48.000500" lon="6.557870">
						<ele>581</ele>
						<time>2023-01-17T20:53:41Z</time>
					</trkpt>
					<trkpt lat="48.000510" lon="6.558720">
						<ele>583</ele>
						<time>2023-01-17T20:53:51Z</time>
					</trkpt>
					<trkpt lat="48.000420" lon="6.563120">
						<ele>596</ele>
						<time>2023-01-17T20:54:43Z</time>
					</trkpt>
					<trkpt lat="48.000510" lon="6.564090">
						<ele>602</ele>
						<time>2023-01-17T20:54:55Z</time>
					</trkpt>
					<trkpt lat="48.000570" lon="6.564520">
						<ele>606</ele>
						<time>2023-01-17T20:55:00Z</time>
					</trkpt>
					<trkpt lat="48.000570" lon="6.564700">
						<ele>608</ele>
						<time>2023-01-17T20:55:02Z</time>
					</trkpt>
					<trkpt lat="48.000520" lon="6.564860">
						<ele>609</ele>
						<time>2023-01-17T20:55:04Z</time>
					</trkpt>
					<trkpt lat="48.000440" lon="6.564920">
						<ele>609</ele>
						<time>2023-01-17T20:55:06Z</time>
					</trkpt>
					<trkpt lat="48.000360" lon="6.564920">
						<ele>608</ele>
						<time>2023-01-17T20:55:07Z</time>
					</trkpt>
					<trkpt lat="48.000280" lon="6.564890">
						<ele>608</ele>
						<time>2023-01-17T20:55:09Z</time>
					</trkpt>
					<trkpt lat="48.000190" lon="6.564820">
						<ele>606</ele>
						<time>2023-01-17T20:55:11Z</time>
					</trkpt>
					<trkpt lat="48.000130" lon="6.564730">
						<ele>605</ele>
						<time>2023-01-17T20:55:12Z</time>
					</trkpt>
					<trkpt lat="48.000050" lon="6.564520">
						<ele>603</ele>
						<time>2023-01-17T20:55:15Z</time>
					</trkpt>
					<trkpt lat="47.999960" lon="6.564400">
						<ele>602</ele>
						<time>2023-01-17T20:55:17Z</time>
					</trkpt>
					<trkpt lat="47.999640" lon="6.564120">
						<ele>606</ele>
						<time>2023-01-17T20:55:24Z</time>
					</trkpt>
					<trkpt lat="47.999510" lon="6.563910">
						<ele>607</ele>
						<time>2023-01-17T20:55:27Z</time>
					</trkpt>
					<trkpt lat="47.999200" lon="6.563130">
						<ele>608</ele>
						<time>2023-01-17T20:55:38Z</time>
					</trkpt>
					<trkpt lat="47.998420" lon="6.561260">
						<ele>610</ele>
						<time>2023-01-17T20:56:04Z</time>
					</trkpt>
					<trkpt lat="47.998310" lon="6.561180">
						<ele>611</ele>
						<time>2023-01-17T20:56:06Z</time>
					</trkpt>
					<trkpt lat="47.998090" lon="6.561150">
						<ele>610</ele>
						<time>2023-01-17T20:56:10Z</time>
					</trkpt>
					<trkpt lat="47.998020" lon="6.561200">
						<ele>611</ele>
						<time>2023-01-17T20:56:12Z</time>
					</trkpt>
					<trkpt lat="47.997950" lon="6.561260">
						<ele>611</ele>
						<time>2023-01-17T20:56:13Z</time>
					</trkpt>
					<trkpt lat="47.997680" lon="6.561690">
						<ele>615</ele>
						<time>2023-01-17T20:56:20Z</time>
					</trkpt>
					<trkpt lat="47.997520" lon="6.561890">
						<ele>617</ele>
						<time>2023-01-17T20:56:24Z</time>
					</trkpt>
					<trkpt lat="47.997370" lon="6.561980">
						<ele>619</ele>
						<time>2023-01-17T20:56:27Z</time>
					</trkpt>
					<trkpt lat="47.997250" lon="6.562010">
						<ele>620</ele>
						<time>2023-01-17T20:56:29Z</time>
					</trkpt>
					<trkpt lat="47.996790" lon="6.561920">
						<ele>623</ele>
						<time>2023-01-17T20:56:37Z</time>
					</trkpt>
					<trkpt lat="47.996660" lon="6.561800">
						<ele>623</ele>
						<time>2023-01-17T20:56:40Z</time>
					</trkpt>
					<trkpt lat="47.996440" lon="6.561220">
						<ele>623</ele>
						<time>2023-01-17T20:56:48Z</time>
					</trkpt>
					<trkpt lat="47.996250" lon="6.560570">
						<ele>623</ele>
						<time>2023-01-17T20:56:56Z</time>
					</trkpt>
					<trkpt lat="47.995910" lon="6.559960">
						<ele>626</ele>
						<time>2023-01-17T20:57:06Z</time>
					</trkpt>
					<trkpt lat="47.995370" lon="6.559440">
						<ele>630</ele>
						<time>2023-01-17T20:57:17Z</time>
					</trkpt>
					<trkpt lat="47.995170" lon="6.559060">
						<ele>630</ele>
						<time>2023-01-17T20:57:23Z</time>
					</trkpt>
					<trkpt lat="47.995020" lon="6.558640">
						<ele>627</ele>
						<time>2023-01-17T20:57:29Z</time>
					</trkpt>
					<trkpt lat="47.994420" lon="6.556200">
						<ele>621</ele>
						<time>2023-01-17T20:58:00Z</time>
					</trkpt>
					<trkpt lat="47.993970" lon="6.554240">
						<ele>615</ele>
						<time>2023-01-17T20:58:24Z</time>
					</trkpt>
					<trkpt lat="47.993820" lon="6.553840">
						<ele>612</ele>
						<time>2023-01-17T20:58:30Z</time>
					</trkpt>
					<trkpt lat="47.993760" lon="6.553730">
						<ele>612</ele>
						<time>2023-01-17T20:58:31Z</time>
					</trkpt>
					<trkpt lat="47.993700" lon="6.553680">
						<ele>612</ele>
						<time>2023-01-17T20:58:33Z</time>
					</trkpt>
					<trkpt lat="47.993570" lon="6.553670">
						<ele>613</ele>
						<time>2023-01-17T20:58:35Z</time>
					</trkpt>
					<trkpt lat="47.993450" lon="6.553760">
						<ele>616</ele>
						<time>2023-01-17T20:58:37Z</time>
					</trkpt>
					<trkpt lat="47.993260" lon="6.554010">
						<ele>619</ele>
						<time>2023-01-17T20:58:42Z</time>
					</trkpt>
					<trkpt lat="47.992790" lon="6.554970">
						<ele>622</ele>
						<time>2023-01-17T20:58:56Z</time>
					</trkpt>
					<trkpt lat="47.992450" lon="6.555530">
						<ele>622</ele>
						<time>2023-01-17T20:59:05Z</time>
					</trkpt>
					<trkpt lat="47.992130" lon="6.555760">
						<ele>621</ele>
						<time>2023-01-17T20:59:11Z</time>
					</trkpt>
					<trkpt lat="47.991450" lon="6.556020">
						<ele>618</ele>
						<time>2023-01-17T20:59:24Z</time>
					</trkpt>
					<trkpt lat="47.991280" lon="6.556150">
						<ele>618</ele>
						<time>2023-01-17T20:59:27Z</time>
					</trkpt>
					<trkpt lat="47.991070" lon="6.556460">
						<ele>619</ele>
						<time>2023-01-17T20:59:33Z</time>
					</trkpt>
					<trkpt lat="47.990400" lon="6.557820">
						<ele>616</ele>
						<time>2023-01-17T20:59:53Z</time>
					</trkpt>
					<trkpt lat="47.990130" lon="6.559000">
						<ele>617</ele>
						<time>2023-01-17T21:00:07Z</time>
					</trkpt>
					<trkpt lat="47.990040" lon="6.559360">
						<ele>618</ele>
						<time>2023-01-17T21:00:12Z</time>
					</trkpt>
					<trkpt lat="47.989950" lon="6.559590">
						<ele>617</ele>
						<time>2023-01-17T21:00:15Z</time>
					</trkpt>
					<trkpt lat="47.989870" lon="6.559750">
						<ele>616</ele>
						<time>2023-01-17T21:00:18Z</time>
					</trkpt>
					<trkpt lat="47.989460" lon="6.560340">
						<ele>606</ele>
						<time>2023-01-17T21:00:28Z</time>
					</trkpt>
					<trkpt lat="47.989390" lon="6.560590">
						<ele>604</ele>
						<time>2023-01-17T21:00:31Z</time>
					</trkpt>
					<trkpt lat="47.989370" lon="6.560880">
						<ele>603</ele>
						<time>2023-01-17T21:00:34Z</time>
					</trkpt>
					<trkpt lat="47.989430" lon="6.561190">
						<ele>604</ele>
						<time>2023-01-17T21:00:38Z</time>
					</trkpt>
					<trkpt lat="47.989790" lon="6.561850">
						<ele>614</ele>
						<time>2023-01-17T21:00:48Z</time>
					</trkpt>
					<trkpt lat="47.989860" lon="6.562130">
						<ele>614</ele>
						<time>2023-01-17T21:00:52Z</time>
					</trkpt>
					<trkpt lat="47.989910" lon="6.562680">
						<ele>613</ele>
						<time>2023-01-17T21:00:59Z</time>
					</trkpt>
					<trkpt lat="47.989900" lon="6.563180">
						<ele>614</ele>
						<time>2023-01-17T21:01:05Z</time>
					</trkpt>
					<trkpt lat="47.989750" lon="6.563740">
						<ele>611</ele>
						<time>2023-01-17T21:01:12Z</time>
					</trkpt>
					<trkpt lat="47.989680" lon="6.564340">
						<ele>612</ele>
						<time>2023-01-17T21:01:19Z</time>
					</trkpt>
					<trkpt lat="47.989630" lon="6.565250">
						<ele>613</ele>
						<time>2023-01-17T21:01:30Z</time>
					</trkpt>
					<trkpt lat="47.989560" lon="6.566970">
						<ele>614</ele>
						<time>2023-01-17T21:01:50Z</time>
					</trkpt>
					<trkpt lat="47.989650" lon="6.567590">
						<ele>615</ele>
						<time>2023-01-17T21:01:58Z</time>
					</trkpt>
					<trkpt lat="47.989600" lon="6.567880">
						<ele>613</ele>
						<time>2023-01-17T21:02:01Z</time>
					</trkpt>
					<trkpt lat="47.990310" lon="6.569150">
						<ele>613</ele>
						<time>2023-01-17T21:02:21Z</time>
					</trkpt>
					<trkpt lat="47.990710" lon="6.569630">
						<ele>620</ele>
						<time>2023-01-17T21:02:30Z</time>
					</trkpt>
					<trkpt lat="47.991150" lon="6.570040">
						<ele>619</ele>
						<time>2023-01-17T21:02:40Z</time>
					</trkpt>
					<trkpt lat="47.991970" lon="6.570840">
						<ele>622</ele>
						<time>2023-01-17T21:02:57Z</time>
					</trkpt>
					<trkpt lat="47.992410" lon="6.571170">
						<ele>619</ele>
						<time>2023-01-17T21:03:06Z</time>
					</trkpt>
					<trkpt lat="47.992820" lon="6.571420">
						<ele>615</ele>
						<time>2023-01-17T21:03:14Z</time>
					</trkpt>
					<trkpt lat="47.993800" lon="6.572100">
						<ele>603</ele>
						<time>2023-01-17T21:03:33Z</time>
					</trkpt>
					<trkpt lat="47.993890" lon="6.572100">
						<ele>602</ele>
						<time>2023-01-17T21:03:34Z</time>
					</trkpt>
					<trkpt lat="47.993880" lon="6.572590">
						<ele>602</ele>
						<time>2023-01-17T21:03:40Z</time>
					</trkpt>
					<trkpt lat="47.993910" lon="6.572700">
						<ele>604</ele>
						<time>2023-01-17T21:03:42Z</time>
					</trkpt>
					<trkpt lat="47.993980" lon="6.572800">
						<ele>605</ele>
						<time>2023-01-17T21:03:43Z</time>
					</trkpt>
					<trkpt lat="47.994250" lon="6.572970">
						<ele>603</ele>
						<time>2023-01-17T21:03:49Z</time>
					</trkpt>
					<trkpt lat="47.994750" lon="6.573190">
						<ele>596</ele>
						<time>2023-01-17T21:03:58Z</time>
					</trkpt>
					<trkpt lat="47.995020" lon="6.573470">
						<ele>595</ele>
						<time>2023-01-17T21:04:04Z</time>
					</trkpt>
					<trkpt lat="47.995240" lon="6.573830">
						<ele>596</ele>
						<time>2023-01-17T21:04:10Z</time>
					</trkpt>
					<trkpt lat="47.995400" lon="6.574240">
						<ele>599</ele>
						<time>2023-01-17T21:04:15Z</time>
					</trkpt>
					<trkpt lat="47.995600" lon="6.574610">
						<ele>600</ele>
						<time>2023-01-17T21:04:21Z</time>
					</trkpt>
					<trkpt lat="47.995700" lon="6.574760">
						<ele>600</ele>
						<time>2023-01-17T21:04:23Z</time>
					</trkpt>
					<trkpt lat="47.996280" lon="6.575450">
						<ele>595</ele>
						<time>2023-01-17T21:04:37Z</time>
					</trkpt>
					<trkpt lat="47.996580" lon="6.575930">
						<ele>593</ele>
						<time>2023-01-17T21:04:44Z</time>
					</trkpt>
					<trkpt lat="47.996710" lon="6.576310">
						<ele>593</ele>
						<time>2023-01-17T21:04:49Z</time>
					</trkpt>
					<trkpt lat="47.996750" lon="6.576490">
						<ele>593</ele>
						<time>2023-01-17T21:04:52Z</time>
					</trkpt>
					<trkpt lat="47.996750" lon="6.576820">
						<ele>595</ele>
						<time>2023-01-17T21:04:56Z</time>
					</trkpt>
					<trkpt lat="47.996730" lon="6.577020">
						<ele>595</ele>
						<time>2023-01-17T21:04:58Z</time>
					</trkpt>
					<trkpt lat="47.996670" lon="6.577150">
						<ele>597</ele>
						<time>2023-01-17T21:05:00Z</time>
					</trkpt>
					<trkpt lat="47.996560" lon="6.577250">
						<ele>599</ele>
						<time>2023-01-17T21:05:02Z</time>
					</trkpt>
					<trkpt lat="47.996330" lon="6.577420">
						<ele>602</ele>
						<time>2023-01-17T21:05:07Z</time>
					</trkpt>
					<trkpt lat="47.996070" lon="6.577480">
						<ele>606</ele>
						<time>2023-01-17T21:05:11Z</time>
					</trkpt>
					<trkpt lat="47.995970" lon="6.577530">
						<ele>607</ele>
						<time>2023-01-17T21:05:13Z</time>
					</trkpt>
					<trkpt lat="47.995770" lon="6.577730">
						<ele>609</ele>
						<time>2023-01-17T21:05:18Z</time>
					</trkpt>
					<trkpt lat="47.995430" lon="6.578140">
						<ele>613</ele>
						<time>2023-01-17T21:05:25Z</time>
					</trkpt>
					<trkpt lat="47.995010" lon="6.578730">
						<ele>612</ele>
						<time>2023-01-17T21:05:36Z</time>
					</trkpt>
					<trkpt lat="47.994830" lon="6.578860">
						<ele>613</ele>
						<time>2023-01-17T21:05:39Z</time>
					</trkpt>
					<trkpt lat="47.994550" lon="6.578870">
						<ele>618</ele>
						<time>2023-01-17T21:05:44Z</time>
					</trkpt>
					<trkpt lat="47.993710" lon="6.579160">
						<ele>625</ele>
						<time>2023-01-17T21:06:00Z</time>
					</trkpt>
					<trkpt lat="47.993300" lon="6.579420">
						<ele>626</ele>
						<time>2023-01-17T21:06:07Z</time>
					</trkpt>
					<trkpt lat="47.993140" lon="6.579490">
						<ele>628</ele>
						<time>2023-01-17T21:06:10Z</time>
					</trkpt>
					<trkpt lat="47.992560" lon="6.579810">
						<ele>633</ele>
						<time>2023-01-17T21:06:21Z</time>
					</trkpt>
					<trkpt lat="47.992330" lon="6.579980">
						<ele>634</ele>
						<time>2023-01-17T21:06:26Z</time>
					</trkpt>
					<trkpt lat="47.992080" lon="6.580100">
						<ele>639</ele>
						<time>2023-01-17T21:06:31Z</time>
					</trkpt>
					<trkpt lat="47.991980" lon="6.580170">
						<ele>641</ele>
						<time>2023-01-17T21:06:33Z</time>
					</trkpt>
					<trkpt lat="47.991900" lon="6.580250">
						<ele>643</ele>
						<time>2023-01-17T21:06:34Z</time>
					</trkpt>
					<trkpt lat="47.991860" lon="6.580380">
						<ele>643</ele>
						<time>2023-01-17T21:06:36Z</time>
					</trkpt>
					<trkpt lat="47.991850" lon="6.580530">
						<ele>642</ele>
						<time>2023-01-17T21:06:38Z</time>
					</trkpt>
					<trkpt lat="47.991880" lon="6.580790">
						<ele>641</ele>
						<time>2023-01-17T21:06:41Z</time>
					</trkpt>
					<trkpt lat="47.992010" lon="6.581090">
						<ele>640</ele>
						<time>2023-01-17T21:06:45Z</time>
					</trkpt>
					<trkpt lat="47.992100" lon="6.581240">
						<ele>639</ele>
						<time>2023-01-17T21:06:48Z</time>
					</trkpt>
					<trkpt lat="47.992280" lon="6.581600">
						<ele>636</ele>
						<time>2023-01-17T21:06:53Z</time>
					</trkpt>
					<trkpt lat="47.992380" lon="6.581980">
						<ele>637</ele>
						<time>2023-01-17T21:06:58Z</time>
					</trkpt>
					<trkpt lat="47.992450" lon="6.582380">
						<ele>639</ele>
						<time>2023-01-17T21:07:03Z</time>
					</trkpt>
					<trkpt lat="47.992510" lon="6.582940">
						<ele>638</ele>
						<time>2023-01-17T21:07:10Z</time>
					</trkpt>
					<trkpt lat="47.992500" lon="6.583100">
						<ele>638</ele>
						<time>2023-01-17T21:07:11Z</time>
					</trkpt>
					<trkpt lat="47.992450" lon="6.583270">
						<ele>639</ele>
						<time>2023-01-17T21:07:14Z</time>
					</trkpt>
					<trkpt lat="47.992280" lon="6.583600">
						<ele>643</ele>
						<time>2023-01-17T21:07:19Z</time>
					</trkpt>
					<trkpt lat="47.992030" lon="6.584010">
						<ele>647</ele>
						<time>2023-01-17T21:07:25Z</time>
					</trkpt>
					<trkpt lat="47.991800" lon="6.584510">
						<ele>648</ele>
						<time>2023-01-17T21:07:32Z</time>
					</trkpt>
					<trkpt lat="47.991590" lon="6.584830">
						<ele>651</ele>
						<time>2023-01-17T21:07:38Z</time>
					</trkpt>
					<trkpt lat="47.991480" lon="6.584950">
						<ele>653</ele>
						<time>2023-01-17T21:07:40Z</time>
					</trkpt>
					<trkpt lat="47.991160" lon="6.585370">
						<ele>655</ele>
						<time>2023-01-17T21:07:48Z</time>
					</trkpt>
					<trkpt lat="47.990640" lon="6.585770">
						<ele>661</ele>
						<time>2023-01-17T21:07:58Z</time>
					</trkpt>
					<trkpt lat="47.990390" lon="6.586010">
						<ele>664</ele>
						<time>2023-01-17T21:08:03Z</time>
					</trkpt>
					<trkpt lat="47.989850" lon="6.586790">
						<ele>664</ele>
						<time>2023-01-17T21:08:17Z</time>
					</trkpt>
					<trkpt lat="47.989310" lon="6.587490">
						<ele>669</ele>
						<time>2023-01-17T21:08:30Z</time>
					</trkpt>
					<trkpt lat="47.988980" lon="6.587860">
						<ele>675</ele>
						<time>2023-01-17T21:08:37Z</time>
					</trkpt>
					<trkpt lat="47.988870" lon="6.588240">
						<ele>674</ele>
						<time>2023-01-17T21:08:42Z</time>
					</trkpt>
					<trkpt lat="47.988720" lon="6.588590">
						<ele>676</ele>
						<time>2023-01-17T21:08:47Z</time>
					</trkpt>
					<trkpt lat="47.988560" lon="6.588860">
						<ele>678</ele>
						<time>2023-01-17T21:08:51Z</time>
					</trkpt>
					<trkpt lat="47.988270" lon="6.589260">
						<ele>680</ele>
						<time>2023-01-17T21:08:58Z</time>
					</trkpt>
					<trkpt lat="47.988160" lon="6.589370">
						<ele>680</ele>
						<time>2023-01-17T21:09:00Z</time>
					</trkpt>
					<trkpt lat="47.987440" lon="6.589880">
						<ele>685</ele>
						<time>2023-01-17T21:09:15Z</time>
					</trkpt>
					<trkpt lat="47.986620" lon="6.590510">
						<ele>692</ele>
						<time>2023-01-17T21:09:31Z</time>
					</trkpt>
					<trkpt lat="47.986230" lon="6.590900">
						<ele>698</ele>
						<time>2023-01-17T21:09:39Z</time>
					</trkpt>
					<trkpt lat="47.986160" lon="6.591020">
						<ele>700</ele>
						<time>2023-01-17T21:09:41Z</time>
					</trkpt>
					<trkpt lat="47.986120" lon="6.591140">
						<ele>701</ele>
						<time>2023-01-17T21:09:43Z</time>
					</trkpt>
					<trkpt lat="47.986120" lon="6.591300">
						<ele>701</ele>
						<time>2023-01-17T21:09:45Z</time>
					</trkpt>
					<trkpt lat="47.986160" lon="6.591890">
						<ele>701</ele>
						<time>2023-01-17T21:09:52Z</time>
					</trkpt>
					<trkpt lat="47.986190" lon="6.592090">
						<ele>701</ele>
						<time>2023-01-17T21:09:54Z</time>
					</trkpt>
					<trkpt lat="47.986410" lon="6.592990">
						<ele>702</ele>
						<time>2023-01-17T21:10:06Z</time>
					</trkpt>
					<trkpt lat="47.986450" lon="6.593280">
						<ele>703</ele>
						<time>2023-01-17T21:10:09Z</time>
					</trkpt>
					<trkpt lat="47.986430" lon="6.593590">
						<ele>704</ele>
						<time>2023-01-17T21:10:13Z</time>
					</trkpt>
					<trkpt lat="47.986340" lon="6.594170">
						<ele>704</ele>
						<time>2023-01-17T21:10:20Z</time>
					</trkpt>
					<trkpt lat="47.986310" lon="6.594280">
						<ele>703</ele>
						<time>2023-01-17T21:10:21Z</time>
					</trkpt>
					<trkpt lat="47.986250" lon="6.594380">
						<ele>704</ele>
						<time>2023-01-17T21:10:23Z</time>
					</trkpt>
					<trkpt lat="47.986110" lon="6.594540">
						<ele>704</ele>
						<time>2023-01-17T21:10:26Z</time>
					</trkpt>
					<trkpt lat="47.985920" lon="6.594600">
						<ele>705</ele>
						<time>2023-01-17T21:10:30Z</time>
					</trkpt>
					<trkpt lat="47.985400" lon="6.594550">
						<ele>708</ele>
						<time>2023-01-17T21:10:39Z</time>
					</trkpt>
					<trkpt lat="47.984970" lon="6.594540">
						<ele>710</ele>
						<time>2023-01-17T21:10:47Z</time>
					</trkpt>
					<trkpt lat="47.984470" lon="6.594570">
						<ele>710</ele>
						<time>2023-01-17T21:10:55Z</time>
					</trkpt>
					<trkpt lat="47.984210" lon="6.594640">
						<ele>709</ele>
						<time>2023-01-17T21:11:00Z</time>
					</trkpt>
					<trkpt lat="47.983130" lon="6.594920">
						<ele>709</ele>
						<time>2023-01-17T21:11:20Z</time>
					</trkpt>
					<trkpt lat="47.982980" lon="6.594930">
						<ele>708</ele>
						<time>2023-01-17T21:11:22Z</time>
					</trkpt>
					<trkpt lat="47.982660" lon="6.594900">
						<ele>706</ele>
						<time>2023-01-17T21:11:28Z</time>
					</trkpt>
					<trkpt lat="47.982190" lon="6.594950">
						<ele>704</ele>
						<time>2023-01-17T21:11:36Z</time>
					</trkpt>
					<trkpt lat="47.981600" lon="6.595060">
						<ele>702</ele>
						<time>2023-01-17T21:11:47Z</time>
					</trkpt>
					<trkpt lat="47.980800" lon="6.594920">
						<ele>701</ele>
						<time>2023-01-17T21:12:01Z</time>
					</trkpt>
					<trkpt lat="47.980340" lon="6.594930">
						<ele>700</ele>
						<time>2023-01-17T21:12:10Z</time>
					</trkpt>
					<trkpt lat="47.980080" lon="6.595020">
						<ele>699</ele>
						<time>2023-01-17T21:12:14Z</time>
					</trkpt>
					<trkpt lat="47.979100" lon="6.595500">
						<ele>702</ele>
						<time>2023-01-17T21:12:33Z</time>
					</trkpt>
					<trkpt lat="47.978300" lon="6.595840">
						<ele>699</ele>
						<time>2023-01-17T21:12:47Z</time>
					</trkpt>
					<trkpt lat="47.976990" lon="6.596330">
						<ele>685</ele>
						<time>2023-01-17T21:13:11Z</time>
					</trkpt>
					<trkpt lat="47.976450" lon="6.596650">
						<ele>682</ele>
						<time>2023-01-17T21:13:22Z</time>
					</trkpt>
					<trkpt lat="47.976130" lon="6.596920">
						<ele>678</ele>
						<time>2023-01-17T21:13:28Z</time>
					</trkpt>
					<trkpt lat="47.975780" lon="6.597130">
						<ele>679</ele>
						<time>2023-01-17T21:13:35Z</time>
					</trkpt>
					<trkpt lat="47.975370" lon="6.597280">
						<ele>675</ele>
						<time>2023-01-17T21:13:43Z</time>
					</trkpt>
					<trkpt lat="47.975100" lon="6.597350">
						<ele>674</ele>
						<time>2023-01-17T21:13:47Z</time>
					</trkpt>
					<trkpt lat="47.974950" lon="6.597370">
						<ele>673</ele>
						<time>2023-01-17T21:13:50Z</time>
					</trkpt>
					<trkpt lat="47.974750" lon="6.597310">
						<ele>674</ele>
						<time>2023-01-17T21:13:54Z</time>
					</trkpt>
					<trkpt lat="47.974030" lon="6.596800">
						<ele>677</ele>
						<time>2023-01-17T21:14:08Z</time>
					</trkpt>
					<trkpt lat="47.974000" lon="6.596760">
						<ele>677</ele>
						<time>2023-01-17T21:14:09Z</time>
					</trkpt>
					<trkpt lat="47.973910" lon="6.596660">
						<ele>679</ele>
						<time>2023-01-17T21:14:11Z</time>
					</trkpt>
					<trkpt lat="47.973840" lon="6.596550">
						<ele>681</ele>
						<time>2023-01-17T21:14:12Z</time>
					</trkpt>
					<trkpt lat="47.973790" lon="6.596390">
						<ele>682</ele>
						<time>2023-01-17T21:14:15Z</time>
					</trkpt>
					<trkpt lat="47.973010" lon="6.593410">
						<ele>686</ele>
						<time>2023-01-17T21:14:53Z</time>
					</trkpt>
					<trkpt lat="47.972940" lon="6.593200">
						<ele>686</ele>
						<time>2023-01-17T21:14:55Z</time>
					</trkpt>
					<trkpt lat="47.972870" lon="6.593110">
						<ele>687</ele>
						<time>2023-01-17T21:14:57Z</time>
					</trkpt>
					<trkpt lat="47.972800" lon="6.593090">
						<ele>688</ele>
						<time>2023-01-17T21:14:58Z</time>
					</trkpt>
					<trkpt lat="47.972750" lon="6.593120">
						<ele>689</ele>
						<time>2023-01-17T21:14:59Z</time>
					</trkpt>
					<trkpt lat="47.972720" lon="6.593190">
						<ele>691</ele>
						<time>2023-01-17T21:15:00Z</time>
					</trkpt>
					<trkpt lat="47.972720" lon="6.593310">
						<ele>692</ele>
						<time>2023-01-17T21:15:02Z</time>
					</trkpt>
					<trkpt lat="47.972730" lon="6.593450">
						<ele>693</ele>
						<time>2023-01-17T21:15:03Z</time>
					</trkpt>
					<trkpt lat="47.972800" lon="6.593910">
						<ele>695</ele>
						<time>2023-01-17T21:15:09Z</time>
					</trkpt>
					<trkpt lat="47.972820" lon="6.594300">
						<ele>697</ele>
						<time>2023-01-17T21:15:14Z</time>
					</trkpt>
					<trkpt lat="47.972710" lon="6.595060">
						<ele>701</ele>
						<time>2023-01-17T21:15:23Z</time>
					</trkpt>
					<trkpt lat="47.972660" lon="6.595250">
						<ele>701</ele>
						<time>2023-01-17T21:15:25Z</time>
					</trkpt>
					<trkpt lat="47.972570" lon="6.595550">
						<ele>703</ele>
						<time>2023-01-17T21:15:29Z</time>
					</trkpt>
					<trkpt lat="47.972480" lon="6.595720">
						<ele>704</ele>
						<time>2023-01-17T21:15:32Z</time>
					</trkpt>
					<trkpt lat="47.971130" lon="6.597400">
						<ele>718</ele>
						<time>2023-01-17T21:16:03Z</time>
					</trkpt>
					<trkpt lat="47.971040" lon="6.597490">
						<ele>719</ele>
						<time>2023-01-17T21:16:05Z</time>
					</trkpt>
					<trkpt lat="47.970820" lon="6.597600">
						<ele>719</ele>
						<time>2023-01-17T21:16:09Z</time>
					</trkpt>
					<trkpt lat="47.970240" lon="6.597590">
						<ele>720</ele>
						<time>2023-01-17T21:16:20Z</time>
					</trkpt>
					<trkpt lat="47.970070" lon="6.597680">
						<ele>720</ele>
						<time>2023-01-17T21:16:23Z</time>
					</trkpt>
					<trkpt lat="47.969980" lon="6.597800">
						<ele>720</ele>
						<time>2023-01-17T21:16:25Z</time>
					</trkpt>
					<trkpt lat="47.969870" lon="6.598010">
						<ele>720</ele>
						<time>2023-01-17T21:16:28Z</time>
					</trkpt>
					<trkpt lat="47.969810" lon="6.598190">
						<ele>720</ele>
						<time>2023-01-17T21:16:30Z</time>
					</trkpt>
					<trkpt lat="47.969670" lon="6.598400">
						<ele>720</ele>
						<time>2023-01-17T21:16:34Z</time>
					</trkpt>
					<trkpt lat="47.969550" lon="6.598540">
						<ele>719</ele>
						<time>2023-01-17T21:16:37Z</time>
					</trkpt>
					<trkpt lat="47.968420" lon="6.599430">
						<ele>716</ele>
						<time>2023-01-17T21:16:59Z</time>
					</trkpt>
					<trkpt lat="47.968120" lon="6.599850">
						<ele>714</ele>
						<time>2023-01-17T21:17:07Z</time>
					</trkpt>
					<trkpt lat="47.967670" lon="6.600590">
						<ele>708</ele>
						<time>2023-01-17T21:17:19Z</time>
					</trkpt>
					<trkpt lat="47.967460" lon="6.600860">
						<ele>707</ele>
						<time>2023-01-17T21:17:24Z</time>
					</trkpt>
					<trkpt lat="47.967090" lon="6.601150">
						<ele>710</ele>
						<time>2023-01-17T21:17:31Z</time>
					</trkpt>
					<trkpt lat="47.966360" lon="6.601420">
						<ele>714</ele>
						<time>2023-01-17T21:17:44Z</time>
					</trkpt>
					<trkpt lat="47.965900" lon="6.601740">
						<ele>717</ele>
						<time>2023-01-17T21:17:53Z</time>
					</trkpt>
					<trkpt lat="47.965790" lon="6.601790">
						<ele>717</ele>
						<time>2023-01-17T21:17:55Z</time>
					</trkpt>
					<trkpt lat="47.965560" lon="6.601990">
						<ele>720</ele>
						<time>2023-01-17T21:18:00Z</time>
					</trkpt>
					<trkpt lat="47.965300" lon="6.602500">
						<ele>728</ele>
						<time>2023-01-17T21:18:08Z</time>
					</trkpt>
					<trkpt lat="47.965080" lon="6.602710">
						<ele>731</ele>
						<time>2023-01-17T21:18:12Z</time>
					</trkpt>
					<trkpt lat="47.964950" lon="6.602780">
						<ele>733</ele>
						<time>2023-01-17T21:18:15Z</time>
					</trkpt>
					<trkpt lat="47.964820" lon="6.602890">
						<ele>735</ele>
						<time>2023-01-17T21:18:18Z</time>
					</trkpt>
					<trkpt lat="47.964680" lon="6.602970">
						<ele>738</ele>
						<time>2023-01-17T21:18:20Z</time>
					</trkpt>
					<trkpt lat="47.964490" lon="6.603010">
						<ele>741</ele>
						<time>2023-01-17T21:18:24Z</time>
					</trkpt>
					<trkpt lat="47.964310" lon="6.602950">
						<ele>743</ele>
						<time>2023-01-17T21:18:27Z</time>
					</trkpt>
					<trkpt lat="47.964140" lon="6.602870">
						<ele>744</ele>
						<time>2023-01-17T21:18:30Z</time>
					</trkpt>
					<trkpt lat="47.963860" lon="6.602670">
						<ele>745</ele>
						<time>2023-01-17T21:18:36Z</time>
					</trkpt>
					<trkpt lat="47.963610" lon="6.602400">
						<ele>746</ele>
						<time>2023-01-17T21:18:41Z</time>
					</trkpt>
					<trkpt lat="47.963470" lon="6.602140">
						<ele>747</ele>
						<time>2023-01-17T21:18:45Z</time>
					</trkpt>
					<trkpt lat="47.963380" lon="6.601830">
						<ele>747</ele>
						<time>2023-01-17T21:18:49Z</time>
					</trkpt>
					<trkpt lat="47.963250" lon="6.601540">
						<ele>746</ele>
						<time>2023-01-17T21:18:53Z</time>
					</trkpt>
					<trkpt lat="47.963050" lon="6.601180">
						<ele>744</ele>
						<time>2023-01-17T21:18:59Z</time>
					</trkpt>
					<trkpt lat="47.962990" lon="6.601010">
						<ele>744</ele>
						<time>2023-01-17T21:19:01Z</time>
					</trkpt>
					<trkpt lat="47.962860" lon="6.600750">
						<ele>743</ele>
						<time>2023-01-17T21:19:05Z</time>
					</trkpt>
					<trkpt lat="47.962720" lon="6.600390">
						<ele>740</ele>
						<time>2023-01-17T21:19:10Z</time>
					</trkpt>
					<trkpt lat="47.962670" lon="6.600200">
						<ele>739</ele>
						<time>2023-01-17T21:19:12Z</time>
					</trkpt>
					<trkpt lat="47.962560" lon="6.599900">
						<ele>738</ele>
						<time>2023-01-17T21:19:17Z</time>
					</trkpt>
					<trkpt lat="47.962400" lon="6.599620">
						<ele>736</ele>
						<time>2023-01-17T21:19:21Z</time>
					</trkpt>
					<trkpt lat="47.962170" lon="6.599450">
						<ele>734</ele>
						<time>2023-01-17T21:19:25Z</time>
					</trkpt>
					<trkpt lat="47.961960" lon="6.599390">
						<ele>732</ele>
						<time>2023-01-17T21:19:29Z</time>
					</trkpt>
					<trkpt lat="47.961740" lon="6.599500">
						<ele>731</ele>
						<time>2023-01-17T21:19:33Z</time>
					</trkpt>
					<trkpt lat="47.961490" lon="6.599930">
						<ele>729</ele>
						<time>2023-01-17T21:19:40Z</time>
					</trkpt>
					<trkpt lat="47.961340" lon="6.600280">
						<ele>728</ele>
						<time>2023-01-17T21:19:45Z</time>
					</trkpt>
					<trkpt lat="47.961180" lon="6.600880">
						<ele>728</ele>
						<time>2023-01-17T21:19:53Z</time>
					</trkpt>
					<trkpt lat="47.961130" lon="6.601210">
						<ele>727</ele>
						<time>2023-01-17T21:19:57Z</time>
					</trkpt>
					<trkpt lat="47.961040" lon="6.601630">
						<ele>725</ele>
						<time>2023-01-17T21:20:02Z</time>
					</trkpt>
					<trkpt lat="47.960900" lon="6.601990">
						<ele>723</ele>
						<time>2023-01-17T21:20:07Z</time>
					</trkpt>
					<trkpt lat="47.960800" lon="6.602400">
						<ele>721</ele>
						<time>2023-01-17T21:20:12Z</time>
					</trkpt>
					<trkpt lat="47.960530" lon="6.602990">
						<ele>716</ele>
						<time>2023-01-17T21:20:21Z</time>
					</trkpt>
					<trkpt lat="47.960210" lon="6.603540">
						<ele>708</ele>
						<time>2023-01-17T21:20:29Z</time>
					</trkpt>
					<trkpt lat="47.960120" lon="6.603650">
						<ele>706</ele>
						<time>2023-01-17T21:20:32Z</time>
					</trkpt>
					<trkpt lat="47.960030" lon="6.603720">
						<ele>705</ele>
						<time>2023-01-17T21:20:33Z</time>
					</trkpt>
					<trkpt lat="47.959860" lon="6.603780">
						<ele>703</ele>
						<time>2023-01-17T21:20:36Z</time>
					</trkpt>
					<trkpt lat="47.959620" lon="6.603790">
						<ele>703</ele>
						<time>2023-01-17T21:20:41Z</time>
					</trkpt>
					<trkpt lat="47.958310" lon="6.603770">
						<ele>701</ele>
						<time>2023-01-17T21:21:04Z</time>
					</trkpt>
					<trkpt lat="47.957780" lon="6.603670">
						<ele>701</ele>
						<time>2023-01-17T21:21:14Z</time>
					</trkpt>
					<trkpt lat="47.957120" lon="6.603660">
						<ele>698</ele>
						<time>2023-01-17T21:21:25Z</time>
					</trkpt>
					<trkpt lat="47.956430" lon="6.603490">
						<ele>695</ele>
						<time>2023-01-17T21:21:38Z</time>
					</trkpt>
					<trkpt lat="47.956290" lon="6.603420">
						<ele>696</ele>
						<time>2023-01-17T21:21:40Z</time>
					</trkpt>
					<trkpt lat="47.956180" lon="6.603320">
						<ele>696</ele>
						<time>2023-01-17T21:21:43Z</time>
					</trkpt>
					<trkpt lat="47.955590" lon="6.602430">
						<ele>699</ele>
						<time>2023-01-17T21:21:58Z</time>
					</trkpt>
					<trkpt lat="47.955310" lon="6.601930">
						<ele>705</ele>
						<time>2023-01-17T21:22:05Z</time>
					</trkpt>
					<trkpt lat="47.955130" lon="6.601660">
						<ele>709</ele>
						<time>2023-01-17T21:22:10Z</time>
					</trkpt>
					<trkpt lat="47.954850" lon="6.601390">
						<ele>712</ele>
						<time>2023-01-17T21:22:16Z</time>
					</trkpt>
					<trkpt lat="47.954750" lon="6.601270">
						<ele>712</ele>
						<time>2023-01-17T21:22:18Z</time>
					</trkpt>
					<trkpt lat="47.954220" lon="6.600500">
						<ele>717</ele>
						<time>2023-01-17T21:22:31Z</time>
					</trkpt>
					<trkpt lat="47.954110" lon="6.600420">
						<ele>719</ele>
						<time>2023-01-17T21:22:33Z</time>
					</trkpt>
					<trkpt lat="47.953840" lon="6.600150">
						<ele>722</ele>
						<time>2023-01-17T21:22:39Z</time>
					</trkpt>
					<trkpt lat="47.953430" lon="6.599870">
						<ele>727</ele>
						<time>2023-01-17T21:22:47Z</time>
					</trkpt>
					<trkpt lat="47.952850" lon="6.599290">
						<ele>730</ele>
						<time>2023-01-17T21:23:00Z</time>
					</trkpt>
					<trkpt lat="47.952570" lon="6.598920">
						<ele>731</ele>
						<time>2023-01-17T21:23:06Z</time>
					</trkpt>
					<trkpt lat="47.952500" lon="6.598760">
						<ele>732</ele>
						<time>2023-01-17T21:23:09Z</time>
					</trkpt>
					<trkpt lat="47.952420" lon="6.598160">
						<ele>731</ele>
						<time>2023-01-17T21:23:16Z</time>
					</trkpt>
					<trkpt lat="47.952360" lon="6.597820">
						<ele>730</ele>
						<time>2023-01-17T21:23:20Z</time>
					</trkpt>
					<trkpt lat="47.952300" lon="6.597700">
						<ele>730</ele>
						<time>2023-01-17T21:23:22Z</time>
					</trkpt>
					<trkpt lat="47.952220" lon="6.597470">
						<ele>730</ele>
						<time>2023-01-17T21:23:25Z</time>
					</trkpt>
					<trkpt lat="47.952120" lon="6.597290">
						<ele>731</ele>
						<time>2023-01-17T21:23:28Z</time>
					</trkpt>
					<trkpt lat="47.952000" lon="6.597170">
						<ele>731</ele>
						<time>2023-01-17T21:23:30Z</time>
					</trkpt>
					<trkpt lat="47.951310" lon="6.596370">
						<ele>732</ele>
						<time>2023-01-17T21:23:46Z</time>
					</trkpt>
					<trkpt lat="47.950930" lon="6.596020">
						<ele>732</ele>
						<time>2023-01-17T21:23:54Z</time>
					</trkpt>
					<trkpt lat="47.950790" lon="6.595840">
						<ele>732</ele>
						<time>2023-01-17T21:23:57Z</time>
					</trkpt>
					<trkpt lat="47.950660" lon="6.595640">
						<ele>730</ele>
						<time>2023-01-17T21:24:00Z</time>
					</trkpt>
					<trkpt lat="47.950070" lon="6.594510">
						<ele>722</ele>
						<time>2023-01-17T21:24:17Z</time>
					</trkpt>
					<trkpt lat="47.949860" lon="6.594190">
						<ele>720</ele>
						<time>2023-01-17T21:24:23Z</time>
					</trkpt>
					<trkpt lat="47.949750" lon="6.594100">
						<ele>719</ele>
						<time>2023-01-17T21:24:25Z</time>
					</trkpt>
					<trkpt lat="47.949550" lon="6.594060">
						<ele>719</ele>
						<time>2023-01-17T21:24:29Z</time>
					</trkpt>
					<trkpt lat="47.949320" lon="6.594070">
						<ele>718</ele>
						<time>2023-01-17T21:24:33Z</time>
					</trkpt>
					<trkpt lat="47.948660" lon="6.594180">
						<ele>727</ele>
						<time>2023-01-17T21:24:45Z</time>
					</trkpt>
					<trkpt lat="47.948580" lon="6.594140">
						<ele>728</ele>
						<time>2023-01-17T21:24:46Z</time>
					</trkpt>
					<trkpt lat="47.948400" lon="6.593960">
						<ele>731</ele>
						<time>2023-01-17T21:24:50Z</time>
					</trkpt>
					<trkpt lat="47.948350" lon="6.593840">
						<ele>732</ele>
						<time>2023-01-17T21:24:52Z</time>
					</trkpt>
					<trkpt lat="47.948330" lon="6.593690">
						<ele>731</ele>
						<time>2023-01-17T21:24:53Z</time>
					</trkpt>
					<trkpt lat="47.948230" lon="6.592960">
						<ele>732</ele>
						<time>2023-01-17T21:25:02Z</time>
					</trkpt>
					<trkpt lat="47.948090" lon="6.593100">
						<ele>737</ele>
						<time>2023-01-17T21:25:05Z</time>
					</trkpt>
					<trkpt lat="47.948060" lon="6.593270">
						<ele>739</ele>
						<time>2023-01-17T21:25:07Z</time>
					</trkpt>
					<trkpt lat="47.948150" lon="6.593970">
						<ele>738</ele>
						<time>2023-01-17T21:25:16Z</time>
					</trkpt>
					<trkpt lat="47.948160" lon="6.594840">
						<ele>739</ele>
						<time>2023-01-17T21:25:26Z</time>
					</trkpt>
					<trkpt lat="47.948000" lon="6.596000">
						<ele>739</ele>
						<time>2023-01-17T21:25:40Z</time>
					</trkpt>
					<trkpt lat="47.947780" lon="6.596760">
						<ele>743</ele>
						<time>2023-01-17T21:25:50Z</time>
					</trkpt>
					<trkpt lat="47.947340" lon="6.597460">
						<ele>751</ele>
						<time>2023-01-17T21:26:02Z</time>
					</trkpt>
					<trkpt lat="47.946820" lon="6.598180">
						<ele>755</ele>
						<time>2023-01-17T21:26:14Z</time>
					</trkpt>
					<trkpt lat="47.946310" lon="6.598750">
						<ele>756</ele>
						<time>2023-01-17T21:26:26Z</time>
					</trkpt>
					<trkpt lat="47.945090" lon="6.600350">
						<ele>758</ele>
						<time>2023-01-17T21:26:54Z</time>
					</trkpt>
					<trkpt lat="47.944670" lon="6.600880">
						<ele>758</ele>
						<time>2023-01-17T21:27:04Z</time>
					</trkpt>
					<trkpt lat="47.944500" lon="6.601140">
						<ele>760</ele>
						<time>2023-01-17T21:27:09Z</time>
					</trkpt>
					<trkpt lat="47.944430" lon="6.601380">
						<ele>762</ele>
						<time>2023-01-17T21:27:12Z</time>
					</trkpt>
					<trkpt lat="47.944380" lon="6.601740">
						<ele>765</ele>
						<time>2023-01-17T21:27:16Z</time>
					</trkpt>
					<trkpt lat="47.944400" lon="6.602250">
						<ele>765</ele>
						<time>2023-01-17T21:27:22Z</time>
					</trkpt>
					<trkpt lat="47.944380" lon="6.602830">
						<ele>766</ele>
						<time>2023-01-17T21:27:29Z</time>
					</trkpt>
					<trkpt lat="47.944160" lon="6.603500">
						<ele>772</ele>
						<time>2023-01-17T21:27:38Z</time>
					</trkpt>
					<trkpt lat="47.943940" lon="6.604980">
						<ele>777</ele>
						<time>2023-01-17T21:27:56Z</time>
					</trkpt>
					<trkpt lat="47.943840" lon="6.605490">
						<ele>778</ele>
						<time>2023-01-17T21:28:02Z</time>
					</trkpt>
					<trkpt lat="47.943790" lon="6.605630">
						<ele>779</ele>
						<time>2023-01-17T21:28:04Z</time>
					</trkpt>
					<trkpt lat="47.943780" lon="6.605910">
						<ele>779</ele>
						<time>2023-01-17T21:28:08Z</time>
					</trkpt>
					<trkpt lat="47.943800" lon="6.606550">
						<ele>776</ele>
						<time>2023-01-17T21:28:15Z</time>
					</trkpt>
					<trkpt lat="47.943780" lon="6.606640">
						<ele>777</ele>
						<time>2023-01-17T21:28:16Z</time>
					</trkpt>
					<trkpt lat="47.943740" lon="6.606720">
						<ele>777</ele>
						<time>2023-01-17T21:28:18Z</time>
					</trkpt>
					<trkpt lat="47.943690" lon="6.606780">
						<ele>778</ele>
						<time>2023-01-17T21:28:19Z</time>
					</trkpt>
					<trkpt lat="47.943530" lon="6.606810">
						<ele>781</ele>
						<time>2023-01-17T21:28:22Z</time>
					</trkpt>
					<trkpt lat="47.943440" lon="6.606770">
						<ele>783</ele>
						<time>2023-01-17T21:28:23Z</time>
					</trkpt>
					<trkpt lat="47.943370" lon="6.606640">
						<ele>785</ele>
						<time>2023-01-17T21:28:25Z</time>
					</trkpt>
					<trkpt lat="47.943360" lon="6.606500">
						<ele>786</ele>
						<time>2023-01-17T21:28:27Z</time>
					</trkpt>
					<trkpt lat="47.943460" lon="6.605920">
						<ele>789</ele>
						<time>2023-01-17T21:28:34Z</time>
					</trkpt>
					<trkpt lat="47.943460" lon="6.605500">
						<ele>790</ele>
						<time>2023-01-17T21:28:39Z</time>
					</trkpt>
					<trkpt lat="47.943430" lon="6.605260">
						<ele>791</ele>
						<time>2023-01-17T21:28:42Z</time>
					</trkpt>
					<trkpt lat="47.943380" lon="6.605100">
						<ele>792</ele>
						<time>2023-01-17T21:28:44Z</time>
					</trkpt>
					<trkpt lat="47.943310" lon="6.604960">
						<ele>793</ele>
						<time>2023-01-17T21:28:46Z</time>
					</trkpt>
					<trkpt lat="47.943200" lon="6.604800">
						<ele>794</ele>
						<time>2023-01-17T21:28:49Z</time>
					</trkpt>
					<trkpt lat="47.943120" lon="6.604760">
						<ele>795</ele>
						<time>2023-01-17T21:28:50Z</time>
					</trkpt>
					<trkpt lat="47.943030" lon="6.604780">
						<ele>796</ele>
						<time>2023-01-17T21:28:52Z</time>
					</trkpt>
					<trkpt lat="47.942920" lon="6.604910">
						<ele>798</ele>
						<time>2023-01-17T21:28:55Z</time>
					</trkpt>
					<trkpt lat="47.942650" lon="6.605530">
						<ele>803</ele>
						<time>2023-01-17T21:29:03Z</time>
					</trkpt>
					<trkpt lat="47.942390" lon="6.605960">
						<ele>806</ele>
						<time>2023-01-17T21:29:10Z</time>
					</trkpt>
					<trkpt lat="47.942180" lon="6.606550">
						<ele>805</ele>
						<time>2023-01-17T21:29:18Z</time>
					</trkpt>
					<trkpt lat="47.942050" lon="6.606850">
						<ele>806</ele>
						<time>2023-01-17T21:29:22Z</time>
					</trkpt>
					<trkpt lat="47.941190" lon="6.608160">
						<ele>813</ele>
						<time>2023-01-17T21:29:44Z</time>
					</trkpt>
					<trkpt lat="47.940890" lon="6.608430">
						<ele>813</ele>
						<time>2023-01-17T21:29:51Z</time>
					</trkpt>
					<trkpt lat="47.940140" lon="6.608890">
						<ele>809</ele>
						<time>2023-01-17T21:30:05Z</time>
					</trkpt>
					<trkpt lat="47.939440" lon="6.609390">
						<ele>806</ele>
						<time>2023-01-17T21:30:19Z</time>
					</trkpt>
					<trkpt lat="47.939060" lon="6.609710">
						<ele>804</ele>
						<time>2023-01-17T21:30:27Z</time>
					</trkpt>
					<trkpt lat="47.938860" lon="6.609760">
						<ele>804</ele>
						<time>2023-01-17T21:30:30Z</time>
					</trkpt>
					<trkpt lat="47.938600" lon="6.609720">
						<ele>803</ele>
						<time>2023-01-17T21:30:35Z</time>
					</trkpt>
					<trkpt lat="47.938310" lon="6.609570">
						<ele>803</ele>
						<time>2023-01-17T21:30:40Z</time>
					</trkpt>
					<trkpt lat="47.936520" lon="6.608350">
						<ele>798</ele>
						<time>2023-01-17T21:31:15Z</time>
					</trkpt>
					<trkpt lat="47.936160" lon="6.608050">
						<ele>794</ele>
						<time>2023-01-17T21:31:23Z</time>
					</trkpt>
					<trkpt lat="47.935950" lon="6.607900">
						<ele>792</ele>
						<time>2023-01-17T21:31:27Z</time>
					</trkpt>
					<trkpt lat="47.935680" lon="6.607740">
						<ele>792</ele>
						<time>2023-01-17T21:31:32Z</time>
					</trkpt>
					<trkpt lat="47.935300" lon="6.607580">
						<ele>794</ele>
						<time>2023-01-17T21:31:39Z</time>
					</trkpt>
					<trkpt lat="47.935130" lon="6.607580">
						<ele>795</ele>
						<time>2023-01-17T21:31:42Z</time>
					</trkpt>
					<trkpt lat="47.934910" lon="6.607640">
						<ele>797</ele>
						<time>2023-01-17T21:31:46Z</time>
					</trkpt>
					<trkpt lat="47.934600" lon="6.607740">
						<ele>799</ele>
						<time>2023-01-17T21:31:52Z</time>
					</trkpt>
					<trkpt lat="47.934340" lon="6.607900">
						<ele>801</ele>
						<time>2023-01-17T21:31:57Z</time>
					</trkpt>
					<trkpt lat="47.934250" lon="6.608040">
						<ele>801</ele>
						<time>2023-01-17T21:31:59Z</time>
					</trkpt>
					<trkpt lat="47.934120" lon="6.608450">
						<ele>802</ele>
						<time>2023-01-17T21:32:04Z</time>
					</trkpt>
					<trkpt lat="47.934040" lon="6.608580">
						<ele>802</ele>
						<time>2023-01-17T21:32:06Z</time>
					</trkpt>
					<trkpt lat="47.933890" lon="6.608680">
						<ele>802</ele>
						<time>2023-01-17T21:32:09Z</time>
					</trkpt>
					<trkpt lat="47.933620" lon="6.608740">
						<ele>801</ele>
						<time>2023-01-17T21:32:14Z</time>
					</trkpt>
					<trkpt lat="47.933300" lon="6.608760">
						<ele>801</ele>
						<time>2023-01-17T21:32:20Z</time>
					</trkpt>
					<trkpt lat="47.933120" lon="6.608800">
						<ele>800</ele>
						<time>2023-01-17T21:32:23Z</time>
					</trkpt>
					<trkpt lat="47.932990" lon="6.608950">
						<ele>799</ele>
						<time>2023-01-17T21:32:26Z</time>
					</trkpt>
					<trkpt lat="47.932900" lon="6.609160">
						<ele>799</ele>
						<time>2023-01-17T21:32:29Z</time>
					</trkpt>
					<trkpt lat="47.932860" lon="6.609340">
						<ele>800</ele>
						<time>2023-01-17T21:32:31Z</time>
					</trkpt>
					<trkpt lat="47.932840" lon="6.609580">
						<ele>801</ele>
						<time>2023-01-17T21:32:34Z</time>
					</trkpt>
					<trkpt lat="47.932930" lon="6.612410">
						<ele>801</ele>
						<time>2023-01-17T21:33:08Z</time>
					</trkpt>
					<trkpt lat="47.932920" lon="6.612980">
						<ele>800</ele>
						<time>2023-01-17T21:33:15Z</time>
					</trkpt>
					<trkpt lat="47.932830" lon="6.613490">
						<ele>799</ele>
						<time>2023-01-17T21:33:21Z</time>
					</trkpt>
					<trkpt lat="47.932450" lon="6.614840">
						<ele>800</ele>
						<time>2023-01-17T21:33:39Z</time>
					</trkpt>
					<trkpt lat="47.932270" lon="6.615300">
						<ele>798</ele>
						<time>2023-01-17T21:33:45Z</time>
					</trkpt>
					<trkpt lat="47.931540" lon="6.616610">
						<ele>797</ele>
						<time>2023-01-17T21:34:05Z</time>
					</trkpt>
					<trkpt lat="47.931270" lon="6.616950">
						<ele>799</ele>
						<time>2023-01-17T21:34:11Z</time>
					</trkpt>
					<trkpt lat="47.930930" lon="6.617180">
						<ele>801</ele>
						<time>2023-01-17T21:34:18Z</time>
					</trkpt>
					<trkpt lat="47.930320" lon="6.617420">
						<ele>805</ele>
						<time>2023-01-17T21:34:29Z</time>
					</trkpt>
					<trkpt lat="47.929970" lon="6.617690">
						<ele>806</ele>
						<time>2023-01-17T21:34:36Z</time>
					</trkpt>
					<trkpt lat="47.929780" lon="6.618060">
						<ele>808</ele>
						<time>2023-01-17T21:34:42Z</time>
					</trkpt>
					<trkpt lat="47.929640" lon="6.618440">
						<ele>810</ele>
						<time>2023-01-17T21:34:47Z</time>
					</trkpt>
					<trkpt lat="47.929540" lon="6.618920">
						<ele>809</ele>
						<time>2023-01-17T21:34:53Z</time>
					</trkpt>
					<trkpt lat="47.929390" lon="6.619240">
						<ele>810</ele>
						<time>2023-01-17T21:34:58Z</time>
					</trkpt>
					<trkpt lat="47.929010" lon="6.619910">
						<ele>813</ele>
						<time>2023-01-17T21:35:08Z</time>
					</trkpt>
					<trkpt lat="47.928540" lon="6.620670">
						<ele>813</ele>
						<time>2023-01-17T21:35:21Z</time>
					</trkpt>
					<trkpt lat="47.926810" lon="6.622910">
						<ele>814</ele>
						<time>2023-01-17T21:36:01Z</time>
					</trkpt>
					<trkpt lat="47.926400" lon="6.623630">
						<ele>814</ele>
						<time>2023-01-17T21:36:13Z</time>
					</trkpt>
					<trkpt lat="47.923180" lon="6.629530">
						<ele>808</ele>
						<time>2023-01-17T21:37:43Z</time>
					</trkpt>
					<trkpt lat="47.922700" lon="6.630240">
						<ele>805</ele>
						<time>2023-01-17T21:37:55Z</time>
					</trkpt>
					<trkpt lat="47.922480" lon="6.630480">
						<ele>804</ele>
						<time>2023-01-17T21:38:00Z</time>
					</trkpt>
					<trkpt lat="47.922240" lon="6.630660">
						<ele>802</ele>
						<time>2023-01-17T21:38:05Z</time>
					</trkpt>
					<trkpt lat="47.921820" lon="6.630780">
						<ele>800</ele>
						<time>2023-01-17T21:38:13Z</time>
					</trkpt>
					<trkpt lat="47.919960" lon="6.631330">
						<ele>793</ele>
						<time>2023-01-17T21:38:46Z</time>
					</trkpt>
					<trkpt lat="47.919800" lon="6.631430">
						<ele>791</ele>
						<time>2023-01-17T21:38:49Z</time>
					</trkpt>
					<trkpt lat="47.919610" lon="6.631600">
						<ele>789</ele>
						<time>2023-01-17T21:38:53Z</time>
					</trkpt>
					<trkpt lat="47.918300" lon="6.632880">
						<ele>779</ele>
						<time>2023-01-17T21:39:21Z</time>
					</trkpt>
					<trkpt lat="47.918000" lon="6.633210">
						<ele>777</ele>
						<time>2023-01-17T21:39:28Z</time>
					</trkpt>
					<trkpt lat="47.917890" lon="6.633420">
						<ele>776</ele>
						<time>2023-01-17T21:39:31Z</time>
					</trkpt>
					<trkpt lat="47.917820" lon="6.633680">
						<ele>775</ele>
						<time>2023-01-17T21:39:34Z</time>
					</trkpt>
					<trkpt lat="47.917740" lon="6.634070">
						<ele>774</ele>
						<time>2023-01-17T21:39:39Z</time>
					</trkpt>
					<trkpt lat="47.917710" lon="6.634150">
						<ele>774</ele>
						<time>2023-01-17T21:39:40Z</time>
					</trkpt>
					<trkpt lat="47.917650" lon="6.634170">
						<ele>773</ele>
						<time>2023-01-17T21:39:41Z</time>
					</trkpt>
					<trkpt lat="47.917610" lon="6.634120">
						<ele>772</ele>
						<time>2023-01-17T21:39:42Z</time>
					</trkpt>
					<trkpt lat="47.917590" lon="6.634070">
						<ele>772</ele>
						<time>2023-01-17T21:39:43Z</time>
					</trkpt>
					<trkpt lat="47.917570" lon="6.633600">
						<ele>774</ele>
						<time>2023-01-17T21:39:49Z</time>
					</trkpt>
					<trkpt lat="47.917500" lon="6.632900">
						<ele>772</ele>
						<time>2023-01-17T21:39:57Z</time>
					</trkpt>
					<trkpt lat="47.917530" lon="6.632630">
						<ele>772</ele>
						<time>2023-01-17T21:40:00Z</time>
					</trkpt>
					<trkpt lat="47.917630" lon="6.632270">
						<ele>770</ele>
						<time>2023-01-17T21:40:05Z</time>
					</trkpt>
					<trkpt lat="47.918000" lon="6.631280">
						<ele>763</ele>
						<time>2023-01-17T21:40:18Z</time>
					</trkpt>
					<trkpt lat="47.918150" lon="6.630970">
						<ele>760</ele>
						<time>2023-01-17T21:40:23Z</time>
					</trkpt>
					<trkpt lat="47.918520" lon="6.630290">
						<ele>756</ele>
						<time>2023-01-17T21:40:33Z</time>
					</trkpt>
					<trkpt lat="47.918550" lon="6.630160">
						<ele>755</ele>
						<time>2023-01-17T21:40:35Z</time>
					</trkpt>
					<trkpt lat="47.918540" lon="6.630040">
						<ele>753</ele>
						<time>2023-01-17T21:40:37Z</time>
					</trkpt>
					<trkpt lat="47.918510" lon="6.629950">
						<ele>751</ele>
						<time>2023-01-17T21:40:38Z</time>
					</trkpt>
					<trkpt lat="47.918440" lon="6.629890">
						<ele>749</ele>
						<time>2023-01-17T21:40:39Z</time>
					</trkpt>
					<trkpt lat="47.918320" lon="6.629860">
						<ele>746</ele>
						<time>2023-01-17T21:40:41Z</time>
					</trkpt>
					<trkpt lat="47.917650" lon="6.630010">
						<ele>742</ele>
						<time>2023-01-17T21:40:53Z</time>
					</trkpt>
					<trkpt lat="47.917500" lon="6.630080">
						<ele>742</ele>
						<time>2023-01-17T21:40:56Z</time>
					</trkpt>
					<trkpt lat="47.917290" lon="6.630230">
						<ele>742</ele>
						<time>2023-01-17T21:41:00Z</time>
					</trkpt>
					<trkpt lat="47.916730" lon="6.630780">
						<ele>741</ele>
						<time>2023-01-17T21:41:12Z</time>
					</trkpt>
					<trkpt lat="47.916250" lon="6.631430">
						<ele>736</ele>
						<time>2023-01-17T21:41:24Z</time>
					</trkpt>
					<trkpt lat="47.915510" lon="6.632540">
						<ele>730</ele>
						<time>2023-01-17T21:41:42Z</time>
					</trkpt>
					<trkpt lat="47.914870" lon="6.633670">
						<ele>720</ele>
						<time>2023-01-17T21:42:00Z</time>
					</trkpt>
					<trkpt lat="47.914460" lon="6.634300">
						<ele>715</ele>
						<time>2023-01-17T21:42:11Z</time>
					</trkpt>
					<trkpt lat="47.914390" lon="6.634490">
						<ele>716</ele>
						<time>2023-01-17T21:42:13Z</time>
					</trkpt>
					<trkpt lat="47.914320" lon="6.634840">
						<ele>718</ele>
						<time>2023-01-17T21:42:18Z</time>
					</trkpt>
					<trkpt lat="47.914230" lon="6.635090">
						<ele>719</ele>
						<time>2023-01-17T21:42:21Z</time>
					</trkpt>
					<trkpt lat="47.913970" lon="6.635540">
						<ele>715</ele>
						<time>2023-01-17T21:42:28Z</time>
					</trkpt>
					<trkpt lat="47.913810" lon="6.635790">
						<ele>713</ele>
						<time>2023-01-17T21:42:32Z</time>
					</trkpt>
					<trkpt lat="47.913720" lon="6.635880">
						<ele>712</ele>
						<time>2023-01-17T21:42:34Z</time>
					</trkpt>
					<trkpt lat="47.913610" lon="6.635950">
						<ele>711</ele>
						<time>2023-01-17T21:42:36Z</time>
					</trkpt>
					<trkpt lat="47.913530" lon="6.635960">
						<ele>710</ele>
						<time>2023-01-17T21:42:38Z</time>
					</trkpt>
					<trkpt lat="47.913410" lon="6.635920">
						<ele>708</ele>
						<time>2023-01-17T21:42:40Z</time>
					</trkpt>
					<trkpt lat="47.912880" lon="6.635430">
						<ele>710</ele>
						<time>2023-01-17T21:42:51Z</time>
					</trkpt>
					<trkpt lat="47.912610" lon="6.635200">
						<ele>712</ele>
						<time>2023-01-17T21:42:56Z</time>
					</trkpt>
					<trkpt lat="47.912000" lon="6.634880">
						<ele>712</ele>
						<time>2023-01-17T21:43:08Z</time>
					</trkpt>
					<trkpt lat="47.911100" lon="6.634050">
						<ele>705</ele>
						<time>2023-01-17T21:43:27Z</time>
					</trkpt>
					<trkpt lat="47.910850" lon="6.633860">
						<ele>702</ele>
						<time>2023-01-17T21:43:32Z</time>
					</trkpt>
					<trkpt lat="47.910550" lon="6.633700">
						<ele>701</ele>
						<time>2023-01-17T21:43:37Z</time>
					</trkpt>
					<trkpt lat="47.909640" lon="6.633370">
						<ele>699</ele>
						<time>2023-01-17T21:43:54Z</time>
					</trkpt>
					<trkpt lat="47.909500" lon="6.633290">
						<ele>700</ele>
						<time>2023-01-17T21:43:57Z</time>
					</trkpt>
					<trkpt lat="47.909410" lon="6.633200">
						<ele>700</ele>
						<time>2023-01-17T21:43:59Z</time>
					</trkpt>
					<trkpt lat="47.909350" lon="6.633080">
						<ele>700</ele>
						<time>2023-01-17T21:44:00Z</time>
					</trkpt>
					<trkpt lat="47.909060" lon="6.632160">
						<ele>702</ele>
						<time>2023-01-17T21:44:13Z</time>
					</trkpt>
					<trkpt lat="47.909000" lon="6.632020">
						<ele>703</ele>
						<time>2023-01-17T21:44:15Z</time>
					</trkpt>
					<trkpt lat="47.908880" lon="6.631830">
						<ele>705</ele>
						<time>2023-01-17T21:44:18Z</time>
					</trkpt>
					<trkpt lat="47.908750" lon="6.631650">
						<ele>706</ele>
						<time>2023-01-17T21:44:21Z</time>
					</trkpt>
					<trkpt lat="47.908240" lon="6.631140">
						<ele>703</ele>
						<time>2023-01-17T21:44:32Z</time>
					</trkpt>
					<trkpt lat="47.907720" lon="6.630690">
						<ele>698</ele>
						<time>2023-01-17T21:44:42Z</time>
					</trkpt>
					<trkpt lat="47.907490" lon="6.630550">
						<ele>697</ele>
						<time>2023-01-17T21:44:47Z</time>
					</trkpt>
					<trkpt lat="47.907160" lon="6.630470">
						<ele>692</ele>
						<time>2023-01-17T21:44:53Z</time>
					</trkpt>
					<trkpt lat="47.906920" lon="6.630460">
						<ele>689</ele>
						<time>2023-01-17T21:44:57Z</time>
					</trkpt>
					<trkpt lat="47.906760" lon="6.630510">
						<ele>688</ele>
						<time>2023-01-17T21:45:00Z</time>
					</trkpt>
					<trkpt lat="47.906680" lon="6.630590">
						<ele>688</ele>
						<time>2023-01-17T21:45:02Z</time>
					</trkpt>
					<trkpt lat="47.906600" lon="6.630740">
						<ele>689</ele>
						<time>2023-01-17T21:45:04Z</time>
					</trkpt>
					<trkpt lat="47.906560" lon="6.630940">
						<ele>689</ele>
						<time>2023-01-17T21:45:06Z</time>
					</trkpt>
					<trkpt lat="47.906540" lon="6.631330">
						<ele>691</ele>
						<time>2023-01-17T21:45:11Z</time>
					</trkpt>
					<trkpt lat="47.906490" lon="6.631810">
						<ele>691</ele>
						<time>2023-01-17T21:45:17Z</time>
					</trkpt>
					<trkpt lat="47.906440" lon="6.631970">
						<ele>690</ele>
						<time>2023-01-17T21:45:19Z</time>
					</trkpt>
					<trkpt lat="47.906340" lon="6.632150">
						<ele>689</ele>
						<time>2023-01-17T21:45:22Z</time>
					</trkpt>
					<trkpt lat="47.906180" lon="6.632310">
						<ele>687</ele>
						<time>2023-01-17T21:45:25Z</time>
					</trkpt>
					<trkpt lat="47.905130" lon="6.633010">
						<ele>685</ele>
						<time>2023-01-17T21:45:46Z</time>
					</trkpt>
					<trkpt lat="47.904990" lon="6.633150">
						<ele>684</ele>
						<time>2023-01-17T21:45:49Z</time>
					</trkpt>
					<trkpt lat="47.904880" lon="6.633320">
						<ele>683</ele>
						<time>2023-01-17T21:45:52Z</time>
					</trkpt>
					<trkpt lat="47.904780" lon="6.633540">
						<ele>681</ele>
						<time>2023-01-17T21:45:55Z</time>
					</trkpt>
					<trkpt lat="47.904570" lon="6.634130">
						<ele>676</ele>
						<time>2023-01-17T21:46:03Z</time>
					</trkpt>
					<trkpt lat="47.904510" lon="6.634330">
						<ele>675</ele>
						<time>2023-01-17T21:46:05Z</time>
					</trkpt>
					<trkpt lat="47.904480" lon="6.634570">
						<ele>674</ele>
						<time>2023-01-17T21:46:08Z</time>
					</trkpt>
					<trkpt lat="47.904470" lon="6.635910">
						<ele>674</ele>
						<time>2023-01-17T21:46:24Z</time>
					</trkpt>
					<trkpt lat="47.904450" lon="6.636090">
						<ele>674</ele>
						<time>2023-01-17T21:46:26Z</time>
					</trkpt>
					<trkpt lat="47.904410" lon="6.636240">
						<ele>674</ele>
						<time>2023-01-17T21:46:28Z</time>
					</trkpt>
					<trkpt lat="47.904360" lon="6.636340">
						<ele>673</ele>
						<time>2023-01-17T21:46:30Z</time>
					</trkpt>
					<trkpt lat="47.904280" lon="6.636410">
						<ele>672</ele>
						<time>2023-01-17T21:46:31Z</time>
					</trkpt>
					<trkpt lat="47.904020" lon="6.636510">
						<ele>670</ele>
						<time>2023-01-17T21:46:36Z</time>
					</trkpt>
					<trkpt lat="47.903920" lon="6.636570">
						<ele>669</ele>
						<time>2023-01-17T21:46:38Z</time>
					</trkpt>
					<trkpt lat="47.903820" lon="6.636660">
						<ele>669</ele>
						<time>2023-01-17T21:46:40Z</time>
					</trkpt>
					<trkpt lat="47.903390" lon="6.637290">
						<ele>673</ele>
						<time>2023-01-17T21:46:51Z</time>
					</trkpt>
					<trkpt lat="47.902970" lon="6.637700">
						<ele>669</ele>
						<time>2023-01-17T21:47:00Z</time>
					</trkpt>
					<trkpt lat="47.902560" lon="6.638210">
						<ele>667</ele>
						<time>2023-01-17T21:47:09Z</time>
					</trkpt>
					<trkpt lat="47.902370" lon="6.638350">
						<ele>665</ele>
						<time>2023-01-17T21:47:13Z</time>
					</trkpt>
					<trkpt lat="47.902090" lon="6.638510">
						<ele>662</ele>
						<time>2023-01-17T21:47:18Z</time>
					</trkpt>
					<trkpt lat="47.901990" lon="6.638630">
						<ele>661</ele>
						<time>2023-01-17T21:47:21Z</time>
					</trkpt>
					<trkpt lat="47.901820" lon="6.639110">
						<ele>658</ele>
						<time>2023-01-17T21:47:27Z</time>
					</trkpt>
					<trkpt lat="47.901730" lon="6.639510">
						<ele>655</ele>
						<time>2023-01-17T21:47:32Z</time>
					</trkpt>
					<trkpt lat="47.901690" lon="6.639800">
						<ele>653</ele>
						<time>2023-01-17T21:47:36Z</time>
					</trkpt>
					<trkpt lat="47.901710" lon="6.640040">
						<ele>652</ele>
						<time>2023-01-17T21:47:39Z</time>
					</trkpt>
					<trkpt lat="47.901930" lon="6.640680">
						<ele>652</ele>
						<time>2023-01-17T21:47:47Z</time>
					</trkpt>
					<trkpt lat="47.902180" lon="6.641360">
						<ele>648</ele>
						<time>2023-01-17T21:47:57Z</time>
					</trkpt>
					<trkpt lat="47.902560" lon="6.642530">
						<ele>640</ele>
						<time>2023-01-17T21:48:12Z</time>
					</trkpt>
					<trkpt lat="47.902770" lon="6.643510">
						<ele>631</ele>
						<time>2023-01-17T21:48:24Z</time>
					</trkpt>
					<trkpt lat="47.902850" lon="6.643790">
						<ele>629</ele>
						<time>2023-01-17T21:48:28Z</time>
					</trkpt>
					<trkpt lat="47.903000" lon="6.644040">
						<ele>629</ele>
						<time>2023-01-17T21:48:32Z</time>
					</trkpt>
					<trkpt lat="47.903200" lon="6.644240">
						<ele>632</ele>
						<time>2023-01-17T21:48:36Z</time>
					</trkpt>
					<trkpt lat="47.903720" lon="6.644570">
						<ele>635</ele>
						<time>2023-01-17T21:48:46Z</time>
					</trkpt>
					<trkpt lat="47.903780" lon="6.644680">
						<ele>633</ele>
						<time>2023-01-17T21:48:48Z</time>
					</trkpt>
					<trkpt lat="47.903770" lon="6.644760">
						<ele>632</ele>
						<time>2023-01-17T21:48:49Z</time>
					</trkpt>
					<trkpt lat="47.903250" lon="6.644510">
						<ele>632</ele>
						<time>2023-01-17T21:48:59Z</time>
					</trkpt>
					<trkpt lat="47.903240" lon="6.644550">
						<ele>631</ele>
						<time>2023-01-17T21:48:59Z</time>
					</trkpt>
					<trkpt lat="47.903210" lon="6.644590">
						<ele>631</ele>
						<time>2023-01-17T21:49:00Z</time>
					</trkpt>
					<trkpt lat="47.902970" lon="6.644790">
						<ele>627</ele>
						<time>2023-01-17T21:49:05Z</time>
					</trkpt>
					<trkpt lat="47.902790" lon="6.644960">
						<ele>625</ele>
						<time>2023-01-17T21:49:09Z</time>
					</trkpt>
					<trkpt lat="47.902740" lon="6.645030">
						<ele>625</ele>
						<time>2023-01-17T21:49:10Z</time>
					</trkpt>
					<trkpt lat="47.902710" lon="6.645150">
						<ele>626</ele>
						<time>2023-01-17T21:49:11Z</time>
					</trkpt>
					<trkpt lat="47.902690" lon="6.645630">
						<ele>630</ele>
						<time>2023-01-17T21:49:17Z</time>
					</trkpt>
					<trkpt lat="47.902660" lon="6.645700">
						<ele>631</ele>
						<time>2023-01-17T21:49:18Z</time>
					</trkpt>
					<trkpt lat="47.902610" lon="6.645790">
						<ele>631</ele>
						<time>2023-01-17T21:49:19Z</time>
					</trkpt>
					<trkpt lat="47.902460" lon="6.645870">
						<ele>631</ele>
						<time>2023-01-17T21:49:22Z</time>
					</trkpt>
					<trkpt lat="47.901890" lon="6.645980">
						<ele>635</ele>
						<time>2023-01-17T21:49:32Z</time>
					</trkpt>
					<trkpt lat="47.901760" lon="6.645970">
						<ele>636</ele>
						<time>2023-01-17T21:49:35Z</time>
					</trkpt>
					<trkpt lat="47.901430" lon="6.645870">
						<ele>638</ele>
						<time>2023-01-17T21:49:41Z</time>
					</trkpt>
					<trkpt lat="47.900980" lon="6.645650">
						<ele>638</ele>
						<time>2023-01-17T21:49:49Z</time>
					</trkpt>
					<trkpt lat="47.900660" lon="6.645480">
						<ele>638</ele>
						<time>2023-01-17T21:49:55Z</time>
					</trkpt>
					<trkpt lat="47.900420" lon="6.645450">
						<ele>640</ele>
						<time>2023-01-17T21:50:00Z</time>
					</trkpt>
					<trkpt lat="47.900300" lon="6.645480">
						<ele>642</ele>
						<time>2023-01-17T21:50:02Z</time>
					</trkpt>
					<trkpt lat="47.900110" lon="6.645580">
						<ele>646</ele>
						<time>2023-01-17T21:50:05Z</time>
					</trkpt>
					<trkpt lat="47.899400" lon="6.646020">
						<ele>649</ele>
						<time>2023-01-17T21:50:19Z</time>
					</trkpt>
					<trkpt lat="47.899210" lon="6.646210">
						<ele>650</ele>
						<time>2023-01-17T21:50:23Z</time>
					</trkpt>
					<trkpt lat="47.899160" lon="6.646350">
						<ele>651</ele>
						<time>2023-01-17T21:50:25Z</time>
					</trkpt>
					<trkpt lat="47.898920" lon="6.647240">
						<ele>654</ele>
						<time>2023-01-17T21:50:36Z</time>
					</trkpt>
					<trkpt lat="47.898890" lon="6.647440">
						<ele>654</ele>
						<time>2023-01-17T21:50:39Z</time>
					</trkpt>
					<trkpt lat="47.898860" lon="6.647780">
						<ele>655</ele>
						<time>2023-01-17T21:50:43Z</time>
					</trkpt>
					<trkpt lat="47.898870" lon="6.648460">
						<ele>657</ele>
						<time>2023-01-17T21:50:51Z</time>
					</trkpt>
					<trkpt lat="47.898890" lon="6.648720">
						<ele>658</ele>
						<time>2023-01-17T21:50:54Z</time>
					</trkpt>
					<trkpt lat="47.898930" lon="6.648970">
						<ele>659</ele>
						<time>2023-01-17T21:50:57Z</time>
					</trkpt>
					<trkpt lat="47.899480" lon="6.651100">
						<ele>668</ele>
						<time>2023-01-17T21:51:24Z</time>
					</trkpt>
					<trkpt lat="47.899510" lon="6.651300">
						<ele>670</ele>
						<time>2023-01-17T21:51:27Z</time>
					</trkpt>
					<trkpt lat="47.899510" lon="6.651440">
						<ele>671</ele>
						<time>2023-01-17T21:51:29Z</time>
					</trkpt>
					<trkpt lat="47.899430" lon="6.652020">
						<ele>676</ele>
						<time>2023-01-17T21:51:36Z</time>
					</trkpt>
					<trkpt lat="47.899440" lon="6.652170">
						<ele>678</ele>
						<time>2023-01-17T21:51:37Z</time>
					</trkpt>
					<trkpt lat="47.899470" lon="6.652280">
						<ele>680</ele>
						<time>2023-01-17T21:51:39Z</time>
					</trkpt>
					<trkpt lat="47.899740" lon="6.652910">
						<ele>685</ele>
						<time>2023-01-17T21:51:48Z</time>
					</trkpt>
					<trkpt lat="47.899810" lon="6.653140">
						<ele>687</ele>
						<time>2023-01-17T21:51:51Z</time>
					</trkpt>
					<trkpt lat="47.899870" lon="6.653400">
						<ele>688</ele>
						<time>2023-01-17T21:51:54Z</time>
					</trkpt>
					<trkpt lat="47.899930" lon="6.654020">
						<ele>691</ele>
						<time>2023-01-17T21:52:02Z</time>
					</trkpt>
					<trkpt lat="47.900030" lon="6.655770">
						<ele>693</ele>
						<time>2023-01-17T21:52:22Z</time>
					</trkpt>
					<trkpt lat="47.900010" lon="6.656020">
						<ele>692</ele>
						<time>2023-01-17T21:52:25Z</time>
					</trkpt>
					<trkpt lat="47.899970" lon="6.656210">
						<ele>691</ele>
						<time>2023-01-17T21:52:28Z</time>
					</trkpt>
					<trkpt lat="47.899830" lon="6.656570">
						<ele>689</ele>
						<time>2023-01-17T21:52:33Z</time>
					</trkpt>
					<trkpt lat="47.899550" lon="6.657060">
						<ele>688</ele>
						<time>2023-01-17T21:52:41Z</time>
					</trkpt>
					<trkpt lat="47.899440" lon="6.657220">
						<ele>688</ele>
						<time>2023-01-17T21:52:43Z</time>
					</trkpt>
					<trkpt lat="47.898670" lon="6.658060">
						<ele>689</ele>
						<time>2023-01-17T21:53:00Z</time>
					</trkpt>
					<trkpt lat="47.898550" lon="6.658230">
						<ele>688</ele>
						<time>2023-01-17T21:53:03Z</time>
					</trkpt>
					<trkpt lat="47.898030" lon="6.659280">
						<ele>687</ele>
						<time>2023-01-17T21:53:19Z</time>
					</trkpt>
					<trkpt lat="47.897840" lon="6.659710">
						<ele>687</ele>
						<time>2023-01-17T21:53:25Z</time>
					</trkpt>
					<trkpt lat="47.897760" lon="6.659840">
						<ele>687</ele>
						<time>2023-01-17T21:53:27Z</time>
					</trkpt>
					<trkpt lat="47.897700" lon="6.659900">
						<ele>687</ele>
						<time>2023-01-17T21:53:28Z</time>
					</trkpt>
					<trkpt lat="47.897630" lon="6.659920">
						<ele>687</ele>
						<time>2023-01-17T21:53:30Z</time>
					</trkpt>
					<trkpt lat="47.897580" lon="6.659900">
						<ele>687</ele>
						<time>2023-01-17T21:53:30Z</time>
					</trkpt>
					<trkpt lat="47.897380" lon="6.659700">
						<ele>685</ele>
						<time>2023-01-17T21:53:35Z</time>
					</trkpt>
					<trkpt lat="47.897310" lon="6.659690">
						<ele>684</ele>
						<time>2023-01-17T21:53:36Z</time>
					</trkpt>
					<trkpt lat="47.897220" lon="6.659720">
						<ele>683</ele>
						<time>2023-01-17T21:53:38Z</time>
					</trkpt>
					<trkpt lat="47.897150" lon="6.659790">
						<ele>683</ele>
						<time>2023-01-17T21:53:39Z</time>
					</trkpt>
					<trkpt lat="47.896990" lon="6.660070">
						<ele>683</ele>
						<time>2023-01-17T21:53:44Z</time>
					</trkpt>
					<trkpt lat="47.896910" lon="6.660130">
						<ele>683</ele>
						<time>2023-01-17T21:53:45Z</time>
					</trkpt>
					<trkpt lat="47.896830" lon="6.660140">
						<ele>682</ele>
						<time>2023-01-17T21:53:47Z</time>
					</trkpt>
					<trkpt lat="47.896760" lon="6.660110">
						<ele>681</ele>
						<time>2023-01-17T21:53:48Z</time>
					</trkpt>
					<trkpt lat="47.896670" lon="6.660020">
						<ele>679</ele>
						<time>2023-01-17T21:53:50Z</time>
					</trkpt>
					<trkpt lat="47.896600" lon="6.660000">
						<ele>678</ele>
						<time>2023-01-17T21:53:51Z</time>
					</trkpt>
					<trkpt lat="47.896540" lon="6.660020">
						<ele>678</ele>
						<time>2023-01-17T21:53:52Z</time>
					</trkpt>
					<trkpt lat="47.896450" lon="6.660160">
						<ele>679</ele>
						<time>2023-01-17T21:53:54Z</time>
					</trkpt>
					<trkpt lat="47.896330" lon="6.660540">
						<ele>684</ele>
						<time>2023-01-17T21:53:59Z</time>
					</trkpt>
					<trkpt lat="47.896240" lon="6.660700">
						<ele>686</ele>
						<time>2023-01-17T21:54:02Z</time>
					</trkpt>
					<trkpt lat="47.896100" lon="6.660850">
						<ele>688</ele>
						<time>2023-01-17T21:54:05Z</time>
					</trkpt>
					<trkpt lat="47.896030" lon="6.660910">
						<ele>688</ele>
						<time>2023-01-17T21:54:06Z</time>
					</trkpt>
					<trkpt lat="47.895800" lon="6.660870">
						<ele>687</ele>
						<time>2023-01-17T21:54:11Z</time>
					</trkpt>
					<trkpt lat="47.895680" lon="6.660830">
						<ele>685</ele>
						<time>2023-01-17T21:54:13Z</time>
					</trkpt>
					<trkpt lat="47.895560" lon="6.660830">
						<ele>684</ele>
						<time>2023-01-17T21:54:15Z</time>
					</trkpt>
					<trkpt lat="47.895390" lon="6.660890">
						<ele>683</ele>
						<time>2023-01-17T21:54:18Z</time>
					</trkpt>
					<trkpt lat="47.895200" lon="6.661130">
						<ele>685</ele>
						<time>2023-01-17T21:54:22Z</time>
					</trkpt>
					<trkpt lat="47.895050" lon="6.661210">
						<ele>686</ele>
						<time>2023-01-17T21:54:25Z</time>
					</trkpt>
					<trkpt lat="47.894850" lon="6.661180">
						<ele>685</ele>
						<time>2023-01-17T21:54:29Z</time>
					</trkpt>
					<trkpt lat="47.894670" lon="6.661080">
						<ele>684</ele>
						<time>2023-01-17T21:54:32Z</time>
					</trkpt>
					<trkpt lat="47.894520" lon="6.660900">
						<ele>681</ele>
						<time>2023-01-17T21:54:36Z</time>
					</trkpt>
					<trkpt lat="47.894420" lon="6.660720">
						<ele>678</ele>
						<time>2023-01-17T21:54:38Z</time>
					</trkpt>
					<trkpt lat="47.894270" lon="6.660620">
						<ele>676</ele>
						<time>2023-01-17T21:54:41Z</time>
					</trkpt>
					<trkpt lat="47.894200" lon="6.660600">
						<ele>675</ele>
						<time>2023-01-17T21:54:43Z</time>
					</trkpt>
					<trkpt lat="47.893790" lon="6.660690">
						<ele>678</ele>
						<time>2023-01-17T21:54:50Z</time>
					</trkpt>
					<trkpt lat="47.893440" lon="6.660840">
						<ele>681</ele>
						<time>2023-01-17T21:54:57Z</time>
					</trkpt>
					<trkpt lat="47.892930" lon="6.660950">
						<ele>680</ele>
						<time>2023-01-17T21:55:06Z</time>
					</trkpt>
					<trkpt lat="47.892820" lon="6.661010">
						<ele>680</ele>
						<time>2023-01-17T21:55:08Z</time>
					</trkpt>
					<trkpt lat="47.892660" lon="6.661200">
						<ele>681</ele>
						<time>2023-01-17T21:55:11Z</time>
					</trkpt>
					<trkpt lat="47.892030" lon="6.662830">
						<ele>674</ele>
						<time>2023-01-17T21:55:34Z</time>
					</trkpt>
					<trkpt lat="47.891850" lon="6.663130">
						<ele>669</ele>
						<time>2023-01-17T21:55:39Z</time>
					</trkpt>
					<trkpt lat="47.891810" lon="6.663260">
						<ele>668</ele>
						<time>2023-01-17T21:55:40Z</time>
					</trkpt>
					<trkpt lat="47.891780" lon="6.663430">
						<ele>666</ele>
						<time>2023-01-17T21:55:42Z</time>
					</trkpt>
					<trkpt lat="47.891780" lon="6.663560">
						<ele>665</ele>
						<time>2023-01-17T21:55:44Z</time>
					</trkpt>
					<trkpt lat="47.892010" lon="6.664480">
						<ele>662</ele>
						<time>2023-01-17T21:55:56Z</time>
					</trkpt>
					<trkpt lat="47.892030" lon="6.664660">
						<ele>662</ele>
						<time>2023-01-17T21:55:58Z</time>
					</trkpt>
					<trkpt lat="47.892030" lon="6.664900">
						<ele>661</ele>
						<time>2023-01-17T21:56:01Z</time>
					</trkpt>
					<trkpt lat="47.891990" lon="6.665640">
						<ele>659</ele>
						<time>2023-01-17T21:56:10Z</time>
					</trkpt>
					<trkpt lat="47.891990" lon="6.665850">
						<ele>658</ele>
						<time>2023-01-17T21:56:12Z</time>
					</trkpt>
					<trkpt lat="47.892030" lon="6.666070">
						<ele>659</ele>
						<time>2023-01-17T21:56:15Z</time>
					</trkpt>
					<trkpt lat="47.892020" lon="6.666250">
						<ele>659</ele>
						<time>2023-01-17T21:56:17Z</time>
					</trkpt>
					<trkpt lat="47.891990" lon="6.666400">
						<ele>658</ele>
						<time>2023-01-17T21:56:19Z</time>
					</trkpt>
					<trkpt lat="47.891870" lon="6.666720">
						<ele>655</ele>
						<time>2023-01-17T21:56:23Z</time>
					</trkpt>
					<trkpt lat="47.891850" lon="6.666840">
						<ele>655</ele>
						<time>2023-01-17T21:56:25Z</time>
					</trkpt>
					<trkpt lat="47.891850" lon="6.666980">
						<ele>656</ele>
						<time>2023-01-17T21:56:26Z</time>
					</trkpt>
					<trkpt lat="47.891870" lon="6.667150">
						<ele>656</ele>
						<time>2023-01-17T21:56:28Z</time>
					</trkpt>
					<trkpt lat="47.891980" lon="6.667530">
						<ele>659</ele>
						<time>2023-01-17T21:56:33Z</time>
					</trkpt>
					<trkpt lat="47.892020" lon="6.667800">
						<ele>660</ele>
						<time>2023-01-17T21:56:37Z</time>
					</trkpt>
					<trkpt lat="47.892030" lon="6.668120">
						<ele>661</ele>
						<time>2023-01-17T21:56:41Z</time>
					</trkpt>
					<trkpt lat="47.892050" lon="6.668330">
						<ele>662</ele>
						<time>2023-01-17T21:56:43Z</time>
					</trkpt>
					<trkpt lat="47.892110" lon="6.668580">
						<ele>662</ele>
						<time>2023-01-17T21:56:46Z</time>
					</trkpt>
					<trkpt lat="47.892310" lon="6.669160">
						<ele>661</ele>
						<time>2023-01-17T21:56:54Z</time>
					</trkpt>
					<trkpt lat="47.892370" lon="6.669420">
						<ele>660</ele>
						<time>2023-01-17T21:56:57Z</time>
					</trkpt>
					<trkpt lat="47.892520" lon="6.670120">
						<ele>656</ele>
						<time>2023-01-17T21:57:06Z</time>
					</trkpt>
					<trkpt lat="47.892570" lon="6.670420">
						<ele>657</ele>
						<time>2023-01-17T21:57:10Z</time>
					</trkpt>
					<trkpt lat="47.892570" lon="6.670640">
						<ele>656</ele>
						<time>2023-01-17T21:57:12Z</time>
					</trkpt>
					<trkpt lat="47.892470" lon="6.672020">
						<ele>659</ele>
						<time>2023-01-17T21:57:29Z</time>
					</trkpt>
					<trkpt lat="47.892410" lon="6.672310">
						<ele>661</ele>
						<time>2023-01-17T21:57:33Z</time>
					</trkpt>
					<trkpt lat="47.892370" lon="6.672430">
						<ele>662</ele>
						<time>2023-01-17T21:57:34Z</time>
					</trkpt>
					<trkpt lat="47.892320" lon="6.672480">
						<ele>664</ele>
						<time>2023-01-17T21:57:35Z</time>
					</trkpt>
					<trkpt lat="47.892260" lon="6.672500">
						<ele>665</ele>
						<time>2023-01-17T21:57:36Z</time>
					</trkpt>
					<trkpt lat="47.892210" lon="6.672500">
						<ele>667</ele>
						<time>2023-01-17T21:57:37Z</time>
					</trkpt>
					<trkpt lat="47.892150" lon="6.672460">
						<ele>669</ele>
						<time>2023-01-17T21:57:38Z</time>
					</trkpt>
					<trkpt lat="47.892120" lon="6.672390">
						<ele>669</ele>
						<time>2023-01-17T21:57:39Z</time>
					</trkpt>
					<trkpt lat="47.891940" lon="6.671830">
						<ele>672</ele>
						<time>2023-01-17T21:57:47Z</time>
					</trkpt>
					<trkpt lat="47.891690" lon="6.670710">
						<ele>665</ele>
						<time>2023-01-17T21:58:01Z</time>
					</trkpt>
					<trkpt lat="47.891620" lon="6.670550">
						<ele>666</ele>
						<time>2023-01-17T21:58:03Z</time>
					</trkpt>
					<trkpt lat="47.891580" lon="6.670510">
						<ele>667</ele>
						<time>2023-01-17T21:58:04Z</time>
					</trkpt>
					<trkpt lat="47.891530" lon="6.670490">
						<ele>669</ele>
						<time>2023-01-17T21:58:05Z</time>
					</trkpt>
					<trkpt lat="47.891440" lon="6.670540">
						<ele>672</ele>
						<time>2023-01-17T21:58:07Z</time>
					</trkpt>
					<trkpt lat="47.891400" lon="6.670670">
						<ele>673</ele>
						<time>2023-01-17T21:58:08Z</time>
					</trkpt>
					<trkpt lat="47.891410" lon="6.670750">
						<ele>673</ele>
						<time>2023-01-17T21:58:09Z</time>
					</trkpt>
					<trkpt lat="47.891550" lon="6.670970">
						<ele>671</ele>
						<time>2023-01-17T21:58:13Z</time>
					</trkpt>
					<trkpt lat="47.891590" lon="6.671070">
						<ele>671</ele>
						<time>2023-01-17T21:58:14Z</time>
					</trkpt>
					<trkpt lat="47.891610" lon="6.671170">
						<ele>672</ele>
						<time>2023-01-17T21:58:16Z</time>
					</trkpt>
					<trkpt lat="47.891690" lon="6.672180">
						<ele>681</ele>
						<time>2023-01-17T21:58:28Z</time>
					</trkpt>
					<trkpt lat="47.891690" lon="6.672320">
						<ele>682</ele>
						<time>2023-01-17T21:58:29Z</time>
					</trkpt>
					<trkpt lat="47.891620" lon="6.672580">
						<ele>685</ele>
						<time>2023-01-17T21:58:33Z</time>
					</trkpt>
					<trkpt lat="47.891030" lon="6.673800">
						<ele>691</ele>
						<time>2023-01-17T21:58:51Z</time>
					</trkpt>
					<trkpt lat="47.890840" lon="6.674060">
						<ele>695</ele>
						<time>2023-01-17T21:58:55Z</time>
					</trkpt>
					<trkpt lat="47.890740" lon="6.674260">
						<ele>696</ele>
						<time>2023-01-17T21:58:58Z</time>
					</trkpt>
					<trkpt lat="47.890430" lon="6.675580">
						<ele>701</ele>
						<time>2023-01-17T21:59:15Z</time>
					</trkpt>
					<trkpt lat="47.890330" lon="6.676140">
						<ele>707</ele>
						<time>2023-01-17T21:59:22Z</time>
					</trkpt>
					<trkpt lat="47.890310" lon="6.676550">
						<ele>711</ele>
						<time>2023-01-17T21:59:27Z</time>
					</trkpt>
					<trkpt lat="47.890320" lon="6.677660">
						<ele>717</ele>
						<time>2023-01-17T21:59:40Z</time>
					</trkpt>
					<trkpt lat="47.890260" lon="6.679040">
						<ele>720</ele>
						<time>2023-01-17T21:59:56Z</time>
					</trkpt>
					<trkpt lat="47.890310" lon="6.682810">
						<ele>737</ele>
						<time>2023-01-17T22:00:41Z</time>
					</trkpt>
					<trkpt lat="47.890320" lon="6.683040">
						<ele>739</ele>
						<time>2023-01-17T22:00:44Z</time>
					</trkpt>
					<trkpt lat="47.890640" lon="6.684380">
						<ele>739</ele>
						<time>2023-01-17T22:01:01Z</time>
					</trkpt>
					<trkpt lat="47.890660" lon="6.684670">
						<ele>739</ele>
						<time>2023-01-17T22:01:05Z</time>
					</trkpt>
					<trkpt lat="47.890660" lon="6.684750">
						<ele>739</ele>
						<time>2023-01-17T22:01:06Z</time>
					</trkpt>
					<trkpt lat="47.890270" lon="6.685910">
						<ele>748</ele>
						<time>2023-01-17T22:01:21Z</time>
					</trkpt>
					<trkpt lat="47.890160" lon="6.686060">
						<ele>751</ele>
						<time>2023-01-17T22:01:24Z</time>
					</trkpt>
					<trkpt lat="47.890020" lon="6.686110">
						<ele>754</ele>
						<time>2023-01-17T22:01:26Z</time>
					</trkpt>
					<trkpt lat="47.889510" lon="6.685980">
						<ele>758</ele>
						<time>2023-01-17T22:01:35Z</time>
					</trkpt>
					<trkpt lat="47.889110" lon="6.685840">
						<ele>761</ele>
						<time>2023-01-17T22:01:43Z</time>
					</trkpt>
					<trkpt lat="47.888970" lon="6.685850">
						<ele>762</ele>
						<time>2023-01-17T22:01:45Z</time>
					</trkpt>
					<trkpt lat="47.888910" lon="6.685910">
						<ele>764</ele>
						<time>2023-01-17T22:01:47Z</time>
					</trkpt>
					<trkpt lat="47.888790" lon="6.686140">
						<ele>766</ele>
						<time>2023-01-17T22:01:50Z</time>
					</trkpt>
					<trkpt lat="47.888520" lon="6.686840">
						<ele>768</ele>
						<time>2023-01-17T22:02:00Z</time>
					</trkpt>
					<trkpt lat="47.888090" lon="6.688000">
						<ele>765</ele>
						<time>2023-01-17T22:02:15Z</time>
					</trkpt>
					<trkpt lat="47.887670" lon="6.689150">
						<ele>760</ele>
						<time>2023-01-17T22:02:31Z</time>
					</trkpt>
					<trkpt lat="47.887570" lon="6.689300">
						<ele>760</ele>
						<time>2023-01-17T22:02:34Z</time>
					</trkpt>
					<trkpt lat="47.887430" lon="6.689410">
						<ele>760</ele>
						<time>2023-01-17T22:02:36Z</time>
					</trkpt>
					<trkpt lat="47.886630" lon="6.689530">
						<ele>758</ele>
						<time>2023-01-17T22:02:51Z</time>
					</trkpt>
					<trkpt lat="47.886500" lon="6.689590">
						<ele>758</ele>
						<time>2023-01-17T22:02:53Z</time>
					</trkpt>
					<trkpt lat="47.886450" lon="6.689640">
						<ele>757</ele>
						<time>2023-01-17T22:02:54Z</time>
					</trkpt>
					<trkpt lat="47.886380" lon="6.689800">
						<ele>756</ele>
						<time>2023-01-17T22:02:57Z</time>
					</trkpt>
					<trkpt lat="47.885880" lon="6.691820">
						<ele>748</ele>
						<time>2023-01-17T22:03:22Z</time>
					</trkpt>
					<trkpt lat="47.885740" lon="6.692360">
						<ele>748</ele>
						<time>2023-01-17T22:03:29Z</time>
					</trkpt>
					<trkpt lat="47.885670" lon="6.692560">
						<ele>748</ele>
						<time>2023-01-17T22:03:32Z</time>
					</trkpt>
					<trkpt lat="47.885610" lon="6.692660">
						<ele>748</ele>
						<time>2023-01-17T22:03:33Z</time>
					</trkpt>
					<trkpt lat="47.885550" lon="6.692720">
						<ele>748</ele>
						<time>2023-01-17T22:03:35Z</time>
					</trkpt>
					<trkpt lat="47.885020" lon="6.692930">
						<ele>747</ele>
						<time>2023-01-17T22:03:44Z</time>
					</trkpt>
					<trkpt lat="47.884830" lon="6.693050">
						<ele>748</ele>
						<time>2023-01-17T22:03:48Z</time>
					</trkpt>
					<trkpt lat="47.884750" lon="6.693170">
						<ele>749</ele>
						<time>2023-01-17T22:03:50Z</time>
					</trkpt>
					<trkpt lat="47.884640" lon="6.693370">
						<ele>749</ele>
						<time>2023-01-17T22:03:53Z</time>
					</trkpt>
					<trkpt lat="47.884350" lon="6.694040">
						<ele>744</ele>
						<time>2023-01-17T22:04:03Z</time>
					</trkpt>
					<trkpt lat="47.883650" lon="6.695530">
						<ele>741</ele>
						<time>2023-01-17T22:04:24Z</time>
					</trkpt>
					<trkpt lat="47.882960" lon="6.696640">
						<ele>741</ele>
						<time>2023-01-17T22:04:43Z</time>
					</trkpt>
					<trkpt lat="47.882660" lon="6.695970">
						<ele>740</ele>
						<time>2023-01-17T22:04:52Z</time>
					</trkpt>
					<trkpt lat="47.882350" lon="6.695080">
						<ele>742</ele>
						<time>2023-01-17T22:05:04Z</time>
					</trkpt>
					<trkpt lat="47.882280" lon="6.694800">
						<ele>742</ele>
						<time>2023-01-17T22:05:08Z</time>
					</trkpt>
					<trkpt lat="47.882210" lon="6.694370">
						<ele>743</ele>
						<time>2023-01-17T22:05:13Z</time>
					</trkpt>
					<trkpt lat="47.882100" lon="6.693550">
						<ele>743</ele>
						<time>2023-01-17T22:05:23Z</time>
					</trkpt>
					<trkpt lat="47.882140" lon="6.693310">
						<ele>743</ele>
						<time>2023-01-17T22:05:26Z</time>
					</trkpt>
					<trkpt lat="47.882140" lon="6.693220">
						<ele>743</ele>
						<time>2023-01-17T22:05:27Z</time>
					</trkpt>
					<trkpt lat="47.882130" lon="6.693160">
						<ele>743</ele>
						<time>2023-01-17T22:05:28Z</time>
					</trkpt>
					<trkpt lat="47.882020" lon="6.692900">
						<ele>742</ele>
						<time>2023-01-17T22:05:31Z</time>
					</trkpt>
					<trkpt lat="47.881900" lon="6.692700">
						<ele>742</ele>
						<time>2023-01-17T22:05:35Z</time>
					</trkpt>
					<trkpt lat="47.881700" lon="6.692300">
						<ele>741</ele>
						<time>2023-01-17T22:05:41Z</time>
					</trkpt>
					<trkpt lat="47.881480" lon="6.691770">
						<ele>740</ele>
						<time>2023-01-17T22:05:48Z</time>
					</trkpt>
					<trkpt lat="47.881320" lon="6.691300">
						<ele>741</ele>
						<time>2023-01-17T22:05:54Z</time>
					</trkpt>
					<trkpt lat="47.881210" lon="6.690910">
						<ele>742</ele>
						<time>2023-01-17T22:05:59Z</time>
					</trkpt>
					<trkpt lat="47.881140" lon="6.690770">
						<ele>741</ele>
						<time>2023-01-17T22:06:01Z</time>
					</trkpt>
					<trkpt lat="47.881020" lon="6.690670">
						<ele>741</ele>
						<time>2023-01-17T22:06:04Z</time>
					</trkpt>
					<trkpt lat="47.880760" lon="6.690490">
						<ele>739</ele>
						<time>2023-01-17T22:06:09Z</time>
					</trkpt>
					<trkpt lat="47.880530" lon="6.690290">
						<ele>738</ele>
						<time>2023-01-17T22:06:14Z</time>
					</trkpt>
					<trkpt lat="47.880310" lon="6.690030">
						<ele>738</ele>
						<time>2023-01-17T22:06:19Z</time>
					</trkpt>
					<trkpt lat="47.880210" lon="6.689990">
						<ele>737</ele>
						<time>2023-01-17T22:06:21Z</time>
					</trkpt>
					<trkpt lat="47.880150" lon="6.689990">
						<ele>737</ele>
						<time>2023-01-17T22:06:22Z</time>
					</trkpt>
					<trkpt lat="47.880080" lon="6.690050">
						<ele>736</ele>
						<time>2023-01-17T22:06:23Z</time>
					</trkpt>
					<trkpt lat="47.879920" lon="6.690390">
						<ele>734</ele>
						<time>2023-01-17T22:06:28Z</time>
					</trkpt>
					<trkpt lat="47.879570" lon="6.690760">
						<ele>731</ele>
						<time>2023-01-17T22:06:36Z</time>
					</trkpt>
					<trkpt lat="47.879360" lon="6.690930">
						<ele>730</ele>
						<time>2023-01-17T22:06:40Z</time>
					</trkpt>
					<trkpt lat="47.879150" lon="6.690480">
						<ele>728</ele>
						<time>2023-01-17T22:06:46Z</time>
					</trkpt>
					<trkpt lat="47.879050" lon="6.690340">
						<ele>727</ele>
						<time>2023-01-17T22:06:49Z</time>
					</trkpt>
					<trkpt lat="47.878700" lon="6.689900">
						<ele>724</ele>
						<time>2023-01-17T22:06:57Z</time>
					</trkpt>
					<trkpt lat="47.878310" lon="6.689910">
						<ele>721</ele>
						<time>2023-01-17T22:07:04Z</time>
					</trkpt>
					<trkpt lat="47.877900" lon="6.689870">
						<ele>718</ele>
						<time>2023-01-17T22:07:11Z</time>
					</trkpt>
					<trkpt lat="47.877810" lon="6.689840">
						<ele>717</ele>
						<time>2023-01-17T22:07:13Z</time>
					</trkpt>
					<trkpt lat="47.877630" lon="6.689710">
						<ele>716</ele>
						<time>2023-01-17T22:07:16Z</time>
					</trkpt>
					<trkpt lat="47.877500" lon="6.689680">
						<ele>715</ele>
						<time>2023-01-17T22:07:19Z</time>
					</trkpt>
					<trkpt lat="47.876900" lon="6.689820">
						<ele>716</ele>
						<time>2023-01-17T22:07:30Z</time>
					</trkpt>
					<trkpt lat="47.876790" lon="6.689710">
						<ele>716</ele>
						<time>2023-01-17T22:07:32Z</time>
					</trkpt>
					<trkpt lat="47.876710" lon="6.689530">
						<ele>715</ele>
						<time>2023-01-17T22:07:35Z</time>
					</trkpt>
					<trkpt lat="47.876550" lon="6.689300">
						<ele>716</ele>
						<time>2023-01-17T22:07:38Z</time>
					</trkpt>
					<trkpt lat="47.876440" lon="6.689210">
						<ele>716</ele>
						<time>2023-01-17T22:07:41Z</time>
					</trkpt>
					<trkpt lat="47.875940" lon="6.688940">
						<ele>716</ele>
						<time>2023-01-17T22:07:50Z</time>
					</trkpt>
					<trkpt lat="47.875540" lon="6.688630">
						<ele>717</ele>
						<time>2023-01-17T22:07:58Z</time>
					</trkpt>
					<trkpt lat="47.875460" lon="6.688510">
						<ele>717</ele>
						<time>2023-01-17T22:08:00Z</time>
					</trkpt>
					<trkpt lat="47.875430" lon="6.688420">
						<ele>716</ele>
						<time>2023-01-17T22:08:01Z</time>
					</trkpt>
					<trkpt lat="47.875420" lon="6.688310">
						<ele>716</ele>
						<time>2023-01-17T22:08:03Z</time>
					</trkpt>
					<trkpt lat="47.875410" lon="6.688090">
						<ele>716</ele>
						<time>2023-01-17T22:08:05Z</time>
					</trkpt>
					<trkpt lat="47.875460" lon="6.687890">
						<ele>715</ele>
						<time>2023-01-17T22:08:08Z</time>
					</trkpt>
					<trkpt lat="47.875500" lon="6.687790">
						<ele>715</ele>
						<time>2023-01-17T22:08:09Z</time>
					</trkpt>
					<trkpt lat="47.875500" lon="6.687590">
						<ele>715</ele>
						<time>2023-01-17T22:08:12Z</time>
					</trkpt>
					<trkpt lat="47.875470" lon="6.687470">
						<ele>715</ele>
						<time>2023-01-17T22:08:13Z</time>
					</trkpt>
					<trkpt lat="47.874910" lon="6.686860">
						<ele>717</ele>
						<time>2023-01-17T22:08:26Z</time>
					</trkpt>
					<trkpt lat="47.874760" lon="6.686660">
						<ele>717</ele>
						<time>2023-01-17T22:08:29Z</time>
					</trkpt>
					<trkpt lat="47.874590" lon="6.686370">
						<ele>718</ele>
						<time>2023-01-17T22:08:34Z</time>
					</trkpt>
					<trkpt lat="47.874480" lon="6.686220">
						<ele>719</ele>
						<time>2023-01-17T22:08:36Z</time>
					</trkpt>
					<trkpt lat="47.874290" lon="6.686010">
						<ele>720</ele>
						<time>2023-01-17T22:08:41Z</time>
					</trkpt>
					<trkpt lat="47.873960" lon="6.685700">
						<ele>720</ele>
						<time>2023-01-17T22:08:48Z</time>
					</trkpt>
					<trkpt lat="47.873450" lon="6.685480">
						<ele>719</ele>
						<time>2023-01-17T22:08:57Z</time>
					</trkpt>
					<trkpt lat="47.873160" lon="6.685310">
						<ele>720</ele>
						<time>2023-01-17T22:09:03Z</time>
					</trkpt>
					<trkpt lat="47.873080" lon="6.685130">
						<ele>720</ele>
						<time>2023-01-17T22:09:05Z</time>
					</trkpt>
					<trkpt lat="47.873040" lon="6.684990">
						<ele>720</ele>
						<time>2023-01-17T22:09:07Z</time>
					</trkpt>
					<trkpt lat="47.872980" lon="6.684860">
						<ele>720</ele>
						<time>2023-01-17T22:09:09Z</time>
					</trkpt>
					<trkpt lat="47.872930" lon="6.684790">
						<ele>719</ele>
						<time>2023-01-17T22:09:10Z</time>
					</trkpt>
					<trkpt lat="47.872820" lon="6.684720">
						<ele>719</ele>
						<time>2023-01-17T22:09:12Z</time>
					</trkpt>
					<trkpt lat="47.872800" lon="6.684680">
						<ele>719</ele>
						<time>2023-01-17T22:09:13Z</time>
					</trkpt>
					<trkpt lat="47.872980" lon="6.684020">
						<ele>717</ele>
						<time>2023-01-17T22:09:21Z</time>
					</trkpt>
					<trkpt lat="47.873050" lon="6.683380">
						<ele>716</ele>
						<time>2023-01-17T22:09:29Z</time>
					</trkpt>
					<trkpt lat="47.873160" lon="6.682030">
						<ele>716</ele>
						<time>2023-01-17T22:09:45Z</time>
					</trkpt>
					<trkpt lat="47.873170" lon="6.681790">
						<ele>716</ele>
						<time>2023-01-17T22:09:48Z</time>
					</trkpt>
					<trkpt lat="47.873140" lon="6.681550">
						<ele>716</ele>
						<time>2023-01-17T22:09:51Z</time>
					</trkpt>
					<trkpt lat="47.872990" lon="6.681230">
						<ele>715</ele>
						<time>2023-01-17T22:09:56Z</time>
					</trkpt>
					<trkpt lat="47.872130" lon="6.679610">
						<ele>711</ele>
						<time>2023-01-17T22:10:20Z</time>
					</trkpt>
					<trkpt lat="47.872010" lon="6.679280">
						<ele>710</ele>
						<time>2023-01-17T22:10:25Z</time>
					</trkpt>
					<trkpt lat="47.871510" lon="6.677690">
						<ele>705</ele>
						<time>2023-01-17T22:10:46Z</time>
					</trkpt>
					<trkpt lat="47.871460" lon="6.677520">
						<ele>705</ele>
						<time>2023-01-17T22:10:48Z</time>
					</trkpt>
					<trkpt lat="47.871480" lon="6.677110">
						<ele>707</ele>
						<time>2023-01-17T22:10:53Z</time>
					</trkpt>
					<trkpt lat="47.871460" lon="6.676970">
						<ele>708</ele>
						<time>2023-01-17T22:10:55Z</time>
					</trkpt>
					<trkpt lat="47.871410" lon="6.676860">
						<ele>707</ele>
						<time>2023-01-17T22:10:56Z</time>
					</trkpt>
					<trkpt lat="47.870730" lon="6.675880">
						<ele>699</ele>
						<time>2023-01-17T22:11:13Z</time>
					</trkpt>
					<trkpt lat="47.870600" lon="6.675670">
						<ele>697</ele>
						<time>2023-01-17T22:11:16Z</time>
					</trkpt>
					<trkpt lat="47.870310" lon="6.674970">
						<ele>693</ele>
						<time>2023-01-17T22:11:26Z</time>
					</trkpt>
					<trkpt lat="47.870210" lon="6.674610">
						<ele>692</ele>
						<time>2023-01-17T22:11:31Z</time>
					</trkpt>
					<trkpt lat="47.870110" lon="6.674060">
						<ele>691</ele>
						<time>2023-01-17T22:11:38Z</time>
					</trkpt>
					<trkpt lat="47.870100" lon="6.673790">
						<ele>691</ele>
						<time>2023-01-17T22:11:41Z</time>
					</trkpt>
					<trkpt lat="47.870100" lon="6.673360">
						<ele>691</ele>
						<time>2023-01-17T22:11:46Z</time>
					</trkpt>
					<trkpt lat="47.870110" lon="6.673230">
						<ele>690</ele>
						<time>2023-01-17T22:11:48Z</time>
					</trkpt>
					<trkpt lat="47.870150" lon="6.673090">
						<ele>690</ele>
						<time>2023-01-17T22:11:49Z</time>
					</trkpt>
					<trkpt lat="47.870220" lon="6.672950">
						<ele>689</ele>
						<time>2023-01-17T22:11:52Z</time>
					</trkpt>
					<trkpt lat="47.870510" lon="6.672550">
						<ele>686</ele>
						<time>2023-01-17T22:11:59Z</time>
					</trkpt>
					<trkpt lat="47.870570" lon="6.672430">
						<ele>686</ele>
						<time>2023-01-17T22:12:00Z</time>
					</trkpt>
					<trkpt lat="47.870670" lon="6.672180">
						<ele>685</ele>
						<time>2023-01-17T22:12:04Z</time>
					</trkpt>
					<trkpt lat="47.870790" lon="6.671790">
						<ele>685</ele>
						<time>2023-01-17T22:12:09Z</time>
					</trkpt>
					<trkpt lat="47.870890" lon="6.671420">
						<ele>686</ele>
						<time>2023-01-17T22:12:14Z</time>
					</trkpt>
					<trkpt lat="47.870920" lon="6.671230">
						<ele>687</ele>
						<time>2023-01-17T22:12:16Z</time>
					</trkpt>
					<trkpt lat="47.870980" lon="6.669820">
						<ele>686</ele>
						<time>2023-01-17T22:12:33Z</time>
					</trkpt>
					<trkpt lat="47.870980" lon="6.668760">
						<ele>685</ele>
						<time>2023-01-17T22:12:46Z</time>
					</trkpt>
					<trkpt lat="47.870990" lon="6.668520">
						<ele>684</ele>
						<time>2023-01-17T22:12:48Z</time>
					</trkpt>
					<trkpt lat="47.871080" lon="6.667830">
						<ele>682</ele>
						<time>2023-01-17T22:12:57Z</time>
					</trkpt>
					<trkpt lat="47.871090" lon="6.667570">
						<ele>681</ele>
						<time>2023-01-17T22:13:00Z</time>
					</trkpt>
					<trkpt lat="47.871050" lon="6.667140">
						<ele>679</ele>
						<time>2023-01-17T22:13:05Z</time>
					</trkpt>
					<trkpt lat="47.870980" lon="6.666860">
						<ele>678</ele>
						<time>2023-01-17T22:13:09Z</time>
					</trkpt>
					<trkpt lat="47.870900" lon="6.666640">
						<ele>677</ele>
						<time>2023-01-17T22:13:12Z</time>
					</trkpt>
					<trkpt lat="47.870800" lon="6.666480">
						<ele>677</ele>
						<time>2023-01-17T22:13:14Z</time>
					</trkpt>
					<trkpt lat="47.870660" lon="6.666310">
						<ele>677</ele>
						<time>2023-01-17T22:13:17Z</time>
					</trkpt>
					<trkpt lat="47.870520" lon="6.666250">
						<ele>677</ele>
						<time>2023-01-17T22:13:20Z</time>
					</trkpt>
					<trkpt lat="47.870220" lon="6.666570">
						<ele>680</ele>
						<time>2023-01-17T22:13:27Z</time>
					</trkpt>
					<trkpt lat="47.869820" lon="6.666830">
						<ele>682</ele>
						<time>2023-01-17T22:13:34Z</time>
					</trkpt>
					<trkpt lat="47.869560" lon="6.666990">
						<ele>683</ele>
						<time>2023-01-17T22:13:39Z</time>
					</trkpt>
					<trkpt lat="47.869340" lon="6.667060">
						<ele>683</ele>
						<time>2023-01-17T22:13:43Z</time>
					</trkpt>
					<trkpt lat="47.868730" lon="6.667130">
						<ele>681</ele>
						<time>2023-01-17T22:13:54Z</time>
					</trkpt>
					<trkpt lat="47.868580" lon="6.667120">
						<ele>680</ele>
						<time>2023-01-17T22:13:57Z</time>
					</trkpt>
					<trkpt lat="47.868470" lon="6.667030">
						<ele>680</ele>
						<time>2023-01-17T22:13:59Z</time>
					</trkpt>
					<trkpt lat="47.868360" lon="6.666900">
						<ele>680</ele>
						<time>2023-01-17T22:14:02Z</time>
					</trkpt>
					<trkpt lat="47.868260" lon="6.666680">
						<ele>679</ele>
						<time>2023-01-17T22:14:05Z</time>
					</trkpt>
					<trkpt lat="47.868160" lon="6.666570">
						<ele>678</ele>
						<time>2023-01-17T22:14:07Z</time>
					</trkpt>
					<trkpt lat="47.868000" lon="6.666550">
						<ele>677</ele>
						<time>2023-01-17T22:14:10Z</time>
					</trkpt>
					<trkpt lat="47.867470" lon="6.666640">
						<ele>674</ele>
						<time>2023-01-17T22:14:19Z</time>
					</trkpt>
					<trkpt lat="47.867330" lon="6.666750">
						<ele>673</ele>
						<time>2023-01-17T22:14:22Z</time>
					</trkpt>
					<trkpt lat="47.867140" lon="6.667130">
						<ele>672</ele>
						<time>2023-01-17T22:14:28Z</time>
					</trkpt>
					<trkpt lat="47.867030" lon="6.667500">
						<ele>673</ele>
						<time>2023-01-17T22:14:33Z</time>
					</trkpt>
					<trkpt lat="47.866820" lon="6.668360">
						<ele>672</ele>
						<time>2023-01-17T22:14:44Z</time>
					</trkpt>
					<trkpt lat="47.866510" lon="6.669830">
						<ele>670</ele>
						<time>2023-01-17T22:15:02Z</time>
					</trkpt>
					<trkpt lat="47.866250" lon="6.670880">
						<ele>666</ele>
						<time>2023-01-17T22:15:15Z</time>
					</trkpt>
					<trkpt lat="47.866130" lon="6.672350">
						<ele>659</ele>
						<time>2023-01-17T22:15:33Z</time>
					</trkpt>
					<trkpt lat="47.866130" lon="6.672650">
						<ele>658</ele>
						<time>2023-01-17T22:15:37Z</time>
					</trkpt>
					<trkpt lat="47.866170" lon="6.672990">
						<ele>657</ele>
						<time>2023-01-17T22:15:41Z</time>
					</trkpt>
					<trkpt lat="47.866130" lon="6.673800">
						<ele>656</ele>
						<time>2023-01-17T22:15:50Z</time>
					</trkpt>
					<trkpt lat="47.866150" lon="6.673930">
						<ele>655</ele>
						<time>2023-01-17T22:15:52Z</time>
					</trkpt>
					<trkpt lat="47.866180" lon="6.674040">
						<ele>655</ele>
						<time>2023-01-17T22:15:53Z</time>
					</trkpt>
					<trkpt lat="47.866240" lon="6.674170">
						<ele>654</ele>
						<time>2023-01-17T22:15:55Z</time>
					</trkpt>
					<trkpt lat="47.866360" lon="6.674270">
						<ele>652</ele>
						<time>2023-01-17T22:15:58Z</time>
					</trkpt>
					<trkpt lat="47.866450" lon="6.674310">
						<ele>651</ele>
						<time>2023-01-17T22:15:59Z</time>
					</trkpt>
					<trkpt lat="47.866700" lon="6.674340">
						<ele>649</ele>
						<time>2023-01-17T22:16:04Z</time>
					</trkpt>
					<trkpt lat="47.866900" lon="6.674330">
						<ele>651</ele>
						<time>2023-01-17T22:16:07Z</time>
					</trkpt>
					<trkpt lat="47.866990" lon="6.674370">
						<ele>652</ele>
						<time>2023-01-17T22:16:09Z</time>
					</trkpt>
					<trkpt lat="47.867120" lon="6.674540">
						<ele>652</ele>
						<time>2023-01-17T22:16:12Z</time>
					</trkpt>
					<trkpt lat="47.867160" lon="6.674620">
						<ele>652</ele>
						<time>2023-01-17T22:16:13Z</time>
					</trkpt>
					<trkpt lat="47.867250" lon="6.675050">
						<ele>651</ele>
						<time>2023-01-17T22:16:19Z</time>
					</trkpt>
					<trkpt lat="47.867330" lon="6.675510">
						<ele>649</ele>
						<time>2023-01-17T22:16:24Z</time>
					</trkpt>
					<trkpt lat="47.867340" lon="6.676100">
						<ele>646</ele>
						<time>2023-01-17T22:16:32Z</time>
					</trkpt>
					<trkpt lat="47.867310" lon="6.676400">
						<ele>644</ele>
						<time>2023-01-17T22:16:35Z</time>
					</trkpt>
					<trkpt lat="47.867270" lon="6.676540">
						<ele>643</ele>
						<time>2023-01-17T22:16:37Z</time>
					</trkpt>
					<trkpt lat="47.867170" lon="6.676680">
						<ele>642</ele>
						<time>2023-01-17T22:16:39Z</time>
					</trkpt>
					<trkpt lat="47.867030" lon="6.676740">
						<ele>641</ele>
						<time>2023-01-17T22:16:42Z</time>
					</trkpt>
					<trkpt lat="47.866810" lon="6.676780">
						<ele>639</ele>
						<time>2023-01-17T22:16:46Z</time>
					</trkpt>
					<trkpt lat="47.865800" lon="6.677080">
						<ele>639</ele>
						<time>2023-01-17T22:17:04Z</time>
					</trkpt>
					<trkpt lat="47.865640" lon="6.677160">
						<ele>637</ele>
						<time>2023-01-17T22:17:07Z</time>
					</trkpt>
					<trkpt lat="47.864700" lon="6.678430">
						<ele>622</ele>
						<time>2023-01-17T22:17:30Z</time>
					</trkpt>
					<trkpt lat="47.864520" lon="6.678440">
						<ele>619</ele>
						<time>2023-01-17T22:17:33Z</time>
					</trkpt>
					<trkpt lat="47.864260" lon="6.678370">
						<ele>615</ele>
						<time>2023-01-17T22:17:38Z</time>
					</trkpt>
					<trkpt lat="47.864130" lon="6.678420">
						<ele>613</ele>
						<time>2023-01-17T22:17:40Z</time>
					</trkpt>
					<trkpt lat="47.863600" lon="6.679300">
						<ele>609</ele>
						<time>2023-01-17T22:17:54Z</time>
					</trkpt>
					<trkpt lat="47.863490" lon="6.679320">
						<ele>608</ele>
						<time>2023-01-17T22:17:56Z</time>
					</trkpt>
					<trkpt lat="47.863430" lon="6.679330">
						<ele>608</ele>
						<time>2023-01-17T22:17:57Z</time>
					</trkpt>
					<trkpt lat="47.863390" lon="6.679320">
						<ele>608</ele>
						<time>2023-01-17T22:17:58Z</time>
					</trkpt>
					<trkpt lat="47.863260" lon="6.678880">
						<ele>607</ele>
						<time>2023-01-17T22:18:04Z</time>
					</trkpt>
					<trkpt lat="47.863180" lon="6.678720">
						<ele>606</ele>
						<time>2023-01-17T22:18:06Z</time>
					</trkpt>
					<trkpt lat="47.862990" lon="6.678500">
						<ele>605</ele>
						<time>2023-01-17T22:18:10Z</time>
					</trkpt>
					<trkpt lat="47.862290" lon="6.677940">
						<ele>601</ele>
						<time>2023-01-17T22:18:25Z</time>
					</trkpt>
					<trkpt lat="47.862060" lon="6.677710">
						<ele>600</ele>
						<time>2023-01-17T22:18:29Z</time>
					</trkpt>
					<trkpt lat="47.861520" lon="6.676880">
						<ele>599</ele>
						<time>2023-01-17T22:18:43Z</time>
					</trkpt>
					<trkpt lat="47.861430" lon="6.676800">
						<ele>599</ele>
						<time>2023-01-17T22:18:45Z</time>
					</trkpt>
					<trkpt lat="47.861150" lon="6.676690">
						<ele>598</ele>
						<time>2023-01-17T22:18:50Z</time>
					</trkpt>
					<trkpt lat="47.860770" lon="6.676080">
						<ele>596</ele>
						<time>2023-01-17T22:19:00Z</time>
					</trkpt>
					<trkpt lat="47.860590" lon="6.675890">
						<ele>597</ele>
						<time>2023-01-17T22:19:04Z</time>
					</trkpt>
					<trkpt lat="47.860340" lon="6.675490">
						<ele>600</ele>
						<time>2023-01-17T22:19:11Z</time>
					</trkpt>
					<trkpt lat="47.859850" lon="6.673970">
						<ele>599</ele>
						<time>2023-01-17T22:19:31Z</time>
					</trkpt>
					<trkpt lat="47.859660" lon="6.673430">
						<ele>599</ele>
						<time>2023-01-17T22:19:38Z</time>
					</trkpt>
					<trkpt lat="47.859200" lon="6.672860">
						<ele>599</ele>
						<time>2023-01-17T22:19:49Z</time>
					</trkpt>
					<trkpt lat="47.858950" lon="6.672750">
						<ele>597</ele>
						<time>2023-01-17T22:19:53Z</time>
					</trkpt>
					<trkpt lat="47.858770" lon="6.672730">
						<ele>596</ele>
						<time>2023-01-17T22:19:57Z</time>
					</trkpt>
					<trkpt lat="47.858570" lon="6.672800">
						<ele>595</ele>
						<time>2023-01-17T22:20:00Z</time>
					</trkpt>
					<trkpt lat="47.858520" lon="6.672820">
						<ele>594</ele>
						<time>2023-01-17T22:20:01Z</time>
					</trkpt>
					<trkpt lat="47.857870" lon="6.672530">
						<ele>591</ele>
						<time>2023-01-17T22:20:13Z</time>
					</trkpt>
					<trkpt lat="47.857760" lon="6.672440">
						<ele>591</ele>
						<time>2023-01-17T22:20:15Z</time>
					</trkpt>
					<trkpt lat="47.857380" lon="6.672030">
						<ele>589</ele>
						<time>2023-01-17T22:20:24Z</time>
					</trkpt>
					<trkpt lat="47.857080" lon="6.671750">
						<ele>587</ele>
						<time>2023-01-17T22:20:30Z</time>
					</trkpt>
					<trkpt lat="47.856910" lon="6.671560">
						<ele>586</ele>
						<time>2023-01-17T22:20:34Z</time>
					</trkpt>
					<trkpt lat="47.856700" lon="6.671420">
						<ele>586</ele>
						<time>2023-01-17T22:20:38Z</time>
					</trkpt>
					<trkpt lat="47.856060" lon="6.671150">
						<ele>586</ele>
						<time>2023-01-17T22:20:50Z</time>
					</trkpt>
					<trkpt lat="47.855840" lon="6.671020">
						<ele>585</ele>
						<time>2023-01-17T22:20:54Z</time>
					</trkpt>
					<trkpt lat="47.855330" lon="6.670560">
						<ele>586</ele>
						<time>2023-01-17T22:21:05Z</time>
					</trkpt>
					<trkpt lat="47.854790" lon="6.670180">
						<ele>583</ele>
						<time>2023-01-17T22:21:15Z</time>
					</trkpt>
					<trkpt lat="47.854620" lon="6.669960">
						<ele>581</ele>
						<time>2023-01-17T22:21:19Z</time>
					</trkpt>
					<trkpt lat="47.854230" lon="6.669340">
						<ele>579</ele>
						<time>2023-01-17T22:21:29Z</time>
					</trkpt>
					<trkpt lat="47.854160" lon="6.669270">
						<ele>578</ele>
						<time>2023-01-17T22:21:31Z</time>
					</trkpt>
					<trkpt lat="47.854040" lon="6.669230">
						<ele>577</ele>
						<time>2023-01-17T22:21:33Z</time>
					</trkpt>
					<trkpt lat="47.854010" lon="6.669270">
						<ele>576</ele>
						<time>2023-01-17T22:21:34Z</time>
					</trkpt>
					<trkpt lat="47.853830" lon="6.669690">
						<ele>576</ele>
						<time>2023-01-17T22:21:40Z</time>
					</trkpt>
					<trkpt lat="47.853750" lon="6.669840">
						<ele>576</ele>
						<time>2023-01-17T22:21:42Z</time>
					</trkpt>
					<trkpt lat="47.853630" lon="6.669950">
						<ele>576</ele>
						<time>2023-01-17T22:21:45Z</time>
					</trkpt>
					<trkpt lat="47.853470" lon="6.669870">
						<ele>576</ele>
						<time>2023-01-17T22:21:48Z</time>
					</trkpt>
					<trkpt lat="47.853170" lon="6.669640">
						<ele>574</ele>
						<time>2023-01-17T22:21:54Z</time>
					</trkpt>
					<trkpt lat="47.852850" lon="6.669580">
						<ele>574</ele>
						<time>2023-01-17T22:21:59Z</time>
					</trkpt>
					<trkpt lat="47.852570" lon="6.669620">
						<ele>575</ele>
						<time>2023-01-17T22:22:04Z</time>
					</trkpt>
					<trkpt lat="47.852210" lon="6.669780">
						<ele>586</ele>
						<time>2023-01-17T22:22:11Z</time>
					</trkpt>
					<trkpt lat="47.852070" lon="6.669780">
						<ele>590</ele>
						<time>2023-01-17T22:22:13Z</time>
					</trkpt>
					<trkpt lat="47.851970" lon="6.669750">
						<ele>592</ele>
						<time>2023-01-17T22:22:15Z</time>
					</trkpt>
					<trkpt lat="47.851920" lon="6.669650">
						<ele>592</ele>
						<time>2023-01-17T22:22:17Z</time>
					</trkpt>
					<trkpt lat="47.851760" lon="6.669090">
						<ele>585</ele>
						<time>2023-01-17T22:22:24Z</time>
					</trkpt>
					<trkpt lat="47.851450" lon="6.668260">
						<ele>580</ele>
						<time>2023-01-17T22:22:35Z</time>
					</trkpt>
					<trkpt lat="47.851230" lon="6.667840">
						<ele>579</ele>
						<time>2023-01-17T22:22:42Z</time>
					</trkpt>
					<trkpt lat="47.851020" lon="6.667780">
						<ele>581</ele>
						<time>2023-01-17T22:22:46Z</time>
					</trkpt>
					<trkpt lat="47.850660" lon="6.667720">
						<ele>585</ele>
						<time>2023-01-17T22:22:52Z</time>
					</trkpt>
					<trkpt lat="47.850530" lon="6.667720">
						<ele>587</ele>
						<time>2023-01-17T22:22:54Z</time>
					</trkpt>
					<trkpt lat="47.850410" lon="6.667760">
						<ele>588</ele>
						<time>2023-01-17T22:22:57Z</time>
					</trkpt>
					<trkpt lat="47.850260" lon="6.667720">
						<ele>590</ele>
						<time>2023-01-17T22:22:59Z</time>
					</trkpt>
					<trkpt lat="47.849890" lon="6.667160">
						<ele>590</ele>
						<time>2023-01-17T22:23:09Z</time>
					</trkpt>
					<trkpt lat="47.849690" lon="6.667040">
						<ele>593</ele>
						<time>2023-01-17T22:23:12Z</time>
					</trkpt>
					<trkpt lat="47.849050" lon="6.666780">
						<ele>605</ele>
						<time>2023-01-17T22:23:24Z</time>
					</trkpt>
					<trkpt lat="47.848940" lon="6.666640">
						<ele>608</ele>
						<time>2023-01-17T22:23:27Z</time>
					</trkpt>
					<trkpt lat="47.848840" lon="6.666200">
						<ele>609</ele>
						<time>2023-01-17T22:23:32Z</time>
					</trkpt>
					<trkpt lat="47.848820" lon="6.665840">
						<ele>608</ele>
						<time>2023-01-17T22:23:37Z</time>
					</trkpt>
					<trkpt lat="47.848830" lon="6.664630">
						<ele>607</ele>
						<time>2023-01-17T22:23:51Z</time>
					</trkpt>
					<trkpt lat="47.848850" lon="6.663940">
						<ele>605</ele>
						<time>2023-01-17T22:23:59Z</time>
					</trkpt>
					<trkpt lat="47.848700" lon="6.663030">
						<ele>601</ele>
						<time>2023-01-17T22:24:11Z</time>
					</trkpt>
					<trkpt lat="47.848390" lon="6.662100">
						<ele>596</ele>
						<time>2023-01-17T22:24:23Z</time>
					</trkpt>
					<trkpt lat="47.848230" lon="6.661940">
						<ele>596</ele>
						<time>2023-01-17T22:24:26Z</time>
					</trkpt>
					<trkpt lat="47.848010" lon="6.661920">
						<ele>596</ele>
						<time>2023-01-17T22:24:30Z</time>
					</trkpt>
					<trkpt lat="47.847760" lon="6.662040">
						<ele>596</ele>
						<time>2023-01-17T22:24:35Z</time>
					</trkpt>
					<trkpt lat="47.847660" lon="6.662000">
						<ele>597</ele>
						<time>2023-01-17T22:24:37Z</time>
					</trkpt>
					<trkpt lat="47.847620" lon="6.661950">
						<ele>597</ele>
						<time>2023-01-17T22:24:38Z</time>
					</trkpt>
					<trkpt lat="47.847590" lon="6.661860">
						<ele>597</ele>
						<time>2023-01-17T22:24:39Z</time>
					</trkpt>
					<trkpt lat="47.847580" lon="6.661730">
						<ele>598</ele>
						<time>2023-01-17T22:24:41Z</time>
					</trkpt>
					<trkpt lat="47.847600" lon="6.661530">
						<ele>599</ele>
						<time>2023-01-17T22:24:43Z</time>
					</trkpt>
					<trkpt lat="47.847580" lon="6.661370">
						<ele>600</ele>
						<time>2023-01-17T22:24:45Z</time>
					</trkpt>
					<trkpt lat="47.847540" lon="6.661260">
						<ele>601</ele>
						<time>2023-01-17T22:24:46Z</time>
					</trkpt>
					<trkpt lat="47.847470" lon="6.661130">
						<ele>602</ele>
						<time>2023-01-17T22:24:48Z</time>
					</trkpt>
					<trkpt lat="47.847100" lon="6.660760">
						<ele>605</ele>
						<time>2023-01-17T22:24:56Z</time>
					</trkpt>
					<trkpt lat="47.846890" lon="6.660730">
						<ele>605</ele>
						<time>2023-01-17T22:25:00Z</time>
					</trkpt>
					<trkpt lat="47.846620" lon="6.660850">
						<ele>605</ele>
						<time>2023-01-17T22:25:05Z</time>
					</trkpt>
					<trkpt lat="47.846170" lon="6.660980">
						<ele>607</ele>
						<time>2023-01-17T22:25:13Z</time>
					</trkpt>
					<trkpt lat="47.845920" lon="6.660930">
						<ele>608</ele>
						<time>2023-01-17T22:25:18Z</time>
					</trkpt>
					<trkpt lat="47.845780" lon="6.660940">
						<ele>610</ele>
						<time>2023-01-17T22:25:20Z</time>
					</trkpt>
					<trkpt lat="47.845580" lon="6.661070">
						<ele>612</ele>
						<time>2023-01-17T22:25:24Z</time>
					</trkpt>
					<trkpt lat="47.845500" lon="6.661030">
						<ele>613</ele>
						<time>2023-01-17T22:25:26Z</time>
					</trkpt>
					<trkpt lat="47.845490" lon="6.660990">
						<ele>613</ele>
						<time>2023-01-17T22:25:26Z</time>
					</trkpt>
					<trkpt lat="47.845490" lon="6.660930">
						<ele>613</ele>
						<time>2023-01-17T22:25:27Z</time>
					</trkpt>
					<trkpt lat="47.845560" lon="6.660360">
						<ele>616</ele>
						<time>2023-01-17T22:25:34Z</time>
					</trkpt>
					<trkpt lat="47.845560" lon="6.660090">
						<ele>617</ele>
						<time>2023-01-17T22:25:37Z</time>
					</trkpt>
					<trkpt lat="47.845540" lon="6.659900">
						<ele>619</ele>
						<time>2023-01-17T22:25:39Z</time>
					</trkpt>
					<trkpt lat="47.845420" lon="6.659310">
						<ele>622</ele>
						<time>2023-01-17T22:25:47Z</time>
					</trkpt>
					<trkpt lat="47.845280" lon="6.658960">
						<ele>624</ele>
						<time>2023-01-17T22:25:51Z</time>
					</trkpt>
					<trkpt lat="47.844990" lon="6.658640">
						<ele>627</ele>
						<time>2023-01-17T22:25:58Z</time>
					</trkpt>
					<trkpt lat="47.844800" lon="6.658490">
						<ele>627</ele>
						<time>2023-01-17T22:26:02Z</time>
					</trkpt>
					<trkpt lat="47.844500" lon="6.659720">
						<ele>625</ele>
						<time>2023-01-17T22:26:17Z</time>
					</trkpt>
					<trkpt lat="47.844360" lon="6.659860">
						<ele>624</ele>
						<time>2023-01-17T22:26:20Z</time>
					</trkpt>
					<trkpt lat="47.844110" lon="6.659860">
						<ele>624</ele>
						<time>2023-01-17T22:26:25Z</time>
					</trkpt>
					<trkpt lat="47.843990" lon="6.659920">
						<ele>624</ele>
						<time>2023-01-17T22:26:27Z</time>
					</trkpt>
					<trkpt lat="47.843910" lon="6.660000">
						<ele>624</ele>
						<time>2023-01-17T22:26:29Z</time>
					</trkpt>
					<trkpt lat="47.843840" lon="6.660130">
						<ele>624</ele>
						<time>2023-01-17T22:26:31Z</time>
					</trkpt>
					<trkpt lat="47.843590" lon="6.660720">
						<ele>625</ele>
						<time>2023-01-17T22:26:39Z</time>
					</trkpt>
					<trkpt lat="47.843210" lon="6.661440">
						<ele>623</ele>
						<time>2023-01-17T22:26:50Z</time>
					</trkpt>
					<trkpt lat="47.842920" lon="6.661710">
						<ele>624</ele>
						<time>2023-01-17T22:26:56Z</time>
					</trkpt>
					<trkpt lat="47.842710" lon="6.661860">
						<ele>624</ele>
						<time>2023-01-17T22:27:00Z</time>
					</trkpt>
					<trkpt lat="47.842480" lon="6.662130">
						<ele>625</ele>
						<time>2023-01-17T22:27:05Z</time>
					</trkpt>
					<trkpt lat="47.841410" lon="6.662820">
						<ele>621</ele>
						<time>2023-01-17T22:27:26Z</time>
					</trkpt>
					<trkpt lat="47.841330" lon="6.662830">
						<ele>621</ele>
						<time>2023-01-17T22:27:28Z</time>
					</trkpt>
					<trkpt lat="47.840970" lon="6.662730">
						<ele>620</ele>
						<time>2023-01-17T22:27:34Z</time>
					</trkpt>
					<trkpt lat="47.840900" lon="6.662750">
						<ele>620</ele>
						<time>2023-01-17T22:27:35Z</time>
					</trkpt>
					<trkpt lat="47.840740" lon="6.662870">
						<ele>621</ele>
						<time>2023-01-17T22:27:39Z</time>
					</trkpt>
					<trkpt lat="47.840340" lon="6.662940">
						<ele>622</ele>
						<time>2023-01-17T22:27:46Z</time>
					</trkpt>
					<trkpt lat="47.840020" lon="6.663090">
						<ele>624</ele>
						<time>2023-01-17T22:27:52Z</time>
					</trkpt>
					<trkpt lat="47.839890" lon="6.663180">
						<ele>625</ele>
						<time>2023-01-17T22:27:54Z</time>
					</trkpt>
					<trkpt lat="47.839730" lon="6.663370">
						<ele>627</ele>
						<time>2023-01-17T22:27:58Z</time>
					</trkpt>
					<trkpt lat="47.839570" lon="6.663450">
						<ele>628</ele>
						<time>2023-01-17T22:28:01Z</time>
					</trkpt>
					<trkpt lat="47.839500" lon="6.663450">
						<ele>628</ele>
						<time>2023-01-17T22:28:02Z</time>
					</trkpt>
					<trkpt lat="47.839450" lon="6.663420">
						<ele>629</ele>
						<time>2023-01-17T22:28:03Z</time>
					</trkpt>
					<trkpt lat="47.839390" lon="6.663350">
						<ele>629</ele>
						<time>2023-01-17T22:28:04Z</time>
					</trkpt>
					<trkpt lat="47.839300" lon="6.663180">
						<ele>629</ele>
						<time>2023-01-17T22:28:07Z</time>
					</trkpt>
					<trkpt lat="47.839210" lon="6.663060">
						<ele>629</ele>
						<time>2023-01-17T22:28:09Z</time>
					</trkpt>
					<trkpt lat="47.839130" lon="6.663010">
						<ele>629</ele>
						<time>2023-01-17T22:28:11Z</time>
					</trkpt>
					<trkpt lat="47.839070" lon="6.663020">
						<ele>629</ele>
						<time>2023-01-17T22:28:12Z</time>
					</trkpt>
					<trkpt lat="47.839010" lon="6.663080">
						<ele>630</ele>
						<time>2023-01-17T22:28:13Z</time>
					</trkpt>
					<trkpt lat="47.838960" lon="6.663250">
						<ele>630</ele>
						<time>2023-01-17T22:28:15Z</time>
					</trkpt>
					<trkpt lat="47.838930" lon="6.663450">
						<ele>631</ele>
						<time>2023-01-17T22:28:18Z</time>
					</trkpt>
					<trkpt lat="47.838900" lon="6.663440">
						<ele>631</ele>
						<time>2023-01-17T22:28:18Z</time>
					</trkpt>
					<trkpt lat="47.838760" lon="6.663250">
						<ele>631</ele>
						<time>2023-01-17T22:28:22Z</time>
					</trkpt>
					<trkpt lat="47.838540" lon="6.662570">
						<ele>631</ele>
						<time>2023-01-17T22:28:31Z</time>
					</trkpt>
					<trkpt lat="47.838460" lon="6.662230">
						<ele>630</ele>
						<time>2023-01-17T22:28:35Z</time>
					</trkpt>
					<trkpt lat="47.838360" lon="6.662030">
						<ele>630</ele>
						<time>2023-01-17T22:28:38Z</time>
					</trkpt>
					<trkpt lat="47.838240" lon="6.661890">
						<ele>629</ele>
						<time>2023-01-17T22:28:41Z</time>
					</trkpt>
					<trkpt lat="47.837810" lon="6.661830">
						<ele>630</ele>
						<time>2023-01-17T22:28:48Z</time>
					</trkpt>
					<trkpt lat="47.837560" lon="6.661700">
						<ele>629</ele>
						<time>2023-01-17T22:28:53Z</time>
					</trkpt>
					<trkpt lat="47.837330" lon="6.661470">
						<ele>628</ele>
						<time>2023-01-17T22:28:58Z</time>
					</trkpt>
					<trkpt lat="47.837010" lon="6.661370">
						<ele>626</ele>
						<time>2023-01-17T22:29:04Z</time>
					</trkpt>
					<trkpt lat="47.836830" lon="6.661340">
						<ele>626</ele>
						<time>2023-01-17T22:29:07Z</time>
					</trkpt>
					<trkpt lat="47.836660" lon="6.661400">
						<ele>626</ele>
						<time>2023-01-17T22:29:10Z</time>
					</trkpt>
					<trkpt lat="47.836420" lon="6.661580">
						<ele>626</ele>
						<time>2023-01-17T22:29:15Z</time>
					</trkpt>
					<trkpt lat="47.836360" lon="6.661620">
						<ele>626</ele>
						<time>2023-01-17T22:29:16Z</time>
					</trkpt>
					<trkpt lat="47.836290" lon="6.661620">
						<ele>626</ele>
						<time>2023-01-17T22:29:17Z</time>
					</trkpt>
					<trkpt lat="47.835890" lon="6.661330">
						<ele>623</ele>
						<time>2023-01-17T22:29:25Z</time>
					</trkpt>
					<trkpt lat="47.835800" lon="6.661330">
						<ele>623</ele>
						<time>2023-01-17T22:29:27Z</time>
					</trkpt>
					<trkpt lat="47.835720" lon="6.661360">
						<ele>623</ele>
						<time>2023-01-17T22:29:28Z</time>
					</trkpt>
					<trkpt lat="47.835410" lon="6.661570">
						<ele>623</ele>
						<time>2023-01-17T22:29:34Z</time>
					</trkpt>
					<trkpt lat="47.835090" lon="6.661660">
						<ele>621</ele>
						<time>2023-01-17T22:29:40Z</time>
					</trkpt>
					<trkpt lat="47.834810" lon="6.661540">
						<ele>621</ele>
						<time>2023-01-17T22:29:45Z</time>
					</trkpt>
					<trkpt lat="47.834320" lon="6.661090">
						<ele>620</ele>
						<time>2023-01-17T22:29:56Z</time>
					</trkpt>
					<trkpt lat="47.834260" lon="6.661000">
						<ele>620</ele>
						<time>2023-01-17T22:29:57Z</time>
					</trkpt>
					<trkpt lat="47.833990" lon="6.660950">
						<ele>620</ele>
						<time>2023-01-17T22:30:02Z</time>
					</trkpt>
					<trkpt lat="47.833910" lon="6.660980">
						<ele>620</ele>
						<time>2023-01-17T22:30:03Z</time>
					</trkpt>
					<trkpt lat="47.833580" lon="6.661370">
						<ele>621</ele>
						<time>2023-01-17T22:30:11Z</time>
					</trkpt>
					<trkpt lat="47.833470" lon="6.661400">
						<ele>621</ele>
						<time>2023-01-17T22:30:13Z</time>
					</trkpt>
					<trkpt lat="47.833380" lon="6.661370">
						<ele>621</ele>
						<time>2023-01-17T22:30:15Z</time>
					</trkpt>
					<trkpt lat="47.833230" lon="6.661210">
						<ele>620</ele>
						<time>2023-01-17T22:30:18Z</time>
					</trkpt>
					<trkpt lat="47.833060" lon="6.661150">
						<ele>620</ele>
						<time>2023-01-17T22:30:21Z</time>
					</trkpt>
					<trkpt lat="47.832600" lon="6.661260">
						<ele>620</ele>
						<time>2023-01-17T22:30:29Z</time>
					</trkpt>
					<trkpt lat="47.832460" lon="6.661230">
						<ele>620</ele>
						<time>2023-01-17T22:30:32Z</time>
					</trkpt>
					<trkpt lat="47.832210" lon="6.660920">
						<ele>620</ele>
						<time>2023-01-17T22:30:38Z</time>
					</trkpt>
					<trkpt lat="47.832120" lon="6.660860">
						<ele>620</ele>
						<time>2023-01-17T22:30:39Z</time>
					</trkpt>
					<trkpt lat="47.832060" lon="6.660870">
						<ele>619</ele>
						<time>2023-01-17T22:30:40Z</time>
					</trkpt>
					<trkpt lat="47.831970" lon="6.660890">
						<ele>619</ele>
						<time>2023-01-17T22:30:42Z</time>
					</trkpt>
					<trkpt lat="47.831790" lon="6.661050">
						<ele>619</ele>
						<time>2023-01-17T22:30:46Z</time>
					</trkpt>
					<trkpt lat="47.831630" lon="6.661220">
						<ele>619</ele>
						<time>2023-01-17T22:30:49Z</time>
					</trkpt>
					<trkpt lat="47.831460" lon="6.661540">
						<ele>619</ele>
						<time>2023-01-17T22:30:54Z</time>
					</trkpt>
					<trkpt lat="47.831170" lon="6.661740">
						<ele>618</ele>
						<time>2023-01-17T22:31:00Z</time>
					</trkpt>
					<trkpt lat="47.831050" lon="6.661750">
						<ele>618</ele>
						<time>2023-01-17T22:31:02Z</time>
					</trkpt>
					<trkpt lat="47.830930" lon="6.661710">
						<ele>617</ele>
						<time>2023-01-17T22:31:04Z</time>
					</trkpt>
					<trkpt lat="47.830840" lon="6.661520">
						<ele>616</ele>
						<time>2023-01-17T22:31:07Z</time>
					</trkpt>
					<trkpt lat="47.830530" lon="6.659470">
						<ele>607</ele>
						<time>2023-01-17T22:31:32Z</time>
					</trkpt>
					<trkpt lat="47.830480" lon="6.659350">
						<ele>606</ele>
						<time>2023-01-17T22:31:34Z</time>
					</trkpt>
					<trkpt lat="47.830380" lon="6.659490">
						<ele>606</ele>
						<time>2023-01-17T22:31:36Z</time>
					</trkpt>
					<trkpt lat="47.830220" lon="6.659750">
						<ele>607</ele>
						<time>2023-01-17T22:31:40Z</time>
					</trkpt>
					<trkpt lat="47.830020" lon="6.660110">
						<ele>606</ele>
						<time>2023-01-17T22:31:46Z</time>
					</trkpt>
					<trkpt lat="47.829940" lon="6.660340">
						<ele>607</ele>
						<time>2023-01-17T22:31:49Z</time>
					</trkpt>
					<trkpt lat="47.829850" lon="6.660790">
						<ele>609</ele>
						<time>2023-01-17T22:31:55Z</time>
					</trkpt>
					<trkpt lat="47.829780" lon="6.661300">
						<ele>611</ele>
						<time>2023-01-17T22:32:01Z</time>
					</trkpt>
					<trkpt lat="47.829660" lon="6.661880">
						<ele>612</ele>
						<time>2023-01-17T22:32:08Z</time>
					</trkpt>
					<trkpt lat="47.829470" lon="6.662460">
						<ele>610</ele>
						<time>2023-01-17T22:32:16Z</time>
					</trkpt>
					<trkpt lat="47.829150" lon="6.663140">
						<ele>603</ele>
						<time>2023-01-17T22:32:26Z</time>
					</trkpt>
					<trkpt lat="47.828960" lon="6.663380">
						<ele>601</ele>
						<time>2023-01-17T22:32:30Z</time>
					</trkpt>
					<trkpt lat="47.828810" lon="6.663600">
						<ele>600</ele>
						<time>2023-01-17T22:32:34Z</time>
					</trkpt>
					<trkpt lat="47.828630" lon="6.663730">
						<ele>599</ele>
						<time>2023-01-17T22:32:37Z</time>
					</trkpt>
					<trkpt lat="47.828440" lon="6.663790">
						<ele>597</ele>
						<time>2023-01-17T22:32:41Z</time>
					</trkpt>
					<trkpt lat="47.828360" lon="6.663830">
						<ele>597</ele>
						<time>2023-01-17T22:32:42Z</time>
					</trkpt>
					<trkpt lat="47.828270" lon="6.663920">
						<ele>595</ele>
						<time>2023-01-17T22:32:44Z</time>
					</trkpt>
					<trkpt lat="47.828070" lon="6.664070">
						<ele>590</ele>
						<time>2023-01-17T22:32:48Z</time>
					</trkpt>
					<trkpt lat="47.827910" lon="6.664120">
						<ele>588</ele>
						<time>2023-01-17T22:32:51Z</time>
					</trkpt>
					<trkpt lat="47.827650" lon="6.664140">
						<ele>584</ele>
						<time>2023-01-17T22:32:56Z</time>
					</trkpt>
					<trkpt lat="47.827460" lon="6.664180">
						<ele>581</ele>
						<time>2023-01-17T22:32:59Z</time>
					</trkpt>
					<trkpt lat="47.827360" lon="6.664240">
						<ele>579</ele>
						<time>2023-01-17T22:33:01Z</time>
					</trkpt>
					<trkpt lat="47.827130" lon="6.664470">
						<ele>573</ele>
						<time>2023-01-17T22:33:06Z</time>
					</trkpt>
					<trkpt lat="47.827060" lon="6.664500">
						<ele>572</ele>
						<time>2023-01-17T22:33:07Z</time>
					</trkpt>
					<trkpt lat="47.826570" lon="6.664460">
						<ele>567</ele>
						<time>2023-01-17T22:33:16Z</time>
					</trkpt>
					<trkpt lat="47.826400" lon="6.664470">
						<ele>567</ele>
						<time>2023-01-17T22:33:19Z</time>
					</trkpt>
					<trkpt lat="47.825960" lon="6.664660">
						<ele>564</ele>
						<time>2023-01-17T22:33:27Z</time>
					</trkpt>
					<trkpt lat="47.825840" lon="6.664770">
						<ele>562</ele>
						<time>2023-01-17T22:33:30Z</time>
					</trkpt>
					<trkpt lat="47.825450" lon="6.665490">
						<ele>560</ele>
						<time>2023-01-17T22:33:41Z</time>
					</trkpt>
					<trkpt lat="47.824990" lon="6.666290">
						<ele>560</ele>
						<time>2023-01-17T22:33:54Z</time>
					</trkpt>
					<trkpt lat="47.824760" lon="6.666580">
						<ele>561</ele>
						<time>2023-01-17T22:33:59Z</time>
					</trkpt>
					<trkpt lat="47.824210" lon="6.667400">
						<ele>558</ele>
						<time>2023-01-17T22:34:13Z</time>
					</trkpt>
					<trkpt lat="47.824180" lon="6.667490">
						<ele>557</ele>
						<time>2023-01-17T22:34:14Z</time>
					</trkpt>
					<trkpt lat="47.824020" lon="6.668000">
						<ele>552</ele>
						<time>2023-01-17T22:34:21Z</time>
					</trkpt>
					<trkpt lat="47.823710" lon="6.668660">
						<ele>549</ele>
						<time>2023-01-17T22:34:30Z</time>
					</trkpt>
					<trkpt lat="47.823430" lon="6.668860">
						<ele>551</ele>
						<time>2023-01-17T22:34:36Z</time>
					</trkpt>
					<trkpt lat="47.823210" lon="6.668820">
						<ele>553</ele>
						<time>2023-01-17T22:34:40Z</time>
					</trkpt>
					<trkpt lat="47.822970" lon="6.668630">
						<ele>553</ele>
						<time>2023-01-17T22:34:45Z</time>
					</trkpt>
					<trkpt lat="47.822700" lon="6.668330">
						<ele>551</ele>
						<time>2023-01-17T22:34:51Z</time>
					</trkpt>
					<trkpt lat="47.822130" lon="6.667830">
						<ele>541</ele>
						<time>2023-01-17T22:35:02Z</time>
					</trkpt>
					<trkpt lat="47.822010" lon="6.667800">
						<ele>539</ele>
						<time>2023-01-17T22:35:04Z</time>
					</trkpt>
					<trkpt lat="47.821950" lon="6.667830">
						<ele>538</ele>
						<time>2023-01-17T22:35:06Z</time>
					</trkpt>
					<trkpt lat="47.821810" lon="6.668010">
						<ele>536</ele>
						<time>2023-01-17T22:35:09Z</time>
					</trkpt>
					<trkpt lat="47.821550" lon="6.668560">
						<ele>535</ele>
						<time>2023-01-17T22:35:17Z</time>
					</trkpt>
					<trkpt lat="47.821390" lon="6.668950">
						<ele>535</ele>
						<time>2023-01-17T22:35:22Z</time>
					</trkpt>
					<trkpt lat="47.821330" lon="6.669020">
						<ele>534</ele>
						<time>2023-01-17T22:35:24Z</time>
					</trkpt>
					<trkpt lat="47.821280" lon="6.669040">
						<ele>534</ele>
						<time>2023-01-17T22:35:25Z</time>
					</trkpt>
					<trkpt lat="47.821220" lon="6.668980">
						<ele>532</ele>
						<time>2023-01-17T22:35:26Z</time>
					</trkpt>
					<trkpt lat="47.821060" lon="6.668430">
						<ele>525</ele>
						<time>2023-01-17T22:35:33Z</time>
					</trkpt>
					<trkpt lat="47.821000" lon="6.668120">
						<ele>522</ele>
						<time>2023-01-17T22:35:37Z</time>
					</trkpt>
					<trkpt lat="47.821000" lon="6.667850">
						<ele>520</ele>
						<time>2023-01-17T22:35:40Z</time>
					</trkpt>
					<trkpt lat="47.820980" lon="6.667740">
						<ele>519</ele>
						<time>2023-01-17T22:35:42Z</time>
					</trkpt>
					<trkpt lat="47.820660" lon="6.667530">
						<ele>515</ele>
						<time>2023-01-17T22:35:48Z</time>
					</trkpt>
					<trkpt lat="47.820600" lon="6.667430">
						<ele>514</ele>
						<time>2023-01-17T22:35:49Z</time>
					</trkpt>
					<trkpt lat="47.820430" lon="6.666990">
						<ele>516</ele>
						<time>2023-01-17T22:35:55Z</time>
					</trkpt>
					<trkpt lat="47.820340" lon="6.666920">
						<ele>516</ele>
						<time>2023-01-17T22:35:57Z</time>
					</trkpt>
					<trkpt lat="47.819890" lon="6.666790">
						<ele>515</ele>
						<time>2023-01-17T22:36:05Z</time>
					</trkpt>
					<trkpt lat="47.819450" lon="6.666470">
						<ele>519</ele>
						<time>2023-01-17T22:36:14Z</time>
					</trkpt>
					<trkpt lat="47.819390" lon="6.666470">
						<ele>519</ele>
						<time>2023-01-17T22:36:15Z</time>
					</trkpt>
					<trkpt lat="47.819090" lon="6.666560">
						<ele>518</ele>
						<time>2023-01-17T22:36:21Z</time>
					</trkpt>
					<trkpt lat="47.818960" lon="6.666560">
						<ele>517</ele>
						<time>2023-01-17T22:36:23Z</time>
					</trkpt>
					<trkpt lat="47.818840" lon="6.666510">
						<ele>517</ele>
						<time>2023-01-17T22:36:25Z</time>
					</trkpt>
					<trkpt lat="47.818680" lon="6.666420">
						<ele>518</ele>
						<time>2023-01-17T22:36:28Z</time>
					</trkpt>
					<trkpt lat="47.818070" lon="6.665640">
						<ele>524</ele>
						<time>2023-01-17T22:36:43Z</time>
					</trkpt>
					<trkpt lat="47.817500" lon="6.665090">
						<ele>525</ele>
						<time>2023-01-17T22:36:55Z</time>
					</trkpt>
					<trkpt lat="47.817260" lon="6.664970">
						<ele>524</ele>
						<time>2023-01-17T22:36:59Z</time>
					</trkpt>
					<trkpt lat="47.816710" lon="6.664820">
						<ele>521</ele>
						<time>2023-01-17T22:37:09Z</time>
					</trkpt>
					<trkpt lat="47.816260" lon="6.664490">
						<ele>523</ele>
						<time>2023-01-17T22:37:18Z</time>
					</trkpt>
					<trkpt lat="47.816230" lon="6.664670">
						<ele>520</ele>
						<time>2023-01-17T22:37:20Z</time>
					</trkpt>
					<trkpt lat="47.815850" lon="6.665080">
						<ele>513</ele>
						<time>2023-01-17T22:37:29Z</time>
					</trkpt>
					<trkpt lat="47.815750" lon="6.665300">
						<ele>512</ele>
						<time>2023-01-17T22:37:32Z</time>
					</trkpt>
					<trkpt lat="47.815690" lon="6.665580">
						<ele>510</ele>
						<time>2023-01-17T22:37:35Z</time>
					</trkpt>
					<trkpt lat="47.815650" lon="6.665890">
						<ele>508</ele>
						<time>2023-01-17T22:37:39Z</time>
					</trkpt>
					<trkpt lat="47.815650" lon="6.666030">
						<ele>506</ele>
						<time>2023-01-17T22:37:41Z</time>
					</trkpt>
					<trkpt lat="47.815750" lon="6.666380">
						<ele>500</ele>
						<time>2023-01-17T22:37:45Z</time>
					</trkpt>
					<trkpt lat="47.815900" lon="6.666720">
						<ele>493</ele>
						<time>2023-01-17T22:37:50Z</time>
					</trkpt>
					<trkpt lat="47.815950" lon="6.667010">
						<ele>490</ele>
						<time>2023-01-17T22:37:54Z</time>
					</trkpt>
					<trkpt lat="47.815930" lon="6.667210">
						<ele>487</ele>
						<time>2023-01-17T22:37:56Z</time>
					</trkpt>
					<trkpt lat="47.815890" lon="6.667380">
						<ele>485</ele>
						<time>2023-01-17T22:37:58Z</time>
					</trkpt>
					<trkpt lat="47.815690" lon="6.667940">
						<ele>479</ele>
						<time>2023-01-17T22:38:06Z</time>
					</trkpt>
					<trkpt lat="47.815590" lon="6.668510">
						<ele>470</ele>
						<time>2023-01-17T22:38:13Z</time>
					</trkpt>
					<trkpt lat="47.815340" lon="6.669030">
						<ele>461</ele>
						<time>2023-01-17T22:38:20Z</time>
					</trkpt>
					<trkpt lat="47.815160" lon="6.669380">
						<ele>456</ele>
						<time>2023-01-17T22:38:26Z</time>
					</trkpt>
					<trkpt lat="47.814970" lon="6.669890">
						<ele>450</ele>
						<time>2023-01-17T22:38:33Z</time>
					</trkpt>
					<trkpt lat="47.814890" lon="6.670230">
						<ele>447</ele>
						<time>2023-01-17T22:38:37Z</time>
					</trkpt>
					<trkpt lat="47.814540" lon="6.670800">
						<ele>447</ele>
						<time>2023-01-17T22:38:46Z</time>
					</trkpt>
					<trkpt lat="47.814080" lon="6.671950">
						<ele>438</ele>
						<time>2023-01-17T22:39:02Z</time>
					</trkpt>
					<trkpt lat="47.813740" lon="6.672520">
						<ele>434</ele>
						<time>2023-01-17T22:39:11Z</time>
					</trkpt>
					<trkpt lat="47.813490" lon="6.672850">
						<ele>431</ele>
						<time>2023-01-17T22:39:17Z</time>
					</trkpt>
					<trkpt lat="47.813420" lon="6.672930">
						<ele>430</ele>
						<time>2023-01-17T22:39:19Z</time>
					</trkpt>
					<trkpt lat="47.813020" lon="6.673270">
						<ele>425</ele>
						<time>2023-01-17T22:39:27Z</time>
					</trkpt>
					<trkpt lat="47.812890" lon="6.673450">
						<ele>422</ele>
						<time>2023-01-17T22:39:30Z</time>
					</trkpt>
					<trkpt lat="47.812490" lon="6.674140">
						<ele>415</ele>
						<time>2023-01-17T22:39:41Z</time>
					</trkpt>
					<trkpt lat="47.812410" lon="6.674270">
						<ele>415</ele>
						<time>2023-01-17T22:39:43Z</time>
					</trkpt>
					<trkpt lat="47.812300" lon="6.674530">
						<ele>413</ele>
						<time>2023-01-17T22:39:47Z</time>
					</trkpt>
					<trkpt lat="47.812080" lon="6.675220">
						<ele>409</ele>
						<time>2023-01-17T22:39:56Z</time>
					</trkpt>
					<trkpt lat="47.811980" lon="6.675700">
						<ele>407</ele>
						<time>2023-01-17T22:40:02Z</time>
					</trkpt>
					<trkpt lat="47.811870" lon="6.676390">
						<ele>406</ele>
						<time>2023-01-17T22:40:11Z</time>
					</trkpt>
					<trkpt lat="47.811750" lon="6.676800">
						<ele>405</ele>
						<time>2023-01-17T22:40:16Z</time>
					</trkpt>
					<trkpt lat="47.811750" lon="6.676870">
						<ele>405</ele>
						<time>2023-01-17T22:40:17Z</time>
					</trkpt>
					<trkpt lat="47.811770" lon="6.676920">
						<ele>405</ele>
						<time>2023-01-17T22:40:17Z</time>
					</trkpt>
					<trkpt lat="47.811810" lon="6.677030">
						<ele>405</ele>
						<time>2023-01-17T22:40:19Z</time>
					</trkpt>
					<trkpt lat="47.812300" lon="6.678200">
						<ele>407</ele>
						<time>2023-01-17T22:40:35Z</time>
					</trkpt>
					<trkpt lat="47.812270" lon="6.678240">
						<ele>407</ele>
						<time>2023-01-17T22:40:36Z</time>
					</trkpt>
					<trkpt lat="47.812140" lon="6.678740">
						<ele>406</ele>
						<time>2023-01-17T22:40:42Z</time>
					</trkpt>
					<trkpt lat="47.812150" lon="6.678880">
						<ele>406</ele>
						<time>2023-01-17T22:40:44Z</time>
					</trkpt>
					<trkpt lat="47.812620" lon="6.679970">
						<ele>408</ele>
						<time>2023-01-17T22:41:00Z</time>
					</trkpt>
					<trkpt lat="47.812420" lon="6.680150">
						<ele>406</ele>
						<time>2023-01-17T22:41:04Z</time>
					</trkpt>
					<trkpt lat="47.812330" lon="6.680290">
						<ele>405</ele>
						<time>2023-01-17T22:41:06Z</time>
					</trkpt>
					<trkpt lat="47.812310" lon="6.680440">
						<ele>405</ele>
						<time>2023-01-17T22:41:08Z</time>
					</trkpt>
					<trkpt lat="47.812340" lon="6.680830">
						<ele>406</ele>
						<time>2023-01-17T22:41:13Z</time>
					</trkpt>
					<trkpt lat="47.812480" lon="6.680850">
						<ele>406</ele>
						<time>2023-01-17T22:41:15Z</time>
					</trkpt>
					<trkpt lat="47.812680" lon="6.680920">
						<ele>407</ele>
						<time>2023-01-17T22:41:19Z</time>
					</trkpt>
					<trkpt lat="47.812800" lon="6.680990">
						<ele>408</ele>
						<time>2023-01-17T22:41:21Z</time>
					</trkpt>
					<trkpt lat="47.814120" lon="6.682100">
						<ele>413</ele>
						<time>2023-01-17T22:41:48Z</time>
					</trkpt>
					<trkpt lat="47.814810" lon="6.682570">
						<ele>414</ele>
						<time>2023-01-17T22:42:02Z</time>
					</trkpt>
					<trkpt lat="47.815750" lon="6.682890">
						<ele>417</ele>
						<time>2023-01-17T22:42:19Z</time>
					</trkpt>
					<trkpt lat="47.815970" lon="6.683050">
						<ele>418</ele>
						<time>2023-01-17T22:42:23Z</time>
					</trkpt>
					<trkpt lat="47.816110" lon="6.683210">
						<ele>418</ele>
						<time>2023-01-17T22:42:26Z</time>
					</trkpt>
					<trkpt lat="47.816450" lon="6.683740">
						<ele>415</ele>
						<time>2023-01-17T22:42:35Z</time>
					</trkpt>
					<trkpt lat="47.816650" lon="6.683920">
						<ele>414</ele>
						<time>2023-01-17T22:42:39Z</time>
					</trkpt>
					<trkpt lat="47.816830" lon="6.684050">
						<ele>414</ele>
						<time>2023-01-17T22:42:43Z</time>
					</trkpt>
					<trkpt lat="47.817870" lon="6.684600">
						<ele>417</ele>
						<time>2023-01-17T22:43:02Z</time>
					</trkpt>
					<trkpt lat="47.818030" lon="6.684700">
						<ele>417</ele>
						<time>2023-01-17T22:43:05Z</time>
					</trkpt>
					<trkpt lat="47.818600" lon="6.685410">
						<ele>413</ele>
						<time>2023-01-17T22:43:19Z</time>
					</trkpt>
					<trkpt lat="47.820040" lon="6.687550">
						<ele>416</ele>
						<time>2023-01-17T22:43:55Z</time>
					</trkpt>
					<trkpt lat="47.820240" lon="6.687900">
						<ele>420</ele>
						<time>2023-01-17T22:44:00Z</time>
					</trkpt>
					<trkpt lat="47.820360" lon="6.688220">
						<ele>422</ele>
						<time>2023-01-17T22:44:05Z</time>
					</trkpt>
					<trkpt lat="47.820510" lon="6.688780">
						<ele>421</ele>
						<time>2023-01-17T22:44:12Z</time>
					</trkpt>
					<trkpt lat="47.821050" lon="6.691150">
						<ele>413</ele>
						<time>2023-01-17T22:44:42Z</time>
					</trkpt>
					<trkpt lat="47.822040" lon="6.695370">
						<ele>415</ele>
						<time>2023-01-17T22:45:35Z</time>
					</trkpt>
					<trkpt lat="47.822180" lon="6.695770">
						<ele>415</ele>
						<time>2023-01-17T22:45:41Z</time>
					</trkpt>
					<trkpt lat="47.822330" lon="6.696110">
						<ele>415</ele>
						<time>2023-01-17T22:45:45Z</time>
					</trkpt>
					<trkpt lat="47.823670" lon="6.698500">
						<ele>424</ele>
						<time>2023-01-17T22:46:23Z</time>
					</trkpt>
					<trkpt lat="47.824030" lon="6.699130">
						<ele>425</ele>
						<time>2023-01-17T22:46:33Z</time>
					</trkpt>
					<trkpt lat="47.824590" lon="6.700080">
						<ele>424</ele>
						<time>2023-01-17T22:46:48Z</time>
					</trkpt>
					<trkpt lat="47.824780" lon="6.700320">
						<ele>424</ele>
						<time>2023-01-17T22:46:52Z</time>
					</trkpt>
					<trkpt lat="47.825260" lon="6.700880">
						<ele>428</ele>
						<time>2023-01-17T22:47:03Z</time>
					</trkpt>
					<trkpt lat="47.825580" lon="6.701310">
						<ele>432</ele>
						<time>2023-01-17T22:47:11Z</time>
					</trkpt>
					<trkpt lat="47.825740" lon="6.701600">
						<ele>431</ele>
						<time>2023-01-17T22:47:15Z</time>
					</trkpt>
					<trkpt lat="47.825940" lon="6.702080">
						<ele>430</ele>
						<time>2023-01-17T22:47:22Z</time>
					</trkpt>
					<trkpt lat="47.826350" lon="6.703130">
						<ele>429</ele>
						<time>2023-01-17T22:47:36Z</time>
					</trkpt>
					<trkpt lat="47.826460" lon="6.703360">
						<ele>428</ele>
						<time>2023-01-17T22:47:40Z</time>
					</trkpt>
					<trkpt lat="47.826670" lon="6.703710">
						<ele>428</ele>
						<time>2023-01-17T22:47:45Z</time>
					</trkpt>
					<trkpt lat="47.826870" lon="6.703930">
						<ele>430</ele>
						<time>2023-01-17T22:47:50Z</time>
					</trkpt>
					<trkpt lat="47.826990" lon="6.704040">
						<ele>431</ele>
						<time>2023-01-17T22:47:52Z</time>
					</trkpt>
					<trkpt lat="47.827720" lon="6.704620">
						<ele>433</ele>
						<time>2023-01-17T22:48:07Z</time>
					</trkpt>
					<trkpt lat="47.828290" lon="6.705100">
						<ele>434</ele>
						<time>2023-01-17T22:48:19Z</time>
					</trkpt>
					<trkpt lat="47.828560" lon="6.705380">
						<ele>436</ele>
						<time>2023-01-17T22:48:24Z</time>
					</trkpt>
					<trkpt lat="47.829170" lon="6.706130">
						<ele>434</ele>
						<time>2023-01-17T22:48:39Z</time>
					</trkpt>
					<trkpt lat="47.829370" lon="6.706340">
						<ele>434</ele>
						<time>2023-01-17T22:48:43Z</time>
					</trkpt>
					<trkpt lat="47.829510" lon="6.706460">
						<ele>434</ele>
						<time>2023-01-17T22:48:46Z</time>
					</trkpt>
					<trkpt lat="47.829950" lon="6.706770">
						<ele>433</ele>
						<time>2023-01-17T22:48:54Z</time>
					</trkpt>
					<trkpt lat="47.830240" lon="6.707050">
						<ele>437</ele>
						<time>2023-01-17T22:49:01Z</time>
					</trkpt>
					<trkpt lat="47.830330" lon="6.707190">
						<ele>438</ele>
						<time>2023-01-17T22:49:03Z</time>
					</trkpt>
					<trkpt lat="47.830730" lon="6.708030">
						<ele>438</ele>
						<time>2023-01-17T22:49:15Z</time>
					</trkpt>
					<trkpt lat="47.830870" lon="6.708240">
						<ele>439</ele>
						<time>2023-01-17T22:49:19Z</time>
					</trkpt>
					<trkpt lat="47.831020" lon="6.708430">
						<ele>442</ele>
						<time>2023-01-17T22:49:22Z</time>
					</trkpt>
					<trkpt lat="47.831350" lon="6.708730">
						<ele>447</ele>
						<time>2023-01-17T22:49:29Z</time>
					</trkpt>
					<trkpt lat="47.831520" lon="6.708910">
						<ele>449</ele>
						<time>2023-01-17T22:49:33Z</time>
					</trkpt>
					<trkpt lat="47.831800" lon="6.709280">
						<ele>450</ele>
						<time>2023-01-17T22:49:39Z</time>
					</trkpt>
					<trkpt lat="47.832120" lon="6.709800">
						<ele>450</ele>
						<time>2023-01-17T22:49:48Z</time>
					</trkpt>
					<trkpt lat="47.832260" lon="6.709960">
						<ele>450</ele>
						<time>2023-01-17T22:49:51Z</time>
					</trkpt>
					<trkpt lat="47.833420" lon="6.711020">
						<ele>457</ele>
						<time>2023-01-17T22:50:15Z</time>
					</trkpt>
					<trkpt lat="47.833630" lon="6.711160">
						<ele>460</ele>
						<time>2023-01-17T22:50:19Z</time>
					</trkpt>
					<trkpt lat="47.833910" lon="6.711300">
						<ele>465</ele>
						<time>2023-01-17T22:50:25Z</time>
					</trkpt>
					<trkpt lat="47.834080" lon="6.711420">
						<ele>465</ele>
						<time>2023-01-17T22:50:28Z</time>
					</trkpt>
					<trkpt lat="47.834250" lon="6.711620">
						<ele>463</ele>
						<time>2023-01-17T22:50:32Z</time>
					</trkpt>
					<trkpt lat="47.834490" lon="6.711970">
						<ele>461</ele>
						<time>2023-01-17T22:50:38Z</time>
					</trkpt>
					<trkpt lat="47.834860" lon="6.712370">
						<ele>463</ele>
						<time>2023-01-17T22:50:46Z</time>
					</trkpt>
					<trkpt lat="47.835370" lon="6.712810">
						<ele>468</ele>
						<time>2023-01-17T22:50:56Z</time>
					</trkpt>
					<trkpt lat="47.835690" lon="6.713160">
						<ele>471</ele>
						<time>2023-01-17T22:51:03Z</time>
					</trkpt>
					<trkpt lat="47.835960" lon="6.713400">
						<ele>474</ele>
						<time>2023-01-17T22:51:09Z</time>
					</trkpt>
					<trkpt lat="47.836650" lon="6.713940">
						<ele>479</ele>
						<time>2023-01-17T22:51:23Z</time>
					</trkpt>
					<trkpt lat="47.837010" lon="6.714250">
						<ele>482</ele>
						<time>2023-01-17T22:51:30Z</time>
					</trkpt>
					<trkpt lat="47.837690" lon="6.714930">
						<ele>488</ele>
						<time>2023-01-17T22:51:45Z</time>
					</trkpt>
					<trkpt lat="47.837960" lon="6.715230">
						<ele>491</ele>
						<time>2023-01-17T22:51:51Z</time>
					</trkpt>
					<trkpt lat="47.838020" lon="6.715330">
						<ele>491</ele>
						<time>2023-01-17T22:51:53Z</time>
					</trkpt>
					<trkpt lat="47.838290" lon="6.715910">
						<ele>487</ele>
						<time>2023-01-17T22:52:01Z</time>
					</trkpt>
					<trkpt lat="47.838400" lon="6.716110">
						<ele>487</ele>
						<time>2023-01-17T22:52:04Z</time>
					</trkpt>
					<trkpt lat="47.838650" lon="6.716470">
						<ele>487</ele>
						<time>2023-01-17T22:52:10Z</time>
					</trkpt>
					<trkpt lat="47.838840" lon="6.716700">
						<ele>487</ele>
						<time>2023-01-17T22:52:15Z</time>
					</trkpt>
					<trkpt lat="47.839010" lon="6.716830">
						<ele>489</ele>
						<time>2023-01-17T22:52:18Z</time>
					</trkpt>
					<trkpt lat="47.839690" lon="6.717210">
						<ele>497</ele>
						<time>2023-01-17T22:52:31Z</time>
					</trkpt>
					<trkpt lat="47.840070" lon="6.717510">
						<ele>497</ele>
						<time>2023-01-17T22:52:39Z</time>
					</trkpt>
					<trkpt lat="47.840480" lon="6.717770">
						<ele>502</ele>
						<time>2023-01-17T22:52:46Z</time>
					</trkpt>
					<trkpt lat="47.840930" lon="6.718000">
						<ele>506</ele>
						<time>2023-01-17T22:52:55Z</time>
					</trkpt>
					<trkpt lat="47.841940" lon="6.718200">
						<ele>513</ele>
						<time>2023-01-17T22:53:13Z</time>
					</trkpt>
					<trkpt lat="47.842020" lon="6.718230">
						<ele>514</ele>
						<time>2023-01-17T22:53:15Z</time>
					</trkpt>
					<trkpt lat="47.842170" lon="6.718340">
						<ele>515</ele>
						<time>2023-01-17T22:53:18Z</time>
					</trkpt>
					<trkpt lat="47.843120" lon="6.719500">
						<ele>517</ele>
						<time>2023-01-17T22:53:39Z</time>
					</trkpt>
					<trkpt lat="47.843290" lon="6.719680">
						<ele>517</ele>
						<time>2023-01-17T22:53:43Z</time>
					</trkpt>
					<trkpt lat="47.844260" lon="6.720540">
						<ele>524</ele>
						<time>2023-01-17T22:54:03Z</time>
					</trkpt>
					<trkpt lat="47.844590" lon="6.720750">
						<ele>527</ele>
						<time>2023-01-17T22:54:10Z</time>
					</trkpt>
					<trkpt lat="47.846020" lon="6.721550">
						<ele>542</ele>
						<time>2023-01-17T22:54:37Z</time>
					</trkpt>
					<trkpt lat="47.846220" lon="6.721690">
						<ele>545</ele>
						<time>2023-01-17T22:54:41Z</time>
					</trkpt>
					<trkpt lat="47.846590" lon="6.722090">
						<ele>545</ele>
						<time>2023-01-17T22:54:49Z</time>
					</trkpt>
					<trkpt lat="47.846720" lon="6.722300">
						<ele>545</ele>
						<time>2023-01-17T22:54:52Z</time>
					</trkpt>
					<trkpt lat="47.847270" lon="6.722950">
						<ele>549</ele>
						<time>2023-01-17T22:55:05Z</time>
					</trkpt>
					<trkpt lat="47.847590" lon="6.723280">
						<ele>551</ele>
						<time>2023-01-17T22:55:12Z</time>
					</trkpt>
					<trkpt lat="47.848300" lon="6.723750">
						<ele>559</ele>
						<time>2023-01-17T22:55:25Z</time>
					</trkpt>
					<trkpt lat="47.848830" lon="6.724290">
						<ele>562</ele>
						<time>2023-01-17T22:55:37Z</time>
					</trkpt>
					<trkpt lat="47.849020" lon="6.724520">
						<ele>565</ele>
						<time>2023-01-17T22:55:41Z</time>
					</trkpt>
					<trkpt lat="47.849070" lon="6.724610">
						<ele>566</ele>
						<time>2023-01-17T22:55:43Z</time>
					</trkpt>
					<trkpt lat="47.849150" lon="6.724920">
						<ele>564</ele>
						<time>2023-01-17T22:55:47Z</time>
					</trkpt>
					<trkpt lat="47.849160" lon="6.725110">
						<ele>563</ele>
						<time>2023-01-17T22:55:49Z</time>
					</trkpt>
					<trkpt lat="47.849100" lon="6.725350">
						<ele>563</ele>
						<time>2023-01-17T22:55:52Z</time>
					</trkpt>
					<trkpt lat="47.848940" lon="6.725740">
						<ele>560</ele>
						<time>2023-01-17T22:55:57Z</time>
					</trkpt>
					<trkpt lat="47.848910" lon="6.725930">
						<ele>560</ele>
						<time>2023-01-17T22:56:00Z</time>
					</trkpt>
					<trkpt lat="47.848900" lon="6.726120">
						<ele>560</ele>
						<time>2023-01-17T22:56:02Z</time>
					</trkpt>
					<trkpt lat="47.848920" lon="6.726460">
						<ele>562</ele>
						<time>2023-01-17T22:56:06Z</time>
					</trkpt>
					<trkpt lat="47.849000" lon="6.727000">
						<ele>564</ele>
						<time>2023-01-17T22:56:13Z</time>
					</trkpt>
					<trkpt lat="47.849090" lon="6.727300">
						<ele>567</ele>
						<time>2023-01-17T22:56:17Z</time>
					</trkpt>
					<trkpt lat="47.849210" lon="6.727570">
						<ele>569</ele>
						<time>2023-01-17T22:56:20Z</time>
					</trkpt>
					<trkpt lat="47.849310" lon="6.727720">
						<ele>569</ele>
						<time>2023-01-17T22:56:23Z</time>
					</trkpt>
					<trkpt lat="47.849470" lon="6.727860">
						<ele>569</ele>
						<time>2023-01-17T22:56:26Z</time>
					</trkpt>
					<trkpt lat="47.850380" lon="6.728490">
						<ele>572</ele>
						<time>2023-01-17T22:56:44Z</time>
					</trkpt>
					<trkpt lat="47.851180" lon="6.728910">
						<ele>571</ele>
						<time>2023-01-17T22:56:59Z</time>
					</trkpt>
					<trkpt lat="47.851300" lon="6.728960">
						<ele>572</ele>
						<time>2023-01-17T22:57:01Z</time>
					</trkpt>
					<trkpt lat="47.851480" lon="6.729000">
						<ele>573</ele>
						<time>2023-01-17T22:57:05Z</time>
					</trkpt>
					<trkpt lat="47.852110" lon="6.728990">
						<ele>581</ele>
						<time>2023-01-17T22:57:16Z</time>
					</trkpt>
					<trkpt lat="47.852370" lon="6.729030">
						<ele>584</ele>
						<time>2023-01-17T22:57:21Z</time>
					</trkpt>
					<trkpt lat="47.852600" lon="6.729140">
						<ele>587</ele>
						<time>2023-01-17T22:57:25Z</time>
					</trkpt>
					<trkpt lat="47.852780" lon="6.729300">
						<ele>589</ele>
						<time>2023-01-17T22:57:29Z</time>
					</trkpt>
					<trkpt lat="47.852880" lon="6.729400">
						<ele>590</ele>
						<time>2023-01-17T22:57:31Z</time>
					</trkpt>
					<trkpt lat="47.853080" lon="6.729680">
						<ele>591</ele>
						<time>2023-01-17T22:57:36Z</time>
					</trkpt>
					<trkpt lat="47.853320" lon="6.730050">
						<ele>590</ele>
						<time>2023-01-17T22:57:42Z</time>
					</trkpt>
					<trkpt lat="47.853490" lon="6.730400">
						<ele>592</ele>
						<time>2023-01-17T22:57:47Z</time>
					</trkpt>
					<trkpt lat="47.853570" lon="6.730710">
						<ele>591</ele>
						<time>2023-01-17T22:57:51Z</time>
					</trkpt>
					<trkpt lat="47.853610" lon="6.731200">
						<ele>591</ele>
						<time>2023-01-17T22:57:57Z</time>
					</trkpt>
					<trkpt lat="47.853730" lon="6.731740">
						<ele>594</ele>
						<time>2023-01-17T22:58:04Z</time>
					</trkpt>
					<trkpt lat="47.853840" lon="6.732020">
						<ele>596</ele>
						<time>2023-01-17T22:58:07Z</time>
					</trkpt>
					<trkpt lat="47.854460" lon="6.733360">
						<ele>602</ele>
						<time>2023-01-17T22:58:27Z</time>
					</trkpt>
					<trkpt lat="47.854550" lon="6.733530">
						<ele>602</ele>
						<time>2023-01-17T22:58:29Z</time>
					</trkpt>
					<trkpt lat="47.854730" lon="6.733750">
						<ele>604</ele>
						<time>2023-01-17T22:58:34Z</time>
					</trkpt>
					<trkpt lat="47.855550" lon="6.734520">
						<ele>607</ele>
						<time>2023-01-17T22:58:51Z</time>
					</trkpt>
					<trkpt lat="47.855690" lon="6.734620">
						<ele>607</ele>
						<time>2023-01-17T22:58:54Z</time>
					</trkpt>
					<trkpt lat="47.855920" lon="6.734720">
						<ele>609</ele>
						<time>2023-01-17T22:58:58Z</time>
					</trkpt>
					<trkpt lat="47.856410" lon="6.734750">
						<ele>616</ele>
						<time>2023-01-17T22:59:07Z</time>
					</trkpt>
					<trkpt lat="47.856680" lon="6.734820">
						<ele>618</ele>
						<time>2023-01-17T22:59:11Z</time>
					</trkpt>
					<trkpt lat="47.857310" lon="6.735190">
						<ele>626</ele>
						<time>2023-01-17T22:59:23Z</time>
					</trkpt>
					<trkpt lat="47.857650" lon="6.735440">
						<ele>630</ele>
						<time>2023-01-17T22:59:30Z</time>
					</trkpt>
					<trkpt lat="47.858210" lon="6.735980">
						<ele>635</ele>
						<time>2023-01-17T22:59:42Z</time>
					</trkpt>
					<trkpt lat="47.858320" lon="6.736120">
						<ele>635</ele>
						<time>2023-01-17T22:59:45Z</time>
					</trkpt>
					<trkpt lat="47.858360" lon="6.736230">
						<ele>635</ele>
						<time>2023-01-17T22:59:46Z</time>
					</trkpt>
					<trkpt lat="47.858420" lon="6.736450">
						<ele>634</ele>
						<time>2023-01-17T22:59:49Z</time>
					</trkpt>
					<trkpt lat="47.858430" lon="6.736560">
						<ele>632</ele>
						<time>2023-01-17T22:59:50Z</time>
					</trkpt>
					<trkpt lat="47.858420" lon="6.736750">
						<ele>631</ele>
						<time>2023-01-17T22:59:53Z</time>
					</trkpt>
					<trkpt lat="47.858390" lon="6.736880">
						<ele>631</ele>
						<time>2023-01-17T22:59:54Z</time>
					</trkpt>
					<trkpt lat="47.858300" lon="6.737080">
						<ele>630</ele>
						<time>2023-01-17T22:59:57Z</time>
					</trkpt>
					<trkpt lat="47.858160" lon="6.737240">
						<ele>630</ele>
						<time>2023-01-17T23:00:00Z</time>
					</trkpt>
					<trkpt lat="47.858030" lon="6.737320">
						<ele>630</ele>
						<time>2023-01-17T23:00:03Z</time>
					</trkpt>
					<trkpt lat="47.857950" lon="6.737330">
						<ele>630</ele>
						<time>2023-01-17T23:00:04Z</time>
					</trkpt>
					<trkpt lat="47.857030" lon="6.737280">
						<ele>628</ele>
						<time>2023-01-17T23:00:21Z</time>
					</trkpt>
					<trkpt lat="47.856850" lon="6.737310">
						<ele>629</ele>
						<time>2023-01-17T23:00:24Z</time>
					</trkpt>
					<trkpt lat="47.856650" lon="6.737400">
						<ele>631</ele>
						<time>2023-01-17T23:00:28Z</time>
					</trkpt>
					<trkpt lat="47.856420" lon="6.737600">
						<ele>629</ele>
						<time>2023-01-17T23:00:32Z</time>
					</trkpt>
					<trkpt lat="47.856300" lon="6.737800">
						<ele>629</ele>
						<time>2023-01-17T23:00:35Z</time>
					</trkpt>
					<trkpt lat="47.856220" lon="6.738010">
						<ele>631</ele>
						<time>2023-01-17T23:00:38Z</time>
					</trkpt>
					<trkpt lat="47.856160" lon="6.738250">
						<ele>633</ele>
						<time>2023-01-17T23:00:41Z</time>
					</trkpt>
					<trkpt lat="47.856140" lon="6.738450">
						<ele>635</ele>
						<time>2023-01-17T23:00:44Z</time>
					</trkpt>
					<trkpt lat="47.856130" lon="6.739430">
						<ele>643</ele>
						<time>2023-01-17T23:00:56Z</time>
					</trkpt>
					<trkpt lat="47.856160" lon="6.740110">
						<ele>647</ele>
						<time>2023-01-17T23:01:04Z</time>
					</trkpt>
					<trkpt lat="47.856270" lon="6.740720">
						<ele>651</ele>
						<time>2023-01-17T23:01:11Z</time>
					</trkpt>
					<trkpt lat="47.856290" lon="6.741030">
						<ele>651</ele>
						<time>2023-01-17T23:01:15Z</time>
					</trkpt>
					<trkpt lat="47.856350" lon="6.742200">
						<ele>653</ele>
						<time>2023-01-17T23:01:29Z</time>
					</trkpt>
					<trkpt lat="47.856420" lon="6.742690">
						<ele>655</ele>
						<time>2023-01-17T23:01:35Z</time>
					</trkpt>
					<trkpt lat="47.856520" lon="6.743040">
						<ele>658</ele>
						<time>2023-01-17T23:01:39Z</time>
					</trkpt>
					<trkpt lat="47.856640" lon="6.743330">
						<ele>663</ele>
						<time>2023-01-17T23:01:44Z</time>
					</trkpt>
					<trkpt lat="47.857330" lon="6.744950">
						<ele>664</ele>
						<time>2023-01-17T23:02:06Z</time>
					</trkpt>
					<trkpt lat="47.857640" lon="6.745530">
						<ele>666</ele>
						<time>2023-01-17T23:02:15Z</time>
					</trkpt>
					<trkpt lat="47.857720" lon="6.745640">
						<ele>666</ele>
						<time>2023-01-17T23:02:17Z</time>
					</trkpt>
					<trkpt lat="47.857790" lon="6.745710">
						<ele>667</ele>
						<time>2023-01-17T23:02:19Z</time>
					</trkpt>
					<trkpt lat="47.858450" lon="6.746160">
						<ele>682</ele>
						<time>2023-01-17T23:02:32Z</time>
					</trkpt>
					<trkpt lat="47.859460" lon="6.746960">
						<ele>687</ele>
						<time>2023-01-17T23:02:52Z</time>
					</trkpt>
					<trkpt lat="47.859660" lon="6.747050">
						<ele>687</ele>
						<time>2023-01-17T23:02:56Z</time>
					</trkpt>
					<trkpt lat="47.859930" lon="6.747080">
						<ele>687</ele>
						<time>2023-01-17T23:03:01Z</time>
					</trkpt>
					<trkpt lat="47.860350" lon="6.747030">
						<ele>685</ele>
						<time>2023-01-17T23:03:08Z</time>
					</trkpt>
					<trkpt lat="47.860590" lon="6.746970">
						<ele>684</ele>
						<time>2023-01-17T23:03:12Z</time>
					</trkpt>
					<trkpt lat="47.860730" lon="6.746910">
						<ele>685</ele>
						<time>2023-01-17T23:03:15Z</time>
					</trkpt>
					<trkpt lat="47.860830" lon="6.746850">
						<ele>686</ele>
						<time>2023-01-17T23:03:17Z</time>
					</trkpt>
					<trkpt lat="47.860970" lon="6.746720">
						<ele>684</ele>
						<time>2023-01-17T23:03:20Z</time>
					</trkpt>
					<trkpt lat="47.861090" lon="6.746520">
						<ele>683</ele>
						<time>2023-01-17T23:03:23Z</time>
					</trkpt>
					<trkpt lat="47.861540" lon="6.745570">
						<ele>675</ele>
						<time>2023-01-17T23:03:37Z</time>
					</trkpt>
					<trkpt lat="47.861650" lon="6.745100">
						<ele>674</ele>
						<time>2023-01-17T23:03:43Z</time>
					</trkpt>
					<trkpt lat="47.861850" lon="6.744040">
						<ele>674</ele>
						<time>2023-01-17T23:03:56Z</time>
					</trkpt>
					<trkpt lat="47.861930" lon="6.743360">
						<ele>678</ele>
						<time>2023-01-17T23:04:04Z</time>
					</trkpt>
					<trkpt lat="47.861950" lon="6.743250">
						<ele>678</ele>
						<time>2023-01-17T23:04:06Z</time>
					</trkpt>
					<trkpt lat="47.861990" lon="6.743190">
						<ele>678</ele>
						<time>2023-01-17T23:04:07Z</time>
					</trkpt>
					<trkpt lat="47.862060" lon="6.743180">
						<ele>677</ele>
						<time>2023-01-17T23:04:08Z</time>
					</trkpt>
					<trkpt lat="47.862100" lon="6.743210">
						<ele>676</ele>
						<time>2023-01-17T23:04:09Z</time>
					</trkpt>
					<trkpt lat="47.862120" lon="6.743280">
						<ele>675</ele>
						<time>2023-01-17T23:04:10Z</time>
					</trkpt>
					<trkpt lat="47.862130" lon="6.743390">
						<ele>674</ele>
						<time>2023-01-17T23:04:11Z</time>
					</trkpt>
					<trkpt lat="47.862010" lon="6.744530">
						<ele>664</ele>
						<time>2023-01-17T23:04:25Z</time>
					</trkpt>
					<trkpt lat="47.861990" lon="6.745840">
						<ele>653</ele>
						<time>2023-01-17T23:04:40Z</time>
					</trkpt>
					<trkpt lat="47.861970" lon="6.746000">
						<ele>651</ele>
						<time>2023-01-17T23:04:42Z</time>
					</trkpt>
					<trkpt lat="47.861920" lon="6.746220">
						<ele>650</ele>
						<time>2023-01-17T23:04:45Z</time>
					</trkpt>
					<trkpt lat="47.861620" lon="6.747230">
						<ele>642</ele>
						<time>2023-01-17T23:04:58Z</time>
					</trkpt>
					<trkpt lat="47.861530" lon="6.747440">
						<ele>640</ele>
						<time>2023-01-17T23:05:01Z</time>
					</trkpt>
					<trkpt lat="47.860980" lon="6.748290">
						<ele>641</ele>
						<time>2023-01-17T23:05:15Z</time>
					</trkpt>
					<trkpt lat="47.860900" lon="6.748500">
						<ele>642</ele>
						<time>2023-01-17T23:05:18Z</time>
					</trkpt>
					<trkpt lat="47.860880" lon="6.748610">
						<ele>642</ele>
						<time>2023-01-17T23:05:19Z</time>
					</trkpt>
					<trkpt lat="47.860870" lon="6.748880">
						<ele>639</ele>
						<time>2023-01-17T23:05:23Z</time>
					</trkpt>
					<trkpt lat="47.860940" lon="6.749240">
						<ele>633</ele>
						<time>2023-01-17T23:05:27Z</time>
					</trkpt>
					<trkpt lat="47.861010" lon="6.749420">
						<ele>630</ele>
						<time>2023-01-17T23:05:30Z</time>
					</trkpt>
					<trkpt lat="47.861290" lon="6.749870">
						<ele>620</ele>
						<time>2023-01-17T23:05:37Z</time>
					</trkpt>
					<trkpt lat="47.861410" lon="6.750210">
						<ele>616</ele>
						<time>2023-01-17T23:05:42Z</time>
					</trkpt>
					<trkpt lat="47.861420" lon="6.750610">
						<ele>618</ele>
						<time>2023-01-17T23:05:46Z</time>
					</trkpt>
					<trkpt lat="47.861400" lon="6.750950">
						<ele>621</ele>
						<time>2023-01-17T23:05:50Z</time>
					</trkpt>
					<trkpt lat="47.861350" lon="6.751540">
						<ele>626</ele>
						<time>2023-01-17T23:05:58Z</time>
					</trkpt>
					<trkpt lat="47.861380" lon="6.751780">
						<ele>626</ele>
						<time>2023-01-17T23:06:00Z</time>
					</trkpt>
					<trkpt lat="47.861640" lon="6.752520">
						<ele>624</ele>
						<time>2023-01-17T23:06:10Z</time>
					</trkpt>
					<trkpt lat="47.861800" lon="6.752860">
						<ele>624</ele>
						<time>2023-01-17T23:06:15Z</time>
					</trkpt>
					<trkpt lat="47.861880" lon="6.752980">
						<ele>623</ele>
						<time>2023-01-17T23:06:17Z</time>
					</trkpt>
					<trkpt lat="47.862120" lon="6.753240">
						<ele>618</ele>
						<time>2023-01-17T23:06:23Z</time>
					</trkpt>
					<trkpt lat="47.862450" lon="6.753520">
						<ele>608</ele>
						<time>2023-01-17T23:06:29Z</time>
					</trkpt>
					<trkpt lat="47.862880" lon="6.754070">
						<ele>604</ele>
						<time>2023-01-17T23:06:40Z</time>
					</trkpt>
					<trkpt lat="47.863050" lon="6.754200">
						<ele>601</ele>
						<time>2023-01-17T23:06:43Z</time>
					</trkpt>
					<trkpt lat="47.863130" lon="6.754220">
						<ele>599</ele>
						<time>2023-01-17T23:06:44Z</time>
					</trkpt>
					<trkpt lat="47.863500" lon="6.754140">
						<ele>590</ele>
						<time>2023-01-17T23:06:51Z</time>
					</trkpt>
					<trkpt lat="47.863730" lon="6.754150">
						<ele>588</ele>
						<time>2023-01-17T23:06:55Z</time>
					</trkpt>
					<trkpt lat="47.864570" lon="6.754420">
						<ele>580</ele>
						<time>2023-01-17T23:07:10Z</time>
					</trkpt>
					<trkpt lat="47.864790" lon="6.754560">
						<ele>577</ele>
						<time>2023-01-17T23:07:15Z</time>
					</trkpt>
					<trkpt lat="47.864900" lon="6.754660">
						<ele>576</ele>
						<time>2023-01-17T23:07:17Z</time>
					</trkpt>
					<trkpt lat="47.864970" lon="6.754750">
						<ele>575</ele>
						<time>2023-01-17T23:07:19Z</time>
					</trkpt>
					<trkpt lat="47.865000" lon="6.754840">
						<ele>576</ele>
						<time>2023-01-17T23:07:20Z</time>
					</trkpt>
					<trkpt lat="47.865020" lon="6.754930">
						<ele>577</ele>
						<time>2023-01-17T23:07:21Z</time>
					</trkpt>
					<trkpt lat="47.865010" lon="6.755040">
						<ele>578</ele>
						<time>2023-01-17T23:07:22Z</time>
					</trkpt>
					<trkpt lat="47.864950" lon="6.755390">
						<ele>580</ele>
						<time>2023-01-17T23:07:27Z</time>
					</trkpt>
					<trkpt lat="47.864950" lon="6.755650">
						<ele>581</ele>
						<time>2023-01-17T23:07:30Z</time>
					</trkpt>
					<trkpt lat="47.865020" lon="6.755890">
						<ele>580</ele>
						<time>2023-01-17T23:07:33Z</time>
					</trkpt>
					<trkpt lat="47.865230" lon="6.756330">
						<ele>577</ele>
						<time>2023-01-17T23:07:39Z</time>
					</trkpt>
					<trkpt lat="47.865460" lon="6.756720">
						<ele>575</ele>
						<time>2023-01-17T23:07:45Z</time>
					</trkpt>
					<trkpt lat="47.865540" lon="6.756800">
						<ele>574</ele>
						<time>2023-01-17T23:07:47Z</time>
					</trkpt>
					<trkpt lat="47.865610" lon="6.756840">
						<ele>573</ele>
						<time>2023-01-17T23:07:48Z</time>
					</trkpt>
					<trkpt lat="47.865920" lon="6.756930">
						<ele>569</ele>
						<time>2023-01-17T23:07:54Z</time>
					</trkpt>
					<trkpt lat="47.866170" lon="6.757150">
						<ele>569</ele>
						<time>2023-01-17T23:07:59Z</time>
					</trkpt>
					<trkpt lat="47.866310" lon="6.757230">
						<ele>568</ele>
						<time>2023-01-17T23:08:02Z</time>
					</trkpt>
					<trkpt lat="47.866380" lon="6.757230">
						<ele>567</ele>
						<time>2023-01-17T23:08:03Z</time>
					</trkpt>
					<trkpt lat="47.866440" lon="6.757210">
						<ele>567</ele>
						<time>2023-01-17T23:08:04Z</time>
					</trkpt>
					<trkpt lat="47.866550" lon="6.757090">
						<ele>565</ele>
						<time>2023-01-17T23:08:07Z</time>
					</trkpt>
					<trkpt lat="47.866640" lon="6.756880">
						<ele>563</ele>
						<time>2023-01-17T23:08:10Z</time>
					</trkpt>
					<trkpt lat="47.866730" lon="6.756560">
						<ele>560</ele>
						<time>2023-01-17T23:08:14Z</time>
					</trkpt>
					<trkpt lat="47.866750" lon="6.756430">
						<ele>559</ele>
						<time>2023-01-17T23:08:15Z</time>
					</trkpt>
					<trkpt lat="47.866740" lon="6.756170">
						<ele>558</ele>
						<time>2023-01-17T23:08:18Z</time>
					</trkpt>
					<trkpt lat="47.866640" lon="6.755420">
						<ele>555</ele>
						<time>2023-01-17T23:08:28Z</time>
					</trkpt>
					<trkpt lat="47.866640" lon="6.755250">
						<ele>555</ele>
						<time>2023-01-17T23:08:30Z</time>
					</trkpt>
					<trkpt lat="47.866700" lon="6.755020">
						<ele>554</ele>
						<time>2023-01-17T23:08:33Z</time>
					</trkpt>
					<trkpt lat="47.866810" lon="6.754790">
						<ele>553</ele>
						<time>2023-01-17T23:08:36Z</time>
					</trkpt>
					<trkpt lat="47.866960" lon="6.754640">
						<ele>551</ele>
						<time>2023-01-17T23:08:39Z</time>
					</trkpt>
					<trkpt lat="47.867350" lon="6.754490">
						<ele>546</ele>
						<time>2023-01-17T23:08:46Z</time>
					</trkpt>
					<trkpt lat="47.867590" lon="6.754430">
						<ele>544</ele>
						<time>2023-01-17T23:08:51Z</time>
					</trkpt>
					<trkpt lat="47.867840" lon="6.754530">
						<ele>543</ele>
						<time>2023-01-17T23:08:55Z</time>
					</trkpt>
					<trkpt lat="47.868510" lon="6.755060">
						<ele>540</ele>
						<time>2023-01-17T23:09:09Z</time>
					</trkpt>
					<trkpt lat="47.868760" lon="6.755380">
						<ele>539</ele>
						<time>2023-01-17T23:09:15Z</time>
					</trkpt>
					<trkpt lat="47.869030" lon="6.755840">
						<ele>538</ele>
						<time>2023-01-17T23:09:22Z</time>
					</trkpt>
					<trkpt lat="47.869130" lon="6.756050">
						<ele>538</ele>
						<time>2023-01-17T23:09:25Z</time>
					</trkpt>
					<trkpt lat="47.869200" lon="6.756260">
						<ele>537</ele>
						<time>2023-01-17T23:09:28Z</time>
					</trkpt>
					<trkpt lat="47.869420" lon="6.757060">
						<ele>536</ele>
						<time>2023-01-17T23:09:38Z</time>
					</trkpt>
					<trkpt lat="47.869490" lon="6.757210">
						<ele>536</ele>
						<time>2023-01-17T23:09:40Z</time>
					</trkpt>
					<trkpt lat="47.869630" lon="6.757400">
						<ele>535</ele>
						<time>2023-01-17T23:09:44Z</time>
					</trkpt>
					<trkpt lat="47.869740" lon="6.757460">
						<ele>534</ele>
						<time>2023-01-17T23:09:46Z</time>
					</trkpt>
					<trkpt lat="47.869890" lon="6.757500">
						<ele>534</ele>
						<time>2023-01-17T23:09:48Z</time>
					</trkpt>
					<trkpt lat="47.870840" lon="6.757320">
						<ele>529</ele>
						<time>2023-01-17T23:10:06Z</time>
					</trkpt>
					<trkpt lat="47.870980" lon="6.757310">
						<ele>528</ele>
						<time>2023-01-17T23:10:08Z</time>
					</trkpt>
					<trkpt lat="47.871190" lon="6.757350">
						<ele>527</ele>
						<time>2023-01-17T23:10:12Z</time>
					</trkpt>
					<trkpt lat="47.871450" lon="6.757420">
						<ele>525</ele>
						<time>2023-01-17T23:10:16Z</time>
					</trkpt>
					<trkpt lat="47.871690" lon="6.757520">
						<ele>524</ele>
						<time>2023-01-17T23:10:21Z</time>
					</trkpt>
					<trkpt lat="47.871890" lon="6.757640">
						<ele>523</ele>
						<time>2023-01-17T23:10:25Z</time>
					</trkpt>
					<trkpt lat="47.872820" lon="6.758430">
						<ele>519</ele>
						<time>2023-01-17T23:10:44Z</time>
					</trkpt>
					<trkpt lat="47.873190" lon="6.758770">
						<ele>518</ele>
						<time>2023-01-17T23:10:52Z</time>
					</trkpt>
					<trkpt lat="47.874160" lon="6.760070">
						<ele>503</ele>
						<time>2023-01-17T23:11:15Z</time>
					</trkpt>
					<trkpt lat="47.874280" lon="6.760280">
						<ele>502</ele>
						<time>2023-01-17T23:11:18Z</time>
					</trkpt>
					<trkpt lat="47.874620" lon="6.761280">
						<ele>497</ele>
						<time>2023-01-17T23:11:31Z</time>
					</trkpt>
					<trkpt lat="47.874790" lon="6.761940">
						<ele>495</ele>
						<time>2023-01-17T23:11:40Z</time>
					</trkpt>
					<trkpt lat="47.874840" lon="6.762160">
						<ele>495</ele>
						<time>2023-01-17T23:11:43Z</time>
					</trkpt>
					<trkpt lat="47.874880" lon="6.762770">
						<ele>495</ele>
						<time>2023-01-17T23:11:50Z</time>
					</trkpt>
					<trkpt lat="47.874960" lon="6.763030">
						<ele>494</ele>
						<time>2023-01-17T23:11:53Z</time>
					</trkpt>
					<trkpt lat="47.875000" lon="6.763110">
						<ele>494</ele>
						<time>2023-01-17T23:11:55Z</time>
					</trkpt>
					<trkpt lat="47.875030" lon="6.763180">
						<ele>494</ele>
						<time>2023-01-17T23:11:56Z</time>
					</trkpt>
					<trkpt lat="47.875080" lon="6.763110">
						<ele>494</ele>
						<time>2023-01-17T23:11:57Z</time>
					</trkpt>
					<trkpt lat="47.875000" lon="6.762900">
						<ele>495</ele>
						<time>2023-01-17T23:12:00Z</time>
					</trkpt>
					<trkpt lat="47.874970" lon="6.762800">
						<ele>495</ele>
						<time>2023-01-17T23:12:01Z</time>
					</trkpt>
					<trkpt lat="47.874990" lon="6.762620">
						<ele>495</ele>
						<time>2023-01-17T23:12:03Z</time>
					</trkpt>
					<trkpt lat="47.874990" lon="6.762230">
						<ele>495</ele>
						<time>2023-01-17T23:12:08Z</time>
					</trkpt>
					<trkpt lat="47.875040" lon="6.761710">
						<ele>495</ele>
						<time>2023-01-17T23:12:14Z</time>
					</trkpt>
					<trkpt lat="47.875050" lon="6.761120">
						<ele>496</ele>
						<time>2023-01-17T23:12:21Z</time>
					</trkpt>
					<trkpt lat="47.875110" lon="6.760710">
						<ele>496</ele>
						<time>2023-01-17T23:12:26Z</time>
					</trkpt>
					<trkpt lat="47.875300" lon="6.759820">
						<ele>495</ele>
						<time>2023-01-17T23:12:37Z</time>
					</trkpt>
					<trkpt lat="47.875410" lon="6.759470">
						<ele>495</ele>
						<time>2023-01-17T23:12:42Z</time>
					</trkpt>
					<trkpt lat="47.875510" lon="6.759220">
						<ele>495</ele>
						<time>2023-01-17T23:12:45Z</time>
					</trkpt>
					<trkpt lat="47.876040" lon="6.758120">
						<ele>496</ele>
						<time>2023-01-17T23:13:01Z</time>
					</trkpt>
					<trkpt lat="47.876330" lon="6.757620">
						<ele>496</ele>
						<time>2023-01-17T23:13:09Z</time>
					</trkpt>
					<trkpt lat="47.876860" lon="6.756760">
						<ele>495</ele>
						<time>2023-01-17T23:13:23Z</time>
					</trkpt>
					<trkpt lat="47.876970" lon="6.756610">
						<ele>495</ele>
						<time>2023-01-17T23:13:26Z</time>
					</trkpt>
					<trkpt lat="47.877250" lon="6.756350">
						<ele>493</ele>
						<time>2023-01-17T23:13:32Z</time>
					</trkpt>
					<trkpt lat="47.878930" lon="6.754370">
						<ele>488</ele>
						<time>2023-01-17T23:14:10Z</time>
					</trkpt>
					<trkpt lat="47.879360" lon="6.753810">
						<ele>487</ele>
						<time>2023-01-17T23:14:20Z</time>
					</trkpt>
					<trkpt lat="47.879930" lon="6.753030">
						<ele>487</ele>
						<time>2023-01-17T23:14:34Z</time>
					</trkpt>
					<trkpt lat="47.880440" lon="6.752220">
						<ele>487</ele>
						<time>2023-01-17T23:14:47Z</time>
					</trkpt>
					<trkpt lat="47.880860" lon="6.751480">
						<ele>487</ele>
						<time>2023-01-17T23:14:59Z</time>
					</trkpt>
					<trkpt lat="47.880910" lon="6.751310">
						<ele>487</ele>
						<time>2023-01-17T23:15:01Z</time>
					</trkpt>
					<trkpt lat="47.882190" lon="6.749020">
						<ele>482</ele>
						<time>2023-01-17T23:15:36Z</time>
					</trkpt>
					<trkpt lat="47.883140" lon="6.747420">
						<ele>479</ele>
						<time>2023-01-17T23:16:02Z</time>
					</trkpt>
					<trkpt lat="47.883610" lon="6.746730">
						<ele>479</ele>
						<time>2023-01-17T23:16:14Z</time>
					</trkpt>
					<trkpt lat="47.884010" lon="6.746080">
						<ele>478</ele>
						<time>2023-01-17T23:16:24Z</time>
					</trkpt>
					<trkpt lat="47.884290" lon="6.745670">
						<ele>477</ele>
						<time>2023-01-17T23:16:31Z</time>
					</trkpt>
					<trkpt lat="47.884540" lon="6.745340">
						<ele>476</ele>
						<time>2023-01-17T23:16:37Z</time>
					</trkpt>
					<trkpt lat="47.884540" lon="6.745250">
						<ele>476</ele>
						<time>2023-01-17T23:16:38Z</time>
					</trkpt>
					<trkpt lat="47.884580" lon="6.745140">
						<ele>476</ele>
						<time>2023-01-17T23:16:40Z</time>
					</trkpt>
					<trkpt lat="47.886520" lon="6.742490">
						<ele>475</ele>
						<time>2023-01-17T23:17:27Z</time>
					</trkpt>
					<trkpt lat="47.886810" lon="6.741960">
						<ele>475</ele>
						<time>2023-01-17T23:17:35Z</time>
					</trkpt>
					<trkpt lat="47.886910" lon="6.741940">
						<ele>475</ele>
						<time>2023-01-17T23:17:37Z</time>
					</trkpt>
					<trkpt lat="47.887020" lon="6.741760">
						<ele>474</ele>
						<time>2023-01-17T23:17:39Z</time>
					</trkpt>
					<trkpt lat="47.889380" lon="6.738510">
						<ele>472</ele>
						<time>2023-01-17T23:18:37Z</time>
					</trkpt>
					<trkpt lat="47.889800" lon="6.737990">
						<ele>471</ele>
						<time>2023-01-17T23:18:46Z</time>
					</trkpt>
					<trkpt lat="47.889960" lon="6.737700">
						<ele>471</ele>
						<time>2023-01-17T23:18:51Z</time>
					</trkpt>
					<trkpt lat="47.890230" lon="6.737100">
						<ele>472</ele>
						<time>2023-01-17T23:18:59Z</time>
					</trkpt>
					<trkpt lat="47.890520" lon="6.736360">
						<ele>471</ele>
						<time>2023-01-17T23:19:10Z</time>
					</trkpt>
					<trkpt lat="47.890650" lon="6.735970">
						<ele>471</ele>
						<time>2023-01-17T23:19:15Z</time>
					</trkpt>
					<trkpt lat="47.890740" lon="6.735550">
						<ele>470</ele>
						<time>2023-01-17T23:19:20Z</time>
					</trkpt>
					<trkpt lat="47.890890" lon="6.734690">
						<ele>468</ele>
						<time>2023-01-17T23:19:31Z</time>
					</trkpt>
					<trkpt lat="47.891100" lon="6.733240">
						<ele>465</ele>
						<time>2023-01-17T23:19:48Z</time>
					</trkpt>
					<trkpt lat="47.891200" lon="6.732670">
						<ele>465</ele>
						<time>2023-01-17T23:19:55Z</time>
					</trkpt>
					<trkpt lat="47.891360" lon="6.732030">
						<ele>466</ele>
						<time>2023-01-17T23:20:04Z</time>
					</trkpt>
					<trkpt lat="47.891480" lon="6.731640">
						<ele>466</ele>
						<time>2023-01-17T23:20:09Z</time>
					</trkpt>
					<trkpt lat="47.891790" lon="6.730750">
						<ele>463</ele>
						<time>2023-01-17T23:20:21Z</time>
					</trkpt>
					<trkpt lat="47.892100" lon="6.730020">
						<ele>462</ele>
						<time>2023-01-17T23:20:31Z</time>
					</trkpt>
					<trkpt lat="47.892360" lon="6.729530">
						<ele>462</ele>
						<time>2023-01-17T23:20:38Z</time>
					</trkpt>
					<trkpt lat="47.892690" lon="6.728970">
						<ele>462</ele>
						<time>2023-01-17T23:20:47Z</time>
					</trkpt>
					<trkpt lat="47.892870" lon="6.728700">
						<ele>463</ele>
						<time>2023-01-17T23:20:52Z</time>
					</trkpt>
					<trkpt lat="47.893070" lon="6.728460">
						<ele>463</ele>
						<time>2023-01-17T23:20:56Z</time>
					</trkpt>
					<trkpt lat="47.893630" lon="6.727790">
						<ele>464</ele>
						<time>2023-01-17T23:21:09Z</time>
					</trkpt>
					<trkpt lat="47.893680" lon="6.727730">
						<ele>464</ele>
						<time>2023-01-17T23:21:10Z</time>
					</trkpt>
					<trkpt lat="47.894370" lon="6.726860">
						<ele>463</ele>
						<time>2023-01-17T23:21:26Z</time>
					</trkpt>
					<trkpt lat="47.894530" lon="6.726630">
						<ele>462</ele>
						<time>2023-01-17T23:21:30Z</time>
					</trkpt>
					<trkpt lat="47.894780" lon="6.726220">
						<ele>461</ele>
						<time>2023-01-17T23:21:37Z</time>
					</trkpt>
					<trkpt lat="47.895110" lon="6.725590">
						<ele>460</ele>
						<time>2023-01-17T23:21:46Z</time>
					</trkpt>
					<trkpt lat="47.895480" lon="6.724670">
						<ele>458</ele>
						<time>2023-01-17T23:21:59Z</time>
					</trkpt>
					<trkpt lat="47.895710" lon="6.723860">
						<ele>457</ele>
						<time>2023-01-17T23:22:10Z</time>
					</trkpt>
					<trkpt lat="47.895910" lon="6.722930">
						<ele>458</ele>
						<time>2023-01-17T23:22:21Z</time>
					</trkpt>
					<trkpt lat="47.896470" lon="6.718860">
						<ele>456</ele>
						<time>2023-01-17T23:23:11Z</time>
					</trkpt>
					<trkpt lat="47.896650" lon="6.717970">
						<ele>457</ele>
						<time>2023-01-17T23:23:22Z</time>
					</trkpt>
					<trkpt lat="47.896790" lon="6.717410">
						<ele>456</ele>
						<time>2023-01-17T23:23:29Z</time>
					</trkpt>
					<trkpt lat="47.897000" lon="6.716810">
						<ele>455</ele>
						<time>2023-01-17T23:23:37Z</time>
					</trkpt>
					<trkpt lat="47.897300" lon="6.716110">
						<ele>455</ele>
						<time>2023-01-17T23:23:47Z</time>
					</trkpt>
					<trkpt lat="47.898470" lon="6.713840">
						<ele>455</ele>
						<time>2023-01-17T23:24:21Z</time>
					</trkpt>
					<trkpt lat="47.898510" lon="6.713770">
						<ele>455</ele>
						<time>2023-01-17T23:24:22Z</time>
					</trkpt>
					<trkpt lat="47.900200" lon="6.710540">
						<ele>454</ele>
						<time>2023-01-17T23:25:11Z</time>
					</trkpt>
					<trkpt lat="47.900970" lon="6.709220">
						<ele>456</ele>
						<time>2023-01-17T23:25:32Z</time>
					</trkpt>
					<trkpt lat="47.901630" lon="6.708220">
						<ele>456</ele>
						<time>2023-01-17T23:25:49Z</time>
					</trkpt>
					<trkpt lat="47.905400" lon="6.702800">
						<ele>453</ele>
						<time>2023-01-17T23:27:22Z</time>
					</trkpt>
					<trkpt lat="47.906830" lon="6.700720">
						<ele>457</ele>
						<time>2023-01-17T23:27:58Z</time>
					</trkpt>
					<trkpt lat="47.907170" lon="6.700150">
						<ele>456</ele>
						<time>2023-01-17T23:28:07Z</time>
					</trkpt>
					<trkpt lat="47.907420" lon="6.699550">
						<ele>454</ele>
						<time>2023-01-17T23:28:15Z</time>
					</trkpt>
					<trkpt lat="47.907550" lon="6.699180">
						<ele>454</ele>
						<time>2023-01-17T23:28:20Z</time>
					</trkpt>
					<trkpt lat="47.907670" lon="6.698750">
						<ele>455</ele>
						<time>2023-01-17T23:28:26Z</time>
					</trkpt>
					<trkpt lat="47.907800" lon="6.698060">
						<ele>454</ele>
						<time>2023-01-17T23:28:34Z</time>
					</trkpt>
					<trkpt lat="47.907860" lon="6.697460">
						<ele>452</ele>
						<time>2023-01-17T23:28:41Z</time>
					</trkpt>
					<trkpt lat="47.907870" lon="6.696910">
						<ele>451</ele>
						<time>2023-01-17T23:28:48Z</time>
					</trkpt>
					<trkpt lat="47.907760" lon="6.695500">
						<ele>450</ele>
						<time>2023-01-17T23:29:05Z</time>
					</trkpt>
					<trkpt lat="47.906920" lon="6.687480">
						<ele>446</ele>
						<time>2023-01-17T23:30:42Z</time>
					</trkpt>
					<trkpt lat="47.906870" lon="6.686830">
						<ele>444</ele>
						<time>2023-01-17T23:30:50Z</time>
					</trkpt>
					<trkpt lat="47.906830" lon="6.685970">
						<ele>441</ele>
						<time>2023-01-17T23:31:00Z</time>
					</trkpt>
					<trkpt lat="47.906820" lon="6.685060">
						<ele>439</ele>
						<time>2023-01-17T23:31:11Z</time>
					</trkpt>
					<trkpt lat="47.906840" lon="6.683830">
						<ele>439</ele>
						<time>2023-01-17T23:31:25Z</time>
					</trkpt>
					<trkpt lat="47.906920" lon="6.682580">
						<ele>437</ele>
						<time>2023-01-17T23:31:40Z</time>
					</trkpt>
					<trkpt lat="47.907190" lon="6.680030">
						<ele>432</ele>
						<time>2023-01-17T23:32:11Z</time>
					</trkpt>
					<trkpt lat="47.907540" lon="6.676830">
						<ele>434</ele>
						<time>2023-01-17T23:32:50Z</time>
					</trkpt>
					<trkpt lat="47.907600" lon="6.676460">
						<ele>433</ele>
						<time>2023-01-17T23:32:54Z</time>
					</trkpt>
					<trkpt lat="47.907720" lon="6.675870">
						<ele>431</ele>
						<time>2023-01-17T23:33:02Z</time>
					</trkpt>
					<trkpt lat="47.907890" lon="6.675230">
						<ele>431</ele>
						<time>2023-01-17T23:33:10Z</time>
					</trkpt>
					<trkpt lat="47.907980" lon="6.674930">
						<ele>430</ele>
						<time>2023-01-17T23:33:14Z</time>
					</trkpt>
					<trkpt lat="47.908200" lon="6.674340">
						<ele>430</ele>
						<time>2023-01-17T23:33:22Z</time>
					</trkpt>
					<trkpt lat="47.908520" lon="6.673630">
						<ele>430</ele>
						<time>2023-01-17T23:33:32Z</time>
					</trkpt>
					<trkpt lat="47.908670" lon="6.673350">
						<ele>430</ele>
						<time>2023-01-17T23:33:36Z</time>
					</trkpt>
					<trkpt lat="47.908920" lon="6.672930">
						<ele>429</ele>
						<time>2023-01-17T23:33:43Z</time>
					</trkpt>
					<trkpt lat="47.909290" lon="6.672400">
						<ele>429</ele>
						<time>2023-01-17T23:33:52Z</time>
					</trkpt>
					<trkpt lat="47.909690" lon="6.671940">
						<ele>428</ele>
						<time>2023-01-17T23:34:01Z</time>
					</trkpt>
					<trkpt lat="47.911070" lon="6.670450">
						<ele>429</ele>
						<time>2023-01-17T23:34:32Z</time>
					</trkpt>
					<trkpt lat="47.911290" lon="6.670210">
						<ele>429</ele>
						<time>2023-01-17T23:34:36Z</time>
					</trkpt>
					<trkpt lat="47.914900" lon="6.666350">
						<ele>425</ele>
						<time>2023-01-17T23:35:55Z</time>
					</trkpt>
					<trkpt lat="47.915770" lon="6.665540">
						<ele>426</ele>
						<time>2023-01-17T23:36:14Z</time>
					</trkpt>
					<trkpt lat="47.919830" lon="6.662170">
						<ele>424</ele>
						<time>2023-01-17T23:37:36Z</time>
					</trkpt>
					<trkpt lat="47.920790" lon="6.661320">
						<ele>424</ele>
						<time>2023-01-17T23:37:56Z</time>
					</trkpt>
					<trkpt lat="47.921180" lon="6.660890">
						<ele>423</ele>
						<time>2023-01-17T23:38:05Z</time>
					</trkpt>
					<trkpt lat="47.921360" lon="6.660650">
						<ele>422</ele>
						<time>2023-01-17T23:38:09Z</time>
					</trkpt>
					<trkpt lat="47.921650" lon="6.660150">
						<ele>421</ele>
						<time>2023-01-17T23:38:17Z</time>
					</trkpt>
					<trkpt lat="47.921830" lon="6.659870">
						<ele>421</ele>
						<time>2023-01-17T23:38:22Z</time>
					</trkpt>
					<trkpt lat="47.922080" lon="6.659620">
						<ele>421</ele>
						<time>2023-01-17T23:38:27Z</time>
					</trkpt>
					<trkpt lat="47.922910" lon="6.658920">
						<ele>423</ele>
						<time>2023-01-17T23:38:44Z</time>
					</trkpt>
					<trkpt lat="47.923030" lon="6.658890">
						<ele>423</ele>
						<time>2023-01-17T23:38:46Z</time>
					</trkpt>
					<trkpt lat="47.923090" lon="6.658890">
						<ele>424</ele>
						<time>2023-01-17T23:38:47Z</time>
					</trkpt>
					<trkpt lat="47.923360" lon="6.658960">
						<ele>424</ele>
						<time>2023-01-17T23:38:52Z</time>
					</trkpt>
					<trkpt lat="47.923480" lon="6.658950">
						<ele>424</ele>
						<time>2023-01-17T23:38:54Z</time>
					</trkpt>
					<trkpt lat="47.923550" lon="6.658920">
						<ele>424</ele>
						<time>2023-01-17T23:38:55Z</time>
					</trkpt>
					<trkpt lat="47.924170" lon="6.658460">
						<ele>424</ele>
						<time>2023-01-17T23:39:08Z</time>
					</trkpt>
					<trkpt lat="47.924360" lon="6.658380">
						<ele>424</ele>
						<time>2023-01-17T23:39:11Z</time>
					</trkpt>
					<trkpt lat="47.925820" lon="6.657160">
						<ele>422</ele>
						<time>2023-01-17T23:39:41Z</time>
					</trkpt>
					<trkpt lat="47.926160" lon="6.656930">
						<ele>421</ele>
						<time>2023-01-17T23:39:48Z</time>
					</trkpt>
					<trkpt lat="47.926390" lon="6.656700">
						<ele>420</ele>
						<time>2023-01-17T23:39:53Z</time>
					</trkpt>
					<trkpt lat="47.926780" lon="6.656350">
						<ele>419</ele>
						<time>2023-01-17T23:40:01Z</time>
					</trkpt>
					<trkpt lat="47.929540" lon="6.654040">
						<ele>420</ele>
						<time>2023-01-17T23:40:57Z</time>
					</trkpt>
					<trkpt lat="47.930520" lon="6.653240">
						<ele>421</ele>
						<time>2023-01-17T23:41:17Z</time>
					</trkpt>
					<trkpt lat="47.930620" lon="6.653160">
						<ele>421</ele>
						<time>2023-01-17T23:41:19Z</time>
					</trkpt>
					<trkpt lat="47.931440" lon="6.652480">
						<ele>419</ele>
						<time>2023-01-17T23:41:36Z</time>
					</trkpt>
					<trkpt lat="47.931870" lon="6.652220">
						<ele>418</ele>
						<time>2023-01-17T23:41:44Z</time>
					</trkpt>
					<trkpt lat="47.932120" lon="6.652090">
						<ele>418</ele>
						<time>2023-01-17T23:41:49Z</time>
					</trkpt>
					<trkpt lat="47.932700" lon="6.651890">
						<ele>417</ele>
						<time>2023-01-17T23:41:59Z</time>
					</trkpt>
					<trkpt lat="47.933880" lon="6.651600">
						<ele>416</ele>
						<time>2023-01-17T23:42:20Z</time>
					</trkpt>
					<trkpt lat="47.933980" lon="6.651410">
						<ele>417</ele>
						<time>2023-01-17T23:42:23Z</time>
					</trkpt>
					<trkpt lat="47.934040" lon="6.651340">
						<ele>417</ele>
						<time>2023-01-17T23:42:25Z</time>
					</trkpt>
					<trkpt lat="47.934100" lon="6.651350">
						<ele>417</ele>
						<time>2023-01-17T23:42:26Z</time>
					</trkpt>
					<trkpt lat="47.934310" lon="6.651480">
						<ele>417</ele>
						<time>2023-01-17T23:42:30Z</time>
					</trkpt>
					<trkpt lat="47.934710" lon="6.651320">
						<ele>417</ele>
						<time>2023-01-17T23:42:37Z</time>
					</trkpt>
					<trkpt lat="47.935170" lon="6.651020">
						<ele>417</ele>
						<time>2023-01-17T23:42:46Z</time>
					</trkpt>
					<trkpt lat="47.935360" lon="6.650880">
						<ele>417</ele>
						<time>2023-01-17T23:42:50Z</time>
					</trkpt>
					<trkpt lat="47.935770" lon="6.650490">
						<ele>418</ele>
						<time>2023-01-17T23:42:59Z</time>
					</trkpt>
					<trkpt lat="47.938130" lon="6.648060">
						<ele>425</ele>
						<time>2023-01-17T23:43:50Z</time>
					</trkpt>
					<trkpt lat="47.938460" lon="6.647700">
						<ele>427</ele>
						<time>2023-01-17T23:43:57Z</time>
					</trkpt>
					<trkpt lat="47.938790" lon="6.647220">
						<ele>428</ele>
						<time>2023-01-17T23:44:05Z</time>
					</trkpt>
					<trkpt lat="47.939070" lon="6.646720">
						<ele>429</ele>
						<time>2023-01-17T23:44:13Z</time>
					</trkpt>
					<trkpt lat="47.939200" lon="6.646440">
						<ele>429</ele>
						<time>2023-01-17T23:44:17Z</time>
					</trkpt>
					<trkpt lat="47.939320" lon="6.646130">
						<ele>430</ele>
						<time>2023-01-17T23:44:21Z</time>
					</trkpt>
					<trkpt lat="47.939540" lon="6.645340">
						<ele>430</ele>
						<time>2023-01-17T23:44:31Z</time>
					</trkpt>
					<trkpt lat="47.940210" lon="6.643210">
						<ele>423</ele>
						<time>2023-01-17T23:44:59Z</time>
					</trkpt>
					<trkpt lat="47.940340" lon="6.642840">
						<ele>423</ele>
						<time>2023-01-17T23:45:04Z</time>
					</trkpt>
					<trkpt lat="47.940490" lon="6.642460">
						<ele>422</ele>
						<time>2023-01-17T23:45:10Z</time>
					</trkpt>
					<trkpt lat="47.940660" lon="6.642120">
						<ele>421</ele>
						<time>2023-01-17T23:45:15Z</time>
					</trkpt>
					<trkpt lat="47.940940" lon="6.641620">
						<ele>420</ele>
						<time>2023-01-17T23:45:22Z</time>
					</trkpt>
					<trkpt lat="47.941270" lon="6.641150">
						<ele>418</ele>
						<time>2023-01-17T23:45:31Z</time>
					</trkpt>
					<trkpt lat="47.942990" lon="6.639140">
						<ele>416</ele>
						<time>2023-01-17T23:46:09Z</time>
					</trkpt>
					<trkpt lat="47.945730" lon="6.635940">
						<ele>414</ele>
						<time>2023-01-17T23:47:11Z</time>
					</trkpt>
					<trkpt lat="47.945990" lon="6.635690">
						<ele>413</ele>
						<time>2023-01-17T23:47:17Z</time>
					</trkpt>
					<trkpt lat="47.946290" lon="6.635470">
						<ele>413</ele>
						<time>2023-01-17T23:47:23Z</time>
					</trkpt>
					<trkpt lat="47.946600" lon="6.635270">
						<ele>412</ele>
						<time>2023-01-17T23:47:29Z</time>
					</trkpt>
					<trkpt lat="47.947110" lon="6.635070">
						<ele>410</ele>
						<time>2023-01-17T23:47:38Z</time>
					</trkpt>
					<trkpt lat="47.948440" lon="6.634600">
						<ele>413</ele>
						<time>2023-01-17T23:48:02Z</time>
					</trkpt>
					<trkpt lat="47.948750" lon="6.634420">
						<ele>414</ele>
						<time>2023-01-17T23:48:08Z</time>
					</trkpt>
					<trkpt lat="47.949040" lon="6.634190">
						<ele>414</ele>
						<time>2023-01-17T23:48:14Z</time>
					</trkpt>
					<trkpt lat="47.951930" lon="6.631730">
						<ele>405</ele>
						<time>2023-01-17T23:49:13Z</time>
					</trkpt>
					<trkpt lat="47.952260" lon="6.631520">
						<ele>406</ele>
						<time>2023-01-17T23:49:20Z</time>
					</trkpt>
					<trkpt lat="47.952700" lon="6.631300">
						<ele>406</ele>
						<time>2023-01-17T23:49:28Z</time>
					</trkpt>
					<trkpt lat="47.953010" lon="6.631190">
						<ele>407</ele>
						<time>2023-01-17T23:49:34Z</time>
					</trkpt>
					<trkpt lat="47.953440" lon="6.631080">
						<ele>407</ele>
						<time>2023-01-17T23:49:41Z</time>
					</trkpt>
					<trkpt lat="47.953990" lon="6.631050">
						<ele>406</ele>
						<time>2023-01-17T23:49:51Z</time>
					</trkpt>
					<trkpt lat="47.954540" lon="6.631110">
						<ele>407</ele>
						<time>2023-01-17T23:50:01Z</time>
					</trkpt>
					<trkpt lat="47.954960" lon="6.631240">
						<ele>407</ele>
						<time>2023-01-17T23:50:09Z</time>
					</trkpt>
					<trkpt lat="47.955380" lon="6.631410">
						<ele>407</ele>
						<time>2023-01-17T23:50:16Z</time>
					</trkpt>
					<trkpt lat="47.955660" lon="6.631570">
						<ele>407</ele>
						<time>2023-01-17T23:50:22Z</time>
					</trkpt>
					<trkpt lat="47.955980" lon="6.631800">
						<ele>407</ele>
						<time>2023-01-17T23:50:28Z</time>
					</trkpt>
					<trkpt lat="47.956500" lon="6.632270">
						<ele>408</ele>
						<time>2023-01-17T23:50:39Z</time>
					</trkpt>
					<trkpt lat="47.957030" lon="6.632880">
						<ele>408</ele>
						<time>2023-01-17T23:50:51Z</time>
					</trkpt>
					<trkpt lat="47.957420" lon="6.633370">
						<ele>407</ele>
						<time>2023-01-17T23:51:00Z</time>
					</trkpt>
					<trkpt lat="47.957910" lon="6.633920">
						<ele>407</ele>
						<time>2023-01-17T23:51:11Z</time>
					</trkpt>
					<trkpt lat="47.958400" lon="6.634330">
						<ele>406</ele>
						<time>2023-01-17T23:51:21Z</time>
					</trkpt>
					<trkpt lat="47.958810" lon="6.634540">
						<ele>408</ele>
						<time>2023-01-17T23:51:29Z</time>
					</trkpt>
					<trkpt lat="47.959190" lon="6.634690">
						<ele>409</ele>
						<time>2023-01-17T23:51:36Z</time>
					</trkpt>
					<trkpt lat="47.959610" lon="6.634760">
						<ele>411</ele>
						<time>2023-01-17T23:51:43Z</time>
					</trkpt>
					<trkpt lat="47.960000" lon="6.634770">
						<ele>411</ele>
						<time>2023-01-17T23:51:50Z</time>
					</trkpt>
					<trkpt lat="47.960330" lon="6.634740">
						<ele>410</ele>
						<time>2023-01-17T23:51:56Z</time>
					</trkpt>
					<trkpt lat="47.960650" lon="6.634650">
						<ele>408</ele>
						<time>2023-01-17T23:52:02Z</time>
					</trkpt>
					<trkpt lat="47.960960" lon="6.634530">
						<ele>407</ele>
						<time>2023-01-17T23:52:07Z</time>
					</trkpt>
					<trkpt lat="47.962160" lon="6.633990">
						<ele>405</ele>
						<time>2023-01-17T23:52:30Z</time>
					</trkpt>
					<trkpt lat="47.962450" lon="6.633900">
						<ele>404</ele>
						<time>2023-01-17T23:52:35Z</time>
					</trkpt>
					<trkpt lat="47.962760" lon="6.633850">
						<ele>405</ele>
						<time>2023-01-17T23:52:40Z</time>
					</trkpt>
					<trkpt lat="47.963080" lon="6.633840">
						<ele>406</ele>
						<time>2023-01-17T23:52:46Z</time>
					</trkpt>
					<trkpt lat="47.965110" lon="6.634180">
						<ele>408</ele>
						<time>2023-01-17T23:53:23Z</time>
					</trkpt>
					<trkpt lat="47.965520" lon="6.634200">
						<ele>408</ele>
						<time>2023-01-17T23:53:30Z</time>
					</trkpt>
					<trkpt lat="47.966020" lon="6.634170">
						<ele>407</ele>
						<time>2023-01-17T23:53:39Z</time>
					</trkpt>
					<trkpt lat="47.966450" lon="6.634070">
						<ele>406</ele>
						<time>2023-01-17T23:53:46Z</time>
					</trkpt>
					<trkpt lat="47.969960" lon="6.632870">
						<ele>402</ele>
						<time>2023-01-17T23:54:51Z</time>
					</trkpt>
					<trkpt lat="47.970540" lon="6.632730">
						<ele>402</ele>
						<time>2023-01-17T23:55:01Z</time>
					</trkpt>
					<trkpt lat="47.971100" lon="6.632650">
						<ele>400</ele>
						<time>2023-01-17T23:55:11Z</time>
					</trkpt>
					<trkpt lat="47.971700" lon="6.632650">
						<ele>398</ele>
						<time>2023-01-17T23:55:22Z</time>
					</trkpt>
					<trkpt lat="47.971990" lon="6.632670">
						<ele>399</ele>
						<time>2023-01-17T23:55:27Z</time>
					</trkpt>
					<trkpt lat="47.977680" lon="6.633840">
						<ele>402</ele>
						<time>2023-01-17T23:57:09Z</time>
					</trkpt>
					<trkpt lat="47.977740" lon="6.633860">
						<ele>402</ele>
						<time>2023-01-17T23:57:10Z</time>
					</trkpt>
					<trkpt lat="47.978440" lon="6.633980">
						<ele>402</ele>
						<time>2023-01-17T23:57:23Z</time>
					</trkpt>
					<trkpt lat="47.981300" lon="6.634600">
						<ele>403</ele>
						<time>2023-01-17T23:58:14Z</time>
					</trkpt>
					<trkpt lat="47.984330" lon="6.635220">
						<ele>400</ele>
						<time>2023-01-17T23:59:09Z</time>
					</trkpt>
					<trkpt lat="47.984690" lon="6.635280">
						<ele>399</ele>
						<time>2023-01-17T23:59:15Z</time>
					</trkpt>
					<trkpt lat="47.985660" lon="6.635310">
						<ele>399</ele>
						<time>2023-01-17T23:59:32Z</time>
					</trkpt>
					<trkpt lat="47.986140" lon="6.635260">
						<ele>399</ele>
						<time>2023-01-17T23:59:41Z</time>
					</trkpt>
					<trkpt lat="47.986640" lon="6.635190">
						<ele>398</ele>
						<time>2023-01-17T23:59:50Z</time>
					</trkpt>
					<trkpt lat="47.987220" lon="6.635020">
						<ele>398</ele>
						<time>2023-01-18T00:00:00Z</time>
					</trkpt>
					<trkpt lat="47.992110" lon="6.633350">
						<ele>396</ele>
						<time>2023-01-18T00:01:29Z</time>
					</trkpt>
					<trkpt lat="47.992070" lon="6.633050">
						<ele>395</ele>
						<time>2023-01-18T00:01:33Z</time>
					</trkpt>
					<trkpt lat="47.992070" lon="6.632530">
						<ele>395</ele>
						<time>2023-01-18T00:01:39Z</time>
					</trkpt>
					<trkpt lat="47.992050" lon="6.632320">
						<ele>394</ele>
						<time>2023-01-18T00:01:42Z</time>
					</trkpt>
					<trkpt lat="47.992020" lon="6.631970">
						<ele>394</ele>
						<time>2023-01-18T00:01:46Z</time>
					</trkpt>
					<trkpt lat="47.991990" lon="6.631980">
						<ele>394</ele>
						<time>2023-01-18T00:01:47Z</time>
					</trkpt>
					<trkpt lat="47.991990" lon="6.631730">
						<ele>394</ele>
						<time>2023-01-18T00:01:50Z</time>
					</trkpt>
					<trkpt lat="47.992020" lon="6.631620">
						<ele>393</ele>
						<time>2023-01-18T00:01:51Z</time>
					</trkpt>
					<trkpt lat="47.992310" lon="6.630840">
						<ele>391</ele>
						<time>2023-01-18T00:02:02Z</time>
					</trkpt>
					<trkpt lat="47.992680" lon="6.629410">
						<ele>390</ele>
						<time>2023-01-18T00:02:20Z</time>
					</trkpt>
					<trkpt lat="47.992840" lon="6.628820">
						<ele>390</ele>
						<time>2023-01-18T00:02:27Z</time>
					</trkpt>
					<trkpt lat="47.992940" lon="6.628480">
						<ele>390</ele>
						<time>2023-01-18T00:02:32Z</time>
					</trkpt>
					<trkpt lat="47.993100" lon="6.628230">
						<ele>390</ele>
						<time>2023-01-18T00:02:36Z</time>
					</trkpt>
					<trkpt lat="47.993260" lon="6.628120">
						<ele>390</ele>
						<time>2023-01-18T00:02:39Z</time>
					</trkpt>
					<trkpt lat="47.994360" lon="6.628080">
						<ele>390</ele>
						<time>2023-01-18T00:02:59Z</time>
					</trkpt>
					<trkpt lat="47.994500" lon="6.628020">
						<ele>390</ele>
						<time>2023-01-18T00:03:01Z</time>
					</trkpt>
					<trkpt lat="47.994650" lon="6.627880">
						<ele>390</ele>
						<time>2023-01-18T00:03:04Z</time>
					</trkpt>
					<trkpt lat="47.994930" lon="6.627520">
						<ele>390</ele>
						<time>2023-01-18T00:03:11Z</time>
					</trkpt>
					<trkpt lat="47.995430" lon="6.627200">
						<ele>390</ele>
						<time>2023-01-18T00:03:21Z</time>
					</trkpt>
					<trkpt lat="47.995940" lon="6.626970">
						<ele>390</ele>
						<time>2023-01-18T00:03:30Z</time>
					</trkpt>
					<trkpt lat="47.996900" lon="6.626950">
						<ele>389</ele>
						<time>2023-01-18T00:03:47Z</time>
					</trkpt>
					<trkpt lat="47.997190" lon="6.626790">
						<ele>389</ele>
						<time>2023-01-18T00:03:53Z</time>
					</trkpt>
					<trkpt lat="47.997360" lon="6.626570">
						<ele>388</ele>
						<time>2023-01-18T00:03:57Z</time>
					</trkpt>
					<trkpt lat="47.997570" lon="6.625810">
						<ele>388</ele>
						<time>2023-01-18T00:04:07Z</time>
					</trkpt>
					<trkpt lat="47.997620" lon="6.624760">
						<ele>392</ele>
						<time>2023-01-18T00:04:19Z</time>
					</trkpt>
					<trkpt lat="47.997670" lon="6.624580">
						<ele>392</ele>
						<time>2023-01-18T00:04:21Z</time>
					</trkpt>
					<trkpt lat="47.997440" lon="6.624260">
						<ele>393</ele>
						<time>2023-01-18T00:04:27Z</time>
					</trkpt>
					<trkpt lat="47.997370" lon="6.624090">
						<ele>393</ele>
						<time>2023-01-18T00:04:29Z</time>
					</trkpt>
					<trkpt lat="47.997320" lon="6.623910">
						<ele>393</ele>
						<time>2023-01-18T00:04:32Z</time>
					</trkpt>
					<trkpt lat="47.997250" lon="6.623550">
						<ele>393</ele>
						<time>2023-01-18T00:04:36Z</time>
					</trkpt>
					<trkpt lat="47.997240" lon="6.623410">
						<ele>393</ele>
						<time>2023-01-18T00:04:38Z</time>
					</trkpt>
					<trkpt lat="47.997240" lon="6.622900">
						<ele>393</ele>
						<time>2023-01-18T00:04:44Z</time>
					</trkpt>
					<trkpt lat="47.997170" lon="6.621930">
						<ele>392</ele>
						<time>2023-01-18T00:04:56Z</time>
					</trkpt>
					<trkpt lat="47.997160" lon="6.621630">
						<ele>393</ele>
						<time>2023-01-18T00:04:59Z</time>
					</trkpt>
					<trkpt lat="47.997180" lon="6.621480">
						<ele>394</ele>
						<time>2023-01-18T00:05:01Z</time>
					</trkpt>
					<trkpt lat="47.997190" lon="6.621420">
						<ele>394</ele>
						<time>2023-01-18T00:05:02Z</time>
					</trkpt>
					<trkpt lat="47.997850" lon="6.620600">
						<ele>398</ele>
						<time>2023-01-18T00:05:17Z</time>
					</trkpt>
					<trkpt lat="47.998360" lon="6.620110">
						<ele>395</ele>
						<time>2023-01-18T00:05:28Z</time>
					</trkpt>
					<trkpt lat="47.998400" lon="6.619990">
						<ele>396</ele>
						<time>2023-01-18T00:05:29Z</time>
					</trkpt>
					<trkpt lat="47.998410" lon="6.619880">
						<ele>396</ele>
						<time>2023-01-18T00:05:31Z</time>
					</trkpt>
					<trkpt lat="47.998610" lon="6.619880">
						<ele>395</ele>
						<time>2023-01-18T00:05:34Z</time>
					</trkpt>
					<trkpt lat="47.998810" lon="6.619820">
						<ele>393</ele>
						<time>2023-01-18T00:05:38Z</time>
					</trkpt>
					<trkpt lat="47.998970" lon="6.619730">
						<ele>393</ele>
						<time>2023-01-18T00:05:41Z</time>
					</trkpt>
					<trkpt lat="47.999100" lon="6.619620">
						<ele>392</ele>
						<time>2023-01-18T00:05:44Z</time>
					</trkpt>
					<trkpt lat="47.999340" lon="6.619310">
						<ele>392</ele>
						<time>2023-01-18T00:05:49Z</time>
					</trkpt>
					<trkpt lat="47.999400" lon="6.619190">
						<ele>392</ele>
						<time>2023-01-18T00:05:51Z</time>
					</trkpt>
					<trkpt lat="47.999440" lon="6.619070">
						<ele>392</ele>
						<time>2023-01-18T00:05:53Z</time>
					</trkpt>
					<trkpt lat="47.999720" lon="6.618400">
						<ele>392</ele>
						<time>2023-01-18T00:06:02Z</time>
					</trkpt>
					<trkpt lat="47.999910" lon="6.618050">
						<ele>392</ele>
						<time>2023-01-18T00:06:07Z</time>
					</trkpt>
					<trkpt lat="47.999930" lon="6.617980">
						<ele>392</ele>
						<time>2023-01-18T00:06:08Z</time>
					</trkpt>
					<trkpt lat="47.999920" lon="6.617800">
						<ele>393</ele>
						<time>2023-01-18T00:06:10Z</time>
					</trkpt>
					<trkpt lat="48.000510" lon="6.617240">
						<ele>392</ele>
						<time>2023-01-18T00:06:23Z</time>
					</trkpt>
					<trkpt lat="48.000980" lon="6.616870">
						<ele>392</ele>
						<time>2023-01-18T00:06:32Z</time>
					</trkpt>
					<trkpt lat="48.000950" lon="6.616800">
						<ele>392</ele>
						<time>2023-01-18T00:06:33Z</time>
					</trkpt>
					<trkpt lat="48.000430" lon="6.617250">
						<ele>392</ele>
						<time>2023-01-18T00:06:44Z</time>
					</trkpt>
					<trkpt lat="47.999970" lon="6.617660">
						<ele>393</ele>
						<time>2023-01-18T00:06:53Z</time>
					</trkpt>
					<trkpt lat="47.999990" lon="6.617740">
						<ele>392</ele>
						<time>2023-01-18T00:06:54Z</time>
					</trkpt>
					<trkpt lat="48.000510" lon="6.617240">
						<ele>392</ele>
						<time>2023-01-18T00:07:05Z</time>
					</trkpt>
					<trkpt lat="48.001110" lon="6.616760">
						<ele>392</ele>
						<time>2023-01-18T00:07:18Z</time>
					</trkpt>
					<trkpt lat="48.002460" lon="6.615770">
						<ele>392</ele>
						<time>2023-01-18T00:07:44Z</time>
					</trkpt>
					<trkpt lat="48.002660" lon="6.615580">
						<ele>392</ele>
						<time>2023-01-18T00:07:49Z</time>
					</trkpt>
					<trkpt lat="48.002910" lon="6.615470">
						<ele>392</ele>
						<time>2023-01-18T00:07:53Z</time>
					</trkpt>
					<trkpt lat="48.002970" lon="6.615470">
						<ele>392</ele>
						<time>2023-01-18T00:07:54Z</time>
					</trkpt>
					<trkpt lat="48.003040" lon="6.615420">
						<ele>392</ele>
						<time>2023-01-18T00:07:56Z</time>
					</trkpt>
					<trkpt lat="48.003070" lon="6.615330">
						<ele>393</ele>
						<time>2023-01-18T00:07:57Z</time>
					</trkpt>
					<trkpt lat="48.003080" lon="6.615260">
						<ele>393</ele>
						<time>2023-01-18T00:07:58Z</time>
					</trkpt>
					<trkpt lat="48.003160" lon="6.615050">
						<ele>394</ele>
						<time>2023-01-18T00:08:01Z</time>
					</trkpt>
					<trkpt lat="48.004200" lon="6.613330">
						<ele>396</ele>
						<time>2023-01-18T00:08:28Z</time>
					</trkpt>
					<trkpt lat="48.004650" lon="6.612730">
						<ele>395</ele>
						<time>2023-01-18T00:08:39Z</time>
					</trkpt>
					<trkpt lat="48.004740" lon="6.612580">
						<ele>395</ele>
						<time>2023-01-18T00:08:41Z</time>
					</trkpt>
					<trkpt lat="48.004870" lon="6.612430">
						<ele>395</ele>
						<time>2023-01-18T00:08:44Z</time>
					</trkpt>
					<trkpt lat="48.005450" lon="6.611880">
						<ele>397</ele>
						<time>2023-01-18T00:08:56Z</time>
					</trkpt>
					<trkpt lat="48.005820" lon="6.611450">
						<ele>399</ele>
						<time>2023-01-18T00:09:05Z</time>
					</trkpt>
					<trkpt lat="48.006120" lon="6.611010">
						<ele>400</ele>
						<time>2023-01-18T00:09:12Z</time>
					</trkpt>
					<trkpt lat="48.007680" lon="6.608210">
						<ele>403</ele>
						<time>2023-01-18T00:09:56Z</time>
					</trkpt>
					<trkpt lat="48.008110" lon="6.607550">
						<ele>404</ele>
						<time>2023-01-18T00:10:07Z</time>
					</trkpt>
					<trkpt lat="48.008320" lon="6.607280">
						<ele>403</ele>
						<time>2023-01-18T00:10:12Z</time>
					</trkpt>
					<trkpt lat="48.008350" lon="6.607310">
						<ele>403</ele>
						<time>2023-01-18T00:10:12Z</time>
					</trkpt>
					<trkpt lat="48.008380" lon="6.607320">
						<ele>403</ele>
						<time>2023-01-18T00:10:13Z</time>
					</trkpt>
					<trkpt lat="48.008440" lon="6.607260">
						<ele>403</ele>
						<time>2023-01-18T00:10:14Z</time>
					</trkpt>
					<trkpt lat="48.008450" lon="6.607170">
						<ele>403</ele>
						<time>2023-01-18T00:10:15Z</time>
					</trkpt>
					<trkpt lat="48.008410" lon="6.607110">
						<ele>404</ele>
						<time>2023-01-18T00:10:16Z</time>
					</trkpt>
					<trkpt lat="48.008380" lon="6.607090">
						<ele>404</ele>
						<time>2023-01-18T00:10:17Z</time>
					</trkpt>
					<trkpt lat="48.008330" lon="6.607120">
						<ele>404</ele>
						<time>2023-01-18T00:10:18Z</time>
					</trkpt>
					<trkpt lat="48.008160" lon="6.607020">
						<ele>406</ele>
						<time>2023-01-18T00:10:21Z</time>
					</trkpt>
					<trkpt lat="48.008070" lon="6.607020">
						<ele>407</ele>
						<time>2023-01-18T00:10:22Z</time>
					</trkpt>
					<trkpt lat="48.007840" lon="6.607120">
						<ele>409</ele>
						<time>2023-01-18T00:10:27Z</time>
					</trkpt>
					<trkpt lat="48.007770" lon="6.607040">
						<ele>410</ele>
						<time>2023-01-18T00:10:28Z</time>
					</trkpt>
					<trkpt lat="48.007610" lon="6.606490">
						<ele>415</ele>
						<time>2023-01-18T00:10:35Z</time>
					</trkpt>
					<trkpt lat="48.007550" lon="6.606350">
						<ele>416</ele>
						<time>2023-01-18T00:10:37Z</time>
					</trkpt>
					<trkpt lat="48.007380" lon="6.606220">
						<ele>418</ele>
						<time>2023-01-18T00:10:41Z</time>
					</trkpt>
					<trkpt lat="48.007350" lon="6.606150">
						<ele>418</ele>
						<time>2023-01-18T00:10:42Z</time>
					</trkpt>
					<trkpt lat="48.007310" lon="6.606030">
						<ele>418</ele>
						<time>2023-01-18T00:10:43Z</time>
					</trkpt>
					<trkpt lat="48.007310" lon="6.605920">
						<ele>418</ele>
						<time>2023-01-18T00:10:45Z</time>
					</trkpt>
					<trkpt lat="48.007340" lon="6.605830">
						<ele>418</ele>
						<time>2023-01-18T00:10:46Z</time>
					</trkpt>
					<trkpt lat="48.007400" lon="6.605770">
						<ele>418</ele>
						<time>2023-01-18T00:10:47Z</time>
					</trkpt>
					<trkpt lat="48.007590" lon="6.605660">
						<ele>416</ele>
						<time>2023-01-18T00:10:51Z</time>
					</trkpt>
					<trkpt lat="48.007730" lon="6.605460">
						<ele>415</ele>
						<time>2023-01-18T00:10:54Z</time>
					</trkpt>
					<trkpt lat="48.007830" lon="6.605240">
						<ele>415</ele>
						<time>2023-01-18T00:10:57Z</time>
					</trkpt>
					<trkpt lat="48.007920" lon="6.604720">
						<ele>416</ele>
						<time>2023-01-18T00:11:04Z</time>
					</trkpt>
					<trkpt lat="48.007950" lon="6.604510">
						<ele>417</ele>
						<time>2023-01-18T00:11:06Z</time>
					</trkpt>
					<trkpt lat="48.007950" lon="6.604390">
						<ele>418</ele>
						<time>2023-01-18T00:11:08Z</time>
					</trkpt>
					<trkpt lat="48.007860" lon="6.604090">
						<ele>419</ele>
						<time>2023-01-18T00:11:12Z</time>
					</trkpt>
					<trkpt lat="48.007300" lon="6.603260">
						<ele>435</ele>
						<time>2023-01-18T00:11:26Z</time>
					</trkpt>
					<trkpt lat="48.007370" lon="6.603210">
						<ele>437</ele>
						<time>2023-01-18T00:11:27Z</time>
					</trkpt>
					<trkpt lat="48.007740" lon="6.603120">
						<ele>437</ele>
						<time>2023-01-18T00:11:34Z</time>
					</trkpt>
					<trkpt lat="48.008360" lon="6.602800">
						<ele>438</ele>
						<time>2023-01-18T00:11:45Z</time>
					</trkpt>
					<trkpt lat="48.008800" lon="6.602690">
						<ele>433</ele>
						<time>2023-01-18T00:11:53Z</time>
					</trkpt>
					<trkpt lat="48.009010" lon="6.602680">
						<ele>430</ele>
						<time>2023-01-18T00:11:57Z</time>
					</trkpt>
					<trkpt lat="48.009260" lon="6.602670">
						<ele>425</ele>
						<time>2023-01-18T00:12:02Z</time>
					</trkpt>
					<trkpt lat="48.009600" lon="6.602560">
						<ele>418</ele>
						<time>2023-01-18T00:12:08Z</time>
					</trkpt>
					<trkpt lat="48.009680" lon="6.602490">
						<ele>417</ele>
						<time>2023-01-18T00:12:09Z</time>
					</trkpt>
					<trkpt lat="48.009960" lon="6.601750">
						<ele>424</ele>
						<time>2023-01-18T00:12:20Z</time>
					</trkpt>
					<trkpt lat="48.010120" lon="6.601460">
						<ele>424</ele>
						<time>2023-01-18T00:12:24Z</time>
					</trkpt>
					<trkpt lat="48.010260" lon="6.601070">
						<ele>426</ele>
						<time>2023-01-18T00:12:29Z</time>
					</trkpt>
					<trkpt lat="48.010220" lon="6.599530">
						<ele>425</ele>
						<time>2023-01-18T00:12:48Z</time>
					</trkpt>
					<trkpt lat="48.010360" lon="6.598310">
						<ele>416</ele>
						<time>2023-01-18T00:13:02Z</time>
					</trkpt>
					<trkpt lat="48.010370" lon="6.598040">
						<ele>417</ele>
						<time>2023-01-18T00:13:06Z</time>
					</trkpt>
					<trkpt lat="48.010400" lon="6.597800">
						<ele>418</ele>
						<time>2023-01-18T00:13:09Z</time>
					</trkpt>
					<trkpt lat="48.010460" lon="6.597660">
						<ele>417</ele>
						<time>2023-01-18T00:13:11Z</time>
					</trkpt>
					<trkpt lat="48.010650" lon="6.597600">
						<ele>412</ele>
						<time>2023-01-18T00:13:14Z</time>
					</trkpt>
					<trkpt lat="48.011030" lon="6.597380">
						<ele>406</ele>
						<time>2023-01-18T00:13:21Z</time>
					</trkpt>
					<trkpt lat="48.011210" lon="6.597320">
						<ele>403</ele>
						<time>2023-01-18T00:13:24Z</time>
					</trkpt>
					<trkpt lat="48.011200" lon="6.596320">
						<ele>412</ele>
						<time>2023-01-18T00:13:36Z</time>
					</trkpt>
					<trkpt lat="48.011200" lon="6.596030">
						<ele>417</ele>
						<time>2023-01-18T00:13:40Z</time>
					</trkpt>
					<trkpt lat="48.011310" lon="6.595720">
						<ele>419</ele>
						<time>2023-01-18T00:13:44Z</time>
					</trkpt>
					<trkpt lat="48.011560" lon="6.595230">
						<ele>419</ele>
						<time>2023-01-18T00:13:51Z</time>
					</trkpt>
					<trkpt lat="48.011650" lon="6.594940">
						<ele>421</ele>
						<time>2023-01-18T00:13:55Z</time>
					</trkpt>
					<trkpt lat="48.011660" lon="6.594880">
						<ele>422</ele>
						<time>2023-01-18T00:13:56Z</time>
					</trkpt>
					<trkpt lat="48.011580" lon="6.594600">
						<ele>430</ele>
						<time>2023-01-18T00:14:00Z</time>
					</trkpt>
					<trkpt lat="48.011620" lon="6.593730">
						<ele>441</ele>
						<time>2023-01-18T00:14:10Z</time>
					</trkpt>
					<trkpt lat="48.011650" lon="6.593410">
						<ele>443</ele>
						<time>2023-01-18T00:14:14Z</time>
					</trkpt>
					<trkpt lat="48.011780" lon="6.592780">
						<ele>443</ele>
						<time>2023-01-18T00:14:22Z</time>
					</trkpt>
					<trkpt lat="48.011770" lon="6.592710">
						<ele>443</ele>
						<time>2023-01-18T00:14:22Z</time>
					</trkpt>
					<trkpt lat="48.011620" lon="6.592430">
						<ele>450</ele>
						<time>2023-01-18T00:14:27Z</time>
					</trkpt>
					<trkpt lat="48.011520" lon="6.592150">
						<ele>455</ele>
						<time>2023-01-18T00:14:30Z</time>
					</trkpt>
					<trkpt lat="48.011520" lon="6.592010">
						<ele>456</ele>
						<time>2023-01-18T00:14:32Z</time>
					</trkpt>
					<trkpt lat="48.011600" lon="6.591760">
						<ele>454</ele>
						<time>2023-01-18T00:14:35Z</time>
					</trkpt>
					<trkpt lat="48.012040" lon="6.591110">
						<ele>442</ele>
						<time>2023-01-18T00:14:46Z</time>
					</trkpt>
					<trkpt lat="48.012250" lon="6.590640">
						<ele>433</ele>
						<time>2023-01-18T00:14:53Z</time>
					</trkpt>
					<trkpt lat="48.012380" lon="6.590320">
						<ele>426</ele>
						<time>2023-01-18T00:14:58Z</time>
					</trkpt>
					<trkpt lat="48.012340" lon="6.590230">
						<ele>427</ele>
						<time>2023-01-18T00:14:59Z</time>
					</trkpt>
					<trkpt lat="48.012200" lon="6.590120">
						<ele>432</ele>
						<time>2023-01-18T00:15:02Z</time>
					</trkpt>
					<trkpt lat="48.012120" lon="6.589960">
						<ele>435</ele>
						<time>2023-01-18T00:15:04Z</time>
					</trkpt>
					<trkpt lat="48.012100" lon="6.589830">
						<ele>435</ele>
						<time>2023-01-18T00:15:06Z</time>
					</trkpt>
					<trkpt lat="48.012120" lon="6.589600">
						<ele>433</ele>
						<time>2023-01-18T00:15:08Z</time>
					</trkpt>
					<trkpt lat="48.012170" lon="6.589360">
						<ele>429</ele>
						<time>2023-01-18T00:15:11Z</time>
					</trkpt>
					<trkpt lat="48.012240" lon="6.588910">
						<ele>424</ele>
						<time>2023-01-18T00:15:17Z</time>
					</trkpt>
					<trkpt lat="48.012280" lon="6.588560">
						<ele>421</ele>
						<time>2023-01-18T00:15:21Z</time>
					</trkpt>
					<trkpt lat="48.012350" lon="6.588320">
						<ele>418</ele>
						<time>2023-01-18T00:15:24Z</time>
					</trkpt>
					<trkpt lat="48.012360" lon="6.588250">
						<ele>418</ele>
						<time>2023-01-18T00:15:25Z</time>
					</trkpt>
					<trkpt lat="48.012350" lon="6.588110">
						<ele>417</ele>
						<time>2023-01-18T00:15:27Z</time>
					</trkpt>
					<trkpt lat="48.012300" lon="6.587960">
						<ele>417</ele>
						<time>2023-01-18T00:15:29Z</time>
					</trkpt>
					<trkpt lat="48.012280" lon="6.587860">
						<ele>417</ele>
						<time>2023-01-18T00:15:30Z</time>
					</trkpt>
					<trkpt lat="48.012290" lon="6.587790">
						<ele>417</ele>
						<time>2023-01-18T00:15:31Z</time>
					</trkpt>
					<trkpt lat="48.012340" lon="6.587630">
						<ele>416</ele>
						<time>2023-01-18T00:15:33Z</time>
					</trkpt>
					<trkpt lat="48.012420" lon="6.587690">
						<ele>415</ele>
						<time>2023-01-18T00:15:35Z</time>
					</trkpt>
					</trkseg>
				</trk>
			</gpx>